Time,TemperatureF,DewpointF,PressureIn,WindDirection,WindDirectionDegrees,WindSpeedMPH,WindSpeedGustMPH,Humidity,HourlyPrecipIn,Conditions,Clouds,dailyrainin,SoftwareType,DateUTC
2013-01-19 00:00:00,46.9,24.5,30.35,SSW,206,4.0,4.0,41,0.00,,OVC,0.00,VWS V14.00,2013-01-19 05:00:00,
2013-01-19 00:01:00,46.9,24.5,30.35,SSW,206,4.0,4.0,41,0.00,,OVC,0.00,VWS V14.00,2013-01-19 05:01:00,
2013-01-19 00:02:00,46.9,24.5,30.35,SSW,206,3.6,4.0,41,0.00,,OVC,0.00,VWS V14.00,2013-01-19 05:02:00,
2013-01-19 00:03:00,46.9,24.5,30.35,SSW,206,4.9,4.9,41,0.00,,OVC,0.00,VWS V14.00,2013-01-19 05:03:00,
2013-01-19 00:04:00,46.9,24.5,30.35,SSW,206,4.5,4.9,41,0.00,,OVC,0.00,VWS V14.00,2013-01-19 05:04:00,
2013-01-19 00:05:00,46.9,24.5,30.35,SSW,206,4.9,4.9,41,0.00,,OVC,0.00,VWS V14.00,2013-01-19 05:05:00,
2013-01-19 00:06:00,46.9,24.5,30.35,SSW,206,4.0,4.9,41,0.00,,OVC,0.00,VWS V14.00,2013-01-19 05:06:00,
2013-01-19 00:07:00,46.9,24.5,30.35,South,177,5.4,5.4,41,0.00,,OVC,0.00,VWS V14.00,2013-01-19 05:07:00,
2013-01-19 00:08:00,46.8,24.3,30.35,South,179,5.8,6.7,41,0.00,,OVC,0.00,VWS V14.00,2013-01-19 05:08:00,
2013-01-19 00:09:00,46.8,24.3,30.35,South,179,5.8,5.8,41,0.00,,OVC,0.00,VWS V14.00,2013-01-19 05:09:00,
2013-01-19 00:10:00,46.6,24.2,30.35,South,176,5.4,6.3,41,0.00,,OVC,0.00,VWS V14.00,2013-01-19 05:10:00,
2013-01-19 00:11:00,46.6,24.2,30.35,South,175,5.8,5.8,41,0.00,,OVC,0.00,VWS V14.00,2013-01-19 05:11:00,
2013-01-19 00:12:00,46.4,24.0,30.35,South,175,5.4,5.8,41,0.00,,OVC,0.00,VWS V14.00,2013-01-19 05:12:00,
2013-01-19 00:13:00,46.4,24.0,30.35,South,182,5.4,6.3,41,0.00,,OVC,0.00,VWS V14.00,2013-01-19 05:13:00,
2013-01-19 00:14:00,46.4,24.0,30.35,South,189,4.9,5.4,41,0.00,,OVC,0.00,VWS V14.00,2013-01-19 05:14:00,
2013-01-19 00:15:00,46.2,23.8,30.35,SSW,192,4.0,5.4,41,0.00,,OVC,0.00,VWS V14.00,2013-01-19 05:15:00,
2013-01-19 00:16:00,46.2,23.8,30.35,South,189,4.0,5.8,41,0.00,,OVC,0.00,VWS V14.00,2013-01-19 05:16:00,
2013-01-19 00:17:00,46.2,23.8,30.35,South,187,5.4,5.4,41,0.00,,OVC,0.00,VWS V14.00,2013-01-19 05:17:00,
2013-01-19 00:18:00,46.0,23.7,30.35,SSW,192,5.4,5.4,41,0.00,,OVC,0.00,VWS V14.00,2013-01-19 05:18:00,
2013-01-19 00:19:00,46.0,24.2,30.35,SSW,194,4.9,5.8,42,0.00,,OVC,0.00,VWS V14.00,2013-01-19 05:19:00,
2013-01-19 00:20:00,46.0,24.2,30.35,South,190,4.0,5.4,42,0.00,,OVC,0.00,VWS V14.00,2013-01-19 05:20:00,
2013-01-19 00:21:00,46.0,24.2,30.35,SSW,194,5.4,5.8,42,0.00,,OVC,0.00,VWS V14.00,2013-01-19 05:21:00,
2013-01-19 00:22:00,46.0,24.2,30.35,SSW,194,5.4,6.3,42,0.00,,OVC,0.00,VWS V14.00,2013-01-19 05:22:00,
2013-01-19 00:23:00,46.0,24.2,30.35,SSW,194,4.9,5.4,42,0.00,,OVC,0.00,VWS V14.00,2013-01-19 05:23:00,
2013-01-19 00:24:00,46.0,24.2,30.35,SSW,202,4.9,6.3,42,0.00,,OVC,0.00,VWS V14.00,2013-01-19 05:24:00,
2013-01-19 00:25:00,45.9,24.1,30.35,SSW,197,5.8,5.8,42,0.00,,OVC,0.00,VWS V14.00,2013-01-19 05:25:00,
2013-01-19 00:26:00,45.9,24.1,30.35,SSW,200,4.9,5.8,42,0.00,,OVC,0.00,VWS V14.00,2013-01-19 05:26:00,
2013-01-19 00:27:00,45.9,24.1,30.35,SSW,205,5.8,5.8,42,0.00,,OVC,0.00,VWS V14.00,2013-01-19 05:27:00,
2013-01-19 00:28:00,45.9,24.1,30.35,SSW,198,4.9,6.3,42,0.00,,OVC,0.00,VWS V14.00,2013-01-19 05:28:00,
2013-01-19 00:29:00,45.9,24.1,30.35,SSW,200,4.0,6.3,42,0.00,,OVC,0.00,VWS V14.00,2013-01-19 05:29:00,
2013-01-19 00:30:00,45.9,24.1,30.35,SSW,194,5.4,6.3,42,0.00,,OVC,0.00,VWS V14.00,2013-01-19 05:30:00,
2013-01-19 00:31:00,45.9,24.1,30.35,SSW,196,4.9,6.3,42,0.00,,OVC,0.00,VWS V14.00,2013-01-19 05:31:00,
2013-01-19 00:32:00,45.9,24.1,30.35,SSW,207,5.4,5.4,42,0.00,,OVC,0.00,VWS V14.00,2013-01-19 05:32:00,
2013-01-19 00:33:00,45.9,24.1,30.35,SSW,207,5.8,6.3,42,0.00,,OVC,0.00,VWS V14.00,2013-01-19 05:33:00,
2013-01-19 00:34:00,45.7,23.9,30.35,SSW,192,3.6,5.8,42,0.00,,OVC,0.00,VWS V14.00,2013-01-19 05:34:00,
2013-01-19 00:35:00,45.7,24.5,30.35,South,186,5.4,5.4,43,0.00,,OVC,0.00,VWS V14.00,2013-01-19 05:35:00,
2013-01-19 00:36:00,45.7,24.5,30.35,SSW,193,4.9,5.8,43,0.00,,OVC,0.00,VWS V14.00,2013-01-19 05:36:00,
2013-01-19 00:37:00,45.7,24.5,30.35,SSW,206,5.8,5.8,43,0.00,,OVC,0.00,VWS V14.00,2013-01-19 05:37:00,
2013-01-19 00:38:00,45.7,24.5,30.35,SSW,207,4.9,5.8,43,0.00,,OVC,0.00,VWS V14.00,2013-01-19 05:38:00,
2013-01-19 00:39:00,45.7,24.5,30.35,SSW,207,5.8,5.8,43,0.00,,OVC,0.00,VWS V14.00,2013-01-19 05:39:00,
2013-01-19 00:40:00,45.5,24.3,30.35,SSW,203,5.4,5.8,43,0.00,,OVC,0.00,VWS V14.00,2013-01-19 05:40:00,
2013-01-19 00:41:00,45.5,24.3,30.35,South,184,4.0,5.4,43,0.00,,OVC,0.00,VWS V14.00,2013-01-19 05:41:00,
2013-01-19 00:42:00,45.5,24.3,30.35,South,191,3.6,4.9,43,0.00,,OVC,0.00,VWS V14.00,2013-01-19 05:42:00,
2013-01-19 00:43:00,45.5,24.3,30.35,SSW,194,4.0,4.9,43,0.00,,OVC,0.00,VWS V14.00,2013-01-19 05:43:00,
2013-01-19 00:44:00,45.5,24.3,30.35,SSW,193,4.9,5.4,43,0.00,,OVC,0.00,VWS V14.00,2013-01-19 05:44:00,
2013-01-19 00:45:00,45.5,24.3,30.35,South,189,4.0,4.9,43,0.00,,OVC,0.00,VWS V14.00,2013-01-19 05:45:00,
2013-01-19 00:46:00,45.5,24.3,30.35,South,189,4.0,4.9,43,0.00,,OVC,0.00,VWS V14.00,2013-01-19 05:46:00,
2013-01-19 00:47:00,45.3,24.2,30.35,South,191,3.6,5.4,43,0.00,,OVC,0.00,VWS V14.00,2013-01-19 05:47:00,
2013-01-19 00:48:00,45.3,24.2,30.35,SSW,193,4.0,4.0,43,0.00,,OVC,0.00,VWS V14.00,2013-01-19 05:48:00,
2013-01-19 00:49:00,45.3,24.2,30.35,South,191,3.6,4.0,43,0.00,,OVC,0.00,VWS V14.00,2013-01-19 05:49:00,
2013-01-19 00:50:00,45.3,24.2,30.35,South,191,3.6,4.0,43,0.00,,OVC,0.00,VWS V14.00,2013-01-19 05:50:00,
2013-01-19 00:51:00,45.1,24.0,30.35,SSW,196,4.0,4.9,43,0.00,,OVC,0.00,VWS V14.00,2013-01-19 05:51:00,
2013-01-19 00:52:00,45.1,24.0,30.35,SSW,195,4.0,4.5,43,0.00,,OVC,0.00,VWS V14.00,2013-01-19 05:52:00,
2013-01-19 00:53:00,45.1,24.0,30.35,SSW,194,4.0,4.0,43,0.00,,OVC,0.00,VWS V14.00,2013-01-19 05:53:00,
2013-01-19 00:54:00,45.1,24.0,30.35,SSW,194,3.6,4.0,43,0.00,,OVC,0.00,VWS V14.00,2013-01-19 05:54:00,
2013-01-19 00:55:00,45.0,23.8,30.35,SSW,194,3.1,4.0,43,0.00,,OVC,0.00,VWS V14.00,2013-01-19 05:55:00,
2013-01-19 00:56:00,45.0,23.8,30.35,SSW,198,3.6,4.0,43,0.00,,OVC,0.00,VWS V14.00,2013-01-19 05:56:00,
2013-01-19 00:57:00,44.8,23.7,30.35,SSW,198,4.0,4.0,43,0.00,,OVC,0.00,VWS V14.00,2013-01-19 05:57:00,
2013-01-19 00:58:00,44.8,23.7,30.35,SSW,200,4.0,4.0,43,0.00,,OVC,0.00,VWS V14.00,2013-01-19 05:58:00,
2013-01-19 00:59:00,44.8,23.7,30.35,SSW,200,3.6,4.9,43,0.00,,OVC,0.00,VWS V14.00,2013-01-19 05:59:00,
2013-01-19 01:00:00,44.8,23.7,30.35,SSW,195,4.0,5.4,43,0.00,,OVC,0.00,VWS V14.00,2013-01-19 06:00:00,
2013-01-19 01:01:00,44.8,23.7,30.35,South,187,5.4,5.4,43,0.00,,OVC,0.00,VWS V14.00,2013-01-19 06:01:00,
2013-01-19 01:02:00,44.8,23.7,30.35,SSW,193,4.9,5.4,43,0.00,,OVC,0.00,VWS V14.00,2013-01-19 06:02:00,
2013-01-19 01:03:00,44.6,23.5,30.35,South,190,3.6,4.0,43,0.00,,OVC,0.00,VWS V14.00,2013-01-19 06:03:00,
2013-01-19 01:04:00,44.6,23.5,30.35,SSW,192,4.9,4.9,43,0.00,,OVC,0.00,VWS V14.00,2013-01-19 06:04:00,
2013-01-19 01:05:00,44.6,24.0,30.35,SSW,193,4.0,4.9,44,0.00,,OVC,0.00,VWS V14.00,2013-01-19 06:05:00,
2013-01-19 01:06:00,44.6,24.0,30.35,South,191,4.9,5.8,44,0.00,,OVC,0.00,VWS V14.00,2013-01-19 06:06:00,
2013-01-19 01:07:00,44.6,24.0,30.35,SSW,198,3.6,5.4,44,0.00,,OVC,0.00,VWS V14.00,2013-01-19 06:07:00,
2013-01-19 01:08:00,44.6,24.0,30.35,SSW,199,4.9,4.9,44,0.00,,OVC,0.00,VWS V14.00,2013-01-19 06:08:00,
2013-01-19 01:09:00,44.6,24.0,30.35,SSW,202,4.0,4.9,44,0.00,,OVC,0.00,VWS V14.00,2013-01-19 06:09:00,
2013-01-19 01:10:00,44.6,24.0,30.35,SSW,205,4.5,4.5,44,0.00,,OVC,0.00,VWS V14.00,2013-01-19 06:10:00,
2013-01-19 01:11:00,44.6,24.0,30.35,SSW,206,4.9,4.9,44,0.00,,OVC,0.00,VWS V14.00,2013-01-19 06:11:00,
2013-01-19 01:12:00,44.6,24.0,30.35,SSW,209,4.0,4.9,44,0.00,,OVC,0.00,VWS V14.00,2013-01-19 06:12:00,
2013-01-19 01:13:00,44.6,24.0,30.35,SSW,207,4.0,4.0,44,0.00,,OVC,0.00,VWS V14.00,2013-01-19 06:13:00,
2013-01-19 01:14:00,44.6,24.0,30.35,SSW,207,4.0,4.0,44,0.00,,OVC,0.00,VWS V14.00,2013-01-19 06:14:00,
2013-01-19 01:15:00,44.6,24.0,30.35,SSW,207,4.9,4.9,44,0.00,,OVC,0.00,VWS V14.00,2013-01-19 06:15:00,
2013-01-19 01:16:00,44.4,24.4,30.35,SSW,204,4.9,4.9,45,0.00,,OVC,0.00,VWS V14.00,2013-01-19 06:16:00,
2013-01-19 01:17:00,44.4,24.4,30.35,SSW,202,4.9,4.9,45,0.00,,OVC,0.00,VWS V14.00,2013-01-19 06:17:00,
2013-01-19 01:18:00,44.4,24.4,30.35,SSW,203,3.6,3.6,45,0.00,,OVC,0.00,VWS V14.00,2013-01-19 06:18:00,
2013-01-19 01:19:00,44.4,24.4,30.35,SSW,202,3.1,4.0,45,0.00,,OVC,0.00,VWS V14.00,2013-01-19 06:19:00,
2013-01-19 01:20:00,44.4,24.4,30.35,SSW,203,4.0,4.0,45,0.00,,OVC,0.00,VWS V14.00,2013-01-19 06:20:00,
2013-01-19 01:21:00,44.4,24.4,30.35,SSW,202,4.9,4.9,45,0.00,,OVC,0.00,VWS V14.00,2013-01-19 06:21:00,
2013-01-19 01:22:00,44.4,24.4,30.35,SSW,203,4.0,5.4,45,0.00,,OVC,0.00,VWS V14.00,2013-01-19 06:22:00,
2013-01-19 01:23:00,44.2,24.3,30.35,SSW,203,4.9,4.9,45,0.00,,OVC,0.00,VWS V14.00,2013-01-19 06:23:00,
2013-01-19 01:24:00,44.2,24.3,30.35,SSW,203,4.9,5.4,45,0.00,,OVC,0.00,VWS V14.00,2013-01-19 06:24:00,
2013-01-19 01:25:00,44.2,24.3,30.35,SSW,204,5.4,5.4,45,0.00,,OVC,0.00,VWS V14.00,2013-01-19 06:25:00,
2013-01-19 01:26:00,44.2,24.3,30.35,SSW,204,5.4,5.8,45,0.00,,OVC,0.00,VWS V14.00,2013-01-19 06:26:00,
2013-01-19 01:27:00,44.2,24.3,30.35,SSW,208,4.9,5.8,45,0.00,,OVC,0.00,VWS V14.00,2013-01-19 06:27:00,
2013-01-19 01:28:00,44.2,24.3,30.35,SSW,208,5.4,5.4,45,0.00,,OVC,0.00,VWS V14.00,2013-01-19 06:28:00,
2013-01-19 01:29:00,44.2,24.3,30.35,SSW,206,6.3,6.3,45,0.00,,OVC,0.00,VWS V14.00,2013-01-19 06:29:00,
2013-01-19 01:30:00,44.2,24.3,30.35,SSW,201,4.9,6.3,45,0.00,,OVC,0.00,VWS V14.00,2013-01-19 06:30:00,
2013-01-19 01:31:00,44.1,24.1,30.35,SSW,202,3.6,5.4,45,0.00,,OVC,0.00,VWS V14.00,2013-01-19 06:31:00,
2013-01-19 01:32:00,44.1,24.1,30.35,SSW,202,4.9,4.9,45,0.00,,OVC,0.00,VWS V14.00,2013-01-19 06:32:00,
2013-01-19 01:33:00,44.1,24.1,30.35,SSW,196,3.6,3.6,45,0.00,,OVC,0.00,VWS V14.00,2013-01-19 06:33:00,
2013-01-19 01:34:00,44.1,24.1,30.35,SSW,197,4.0,4.0,45,0.00,,OVC,0.00,VWS V14.00,2013-01-19 06:34:00,
2013-01-19 01:35:00,44.1,24.1,30.35,SSW,200,3.6,4.9,45,0.00,,OVC,0.00,VWS V14.00,2013-01-19 06:35:00,
2013-01-19 01:36:00,44.1,24.1,30.35,SSW,199,4.0,4.0,45,0.00,,OVC,0.00,VWS V14.00,2013-01-19 06:36:00,
2013-01-19 01:37:00,44.1,24.1,30.35,SSW,200,4.9,5.4,45,0.00,,OVC,0.00,VWS V14.00,2013-01-19 06:37:00,
2013-01-19 01:38:00,43.9,23.9,30.35,SSW,200,4.0,4.9,45,0.00,,OVC,0.00,VWS V14.00,2013-01-19 06:38:00,
2013-01-19 01:39:00,43.9,23.9,30.35,SSW,204,5.4,5.4,45,0.00,,OVC,0.00,VWS V14.00,2013-01-19 06:39:00,
2013-01-19 01:40:00,43.9,23.9,30.35,SSW,204,4.9,5.4,45,0.00,,OVC,0.00,VWS V14.00,2013-01-19 06:40:00,
2013-01-19 01:41:00,43.9,23.9,30.35,SSW,205,4.9,4.9,45,0.00,,OVC,0.00,VWS V14.00,2013-01-19 06:41:00,
2013-01-19 01:42:00,43.7,23.8,30.35,SSW,207,4.9,5.4,45,0.00,,OVC,0.00,VWS V14.00,2013-01-19 06:42:00,
2013-01-19 01:43:00,43.7,24.3,30.35,SSW,208,4.9,4.9,46,0.00,,OVC,0.00,VWS V14.00,2013-01-19 06:43:00,
2013-01-19 01:44:00,43.7,24.3,30.35,SSW,209,4.9,5.4,46,0.00,,OVC,0.00,VWS V14.00,2013-01-19 06:44:00,
2013-01-19 01:45:00,43.7,24.3,30.35,SSW,209,5.4,5.4,46,0.00,,OVC,0.00,VWS V14.00,2013-01-19 06:45:00,
2013-01-19 01:46:00,43.7,24.3,30.35,SSW,208,4.9,5.4,46,0.00,,OVC,0.00,VWS V14.00,2013-01-19 06:46:00,
2013-01-19 01:47:00,43.7,24.3,30.35,SSW,207,4.0,5.4,46,0.00,,OVC,0.00,VWS V14.00,2013-01-19 06:47:00,
2013-01-19 01:48:00,43.7,24.3,30.35,SSW,208,4.9,5.4,46,0.00,,OVC,0.00,VWS V14.00,2013-01-19 06:48:00,
2013-01-19 01:49:00,43.5,24.1,30.35,SSW,207,4.9,5.4,46,0.00,,OVC,0.00,VWS V14.00,2013-01-19 06:49:00,
2013-01-19 01:50:00,43.5,24.1,30.35,SSW,204,5.4,5.4,46,0.00,,OVC,0.00,VWS V14.00,2013-01-19 06:50:00,
2013-01-19 01:51:00,43.5,24.1,30.35,SSW,205,4.9,5.4,46,0.00,,OVC,0.00,VWS V14.00,2013-01-19 06:51:00,
2013-01-19 01:52:00,43.5,24.1,30.35,SSW,206,5.8,5.8,46,0.00,,OVC,0.00,VWS V14.00,2013-01-19 06:52:00,
2013-01-19 01:53:00,43.5,24.1,30.35,SSW,211,5.4,5.8,46,0.00,,OVC,0.00,VWS V14.00,2013-01-19 06:53:00,
2013-01-19 01:54:00,43.5,24.1,30.35,SSW,209,5.4,5.8,46,0.00,,OVC,0.00,VWS V14.00,2013-01-19 06:54:00,
2013-01-19 01:55:00,43.3,24.0,30.35,SSW,208,5.4,5.4,46,0.00,,OVC,0.00,VWS V14.00,2013-01-19 06:55:00,
2013-01-19 01:56:00,43.3,24.0,30.35,SSW,209,5.4,5.8,46,0.00,,OVC,0.00,VWS V14.00,2013-01-19 06:56:00,
2013-01-19 01:57:00,43.3,24.0,30.35,SSW,208,5.8,7.2,46,0.00,,OVC,0.00,VWS V14.00,2013-01-19 06:57:00,
2013-01-19 01:58:00,43.3,24.0,30.35,SSW,206,5.4,5.4,46,0.00,,OVC,0.00,VWS V14.00,2013-01-19 06:58:00,
2013-01-19 01:59:00,43.3,24.0,30.35,SSW,206,5.4,6.3,46,0.00,,OVC,0.00,VWS V14.00,2013-01-19 06:59:00,
2013-01-19 02:00:00,43.3,24.0,30.35,SSW,204,4.9,5.4,46,0.00,,OVC,0.00,VWS V14.00,2013-01-19 07:00:00,
2013-01-19 02:01:00,43.3,24.5,30.35,SSW,206,5.8,5.8,47,0.00,,OVC,0.00,VWS V14.00,2013-01-19 07:01:00,
2013-01-19 02:02:00,43.3,24.5,30.35,SSW,203,5.4,6.3,47,0.00,,OVC,0.00,VWS V14.00,2013-01-19 07:02:00,
2013-01-19 02:03:00,43.3,24.5,30.32,SSW,205,4.9,5.8,47,0.00,,OVC,0.00,VWS V14.00,2013-01-19 07:03:00,
2013-01-19 02:04:00,43.3,24.5,30.32,SSW,211,5.4,5.8,47,0.00,,OVC,0.00,VWS V14.00,2013-01-19 07:04:00,
2013-01-19 02:05:00,43.3,24.5,30.32,SSW,208,5.4,5.4,47,0.00,,OVC,0.00,VWS V14.00,2013-01-19 07:05:00,
2013-01-19 02:06:00,43.3,24.5,30.32,SSW,211,5.4,5.4,47,0.00,,OVC,0.00,VWS V14.00,2013-01-19 07:06:00,
2013-01-19 02:07:00,43.3,24.5,30.32,SSW,208,6.3,6.3,47,0.00,,OVC,0.00,VWS V14.00,2013-01-19 07:07:00,
2013-01-19 02:08:00,43.3,24.5,30.32,SSW,209,5.4,5.4,47,0.00,,OVC,0.00,VWS V14.00,2013-01-19 07:08:00,
2013-01-19 02:09:00,43.3,24.5,30.32,SSW,211,5.4,5.8,47,0.00,,OVC,0.00,VWS V14.00,2013-01-19 07:09:00,
2013-01-19 02:10:00,43.3,24.5,30.32,SSW,208,5.4,6.3,47,0.00,,OVC,0.00,VWS V14.00,2013-01-19 07:10:00,
2013-01-19 02:11:00,43.3,24.5,30.32,SSW,209,5.4,5.8,47,0.00,,OVC,0.00,VWS V14.00,2013-01-19 07:11:00,
2013-01-19 02:12:00,43.3,24.5,30.32,SSW,212,5.4,5.8,47,0.00,,OVC,0.00,VWS V14.00,2013-01-19 07:12:00,
2013-01-19 02:13:00,43.3,24.5,30.32,SSW,212,6.3,6.3,47,0.00,,OVC,0.00,VWS V14.00,2013-01-19 07:13:00,
2013-01-19 02:14:00,43.3,25.0,30.32,SW,217,5.8,6.3,48,0.00,,OVC,0.00,VWS V14.00,2013-01-19 07:14:00,
2013-01-19 02:15:00,43.3,25.0,30.32,SSW,210,5.4,6.3,48,0.00,,OVC,0.00,VWS V14.00,2013-01-19 07:15:00,
2013-01-19 02:16:00,43.3,25.0,30.32,SSW,211,5.4,6.3,48,0.00,,OVC,0.00,VWS V14.00,2013-01-19 07:16:00,
2013-01-19 02:17:00,43.3,25.0,30.32,SSW,208,6.3,6.3,48,0.00,,OVC,0.00,VWS V14.00,2013-01-19 07:17:00,
2013-01-19 02:18:00,43.3,25.0,30.32,SSW,210,5.8,5.8,48,0.00,,OVC,0.00,VWS V14.00,2013-01-19 07:18:00,
2013-01-19 02:19:00,43.3,25.0,30.32,SSW,204,6.3,6.3,48,0.00,,OVC,0.00,VWS V14.00,2013-01-19 07:19:00,
2013-01-19 02:20:00,43.3,25.0,30.32,SW,217,6.3,6.3,48,0.00,,OVC,0.00,VWS V14.00,2013-01-19 07:20:00,
2013-01-19 02:21:00,43.3,25.0,30.32,SSW,201,5.4,6.3,48,0.00,,OVC,0.00,VWS V14.00,2013-01-19 07:21:00,
2013-01-19 02:22:00,43.3,25.0,30.32,SSW,196,5.4,5.8,48,0.00,,OVC,0.00,VWS V14.00,2013-01-19 07:22:00,
2013-01-19 02:23:00,43.3,25.0,30.32,SSW,192,4.9,4.9,48,0.00,,OVC,0.00,VWS V14.00,2013-01-19 07:23:00,
2013-01-19 02:24:00,43.3,25.0,30.32,South,177,4.0,5.4,48,0.00,,OVC,0.00,VWS V14.00,2013-01-19 07:24:00,
2013-01-19 02:25:00,43.3,25.0,30.32,SSW,205,5.8,6.7,48,0.00,,OVC,0.00,VWS V14.00,2013-01-19 07:25:00,
2013-01-19 02:26:00,43.3,25.0,30.32,South,183,5.4,6.3,48,0.00,,OVC,0.00,VWS V14.00,2013-01-19 07:26:00,
2013-01-19 02:27:00,43.3,25.0,30.32,SSW,193,4.0,5.4,48,0.00,,OVC,0.00,VWS V14.00,2013-01-19 07:27:00,
2013-01-19 02:28:00,43.3,25.0,30.32,South,189,5.4,7.6,48,0.00,,OVC,0.00,VWS V14.00,2013-01-19 07:28:00,
2013-01-19 02:29:00,43.3,25.0,30.32,SSW,192,7.6,7.6,48,0.00,,OVC,0.00,VWS V14.00,2013-01-19 07:29:00,
2013-01-19 02:30:00,43.3,25.0,30.32,South,187,6.7,7.6,48,0.00,,OVC,0.00,VWS V14.00,2013-01-19 07:30:00,
2013-01-19 02:31:00,43.3,25.0,30.32,South,178,6.7,7.6,48,0.00,,OVC,0.00,VWS V14.00,2013-01-19 07:31:00,
2013-01-19 02:32:00,43.5,25.6,30.32,SSW,203,6.3,8.1,49,0.00,,OVC,0.00,VWS V14.00,2013-01-19 07:32:00,
2013-01-19 02:33:00,43.5,25.6,30.32,South,185,6.3,8.1,49,0.00,,OVC,0.00,VWS V14.00,2013-01-19 07:33:00,
2013-01-19 02:34:00,43.5,25.6,30.32,South,185,8.7,8.7,49,0.00,,OVC,0.00,VWS V14.00,2013-01-19 07:34:00,
2013-01-19 02:35:00,43.5,25.6,30.32,South,189,8.3,8.7,49,0.00,,OVC,0.00,VWS V14.00,2013-01-19 07:35:00,
2013-01-19 02:36:00,43.5,25.6,30.32,South,187,8.1,8.7,49,0.00,,OVC,0.00,VWS V14.00,2013-01-19 07:36:00,
2013-01-19 02:37:00,43.5,25.6,30.32,South,181,10.5,10.5,49,0.00,,OVC,0.00,VWS V14.00,2013-01-19 07:37:00,
2013-01-19 02:38:00,43.7,26.3,30.32,South,191,8.7,11.4,50,0.00,,OVC,0.00,VWS V14.00,2013-01-19 07:38:00,
2013-01-19 02:39:00,43.7,26.3,30.32,South,188,8.7,11.4,50,0.00,,OVC,0.00,VWS V14.00,2013-01-19 07:39:00,
2013-01-19 02:40:00,43.7,26.3,30.32,South,185,8.3,8.7,50,0.00,,OVC,0.00,VWS V14.00,2013-01-19 07:40:00,
2013-01-19 02:41:00,43.9,26.5,30.32,SSW,194,10.1,10.1,50,0.00,,OVC,0.00,VWS V14.00,2013-01-19 07:41:00,
2013-01-19 02:42:00,43.9,26.5,30.32,South,191,8.1,10.1,50,0.00,,OVC,0.00,VWS V14.00,2013-01-19 07:42:00,
2013-01-19 02:43:00,43.9,26.5,30.32,South,186,8.3,8.3,50,0.00,,OVC,0.00,VWS V14.00,2013-01-19 07:43:00,
2013-01-19 02:44:00,44.1,26.6,30.32,South,185,9.6,9.6,50,0.00,,OVC,0.00,VWS V14.00,2013-01-19 07:44:00,
2013-01-19 02:45:00,44.1,27.1,30.32,South,186,7.6,9.6,51,0.00,,OVC,0.00,VWS V14.00,2013-01-19 07:45:00,
2013-01-19 02:46:00,44.1,27.1,30.32,South,184,8.7,10.1,51,0.00,,OVC,0.00,VWS V14.00,2013-01-19 07:46:00,
2013-01-19 02:47:00,44.1,27.1,30.32,South,183,8.7,8.7,51,0.00,,OVC,0.00,VWS V14.00,2013-01-19 07:47:00,
2013-01-19 02:48:00,44.1,27.1,30.32,SSW,194,6.7,8.3,51,0.00,,OVC,0.00,VWS V14.00,2013-01-19 07:48:00,
2013-01-19 02:49:00,44.1,27.1,30.32,South,187,6.3,8.3,51,0.00,,OVC,0.00,VWS V14.00,2013-01-19 07:49:00,
2013-01-19 02:50:00,44.1,27.1,30.32,SSW,192,6.3,6.3,51,0.00,,OVC,0.00,VWS V14.00,2013-01-19 07:50:00,
2013-01-19 02:51:00,44.1,27.1,30.32,South,188,8.1,8.3,51,0.00,,OVC,0.00,VWS V14.00,2013-01-19 07:51:00,
2013-01-19 02:52:00,44.1,27.1,30.32,SSW,196,5.8,8.1,51,0.00,,OVC,0.00,VWS V14.00,2013-01-19 07:52:00,
2013-01-19 02:53:00,44.1,27.1,30.32,South,170,5.4,5.8,51,0.00,,OVC,0.00,VWS V14.00,2013-01-19 07:53:00,
2013-01-19 02:54:00,44.1,27.1,30.32,South,182,7.6,7.6,51,0.00,,OVC,0.00,VWS V14.00,2013-01-19 07:54:00,
2013-01-19 02:55:00,44.1,27.1,30.32,South,178,6.3,7.6,51,0.00,,OVC,0.00,VWS V14.00,2013-01-19 07:55:00,
2013-01-19 02:56:00,44.1,27.1,30.32,SSW,193,5.8,6.3,51,0.00,,OVC,0.00,VWS V14.00,2013-01-19 07:56:00,
2013-01-19 02:57:00,44.1,27.1,30.32,SSW,194,5.4,5.8,51,0.00,,OVC,0.00,VWS V14.00,2013-01-19 07:57:00,
2013-01-19 02:58:00,44.1,27.1,30.32,South,176,5.4,5.8,51,0.00,,OVC,0.00,VWS V14.00,2013-01-19 07:58:00,
2013-01-19 02:59:00,44.1,27.1,30.32,South,177,5.4,5.8,51,0.00,,OVC,0.00,VWS V14.00,2013-01-19 07:59:00,
2013-01-19 03:00:00,44.1,27.1,30.32,SSE,163,6.3,6.3,51,0.00,,OVC,0.00,VWS V14.00,2013-01-19 08:00:00,
2013-01-19 03:01:00,43.9,26.9,30.32,SSE,166,6.3,6.3,51,0.00,,OVC,0.00,VWS V14.00,2013-01-19 08:01:00,
2013-01-19 03:02:00,43.9,26.9,30.32,SSE,164,5.4,6.3,51,0.00,,OVC,0.00,VWS V14.00,2013-01-19 08:02:00,
2013-01-19 03:03:00,43.9,26.9,30.32,SSW,205,4.0,4.0,51,0.00,,OVC,0.00,VWS V14.00,2013-01-19 08:03:00,
2013-01-19 03:04:00,43.7,26.8,30.32,South,169,3.6,4.0,51,0.00,,OVC,0.00,VWS V14.00,2013-01-19 08:04:00,
2013-01-19 03:05:00,43.7,26.8,30.32,South,169,0.0,3.6,51,0.00,,OVC,0.00,VWS V14.00,2013-01-19 08:05:00,
2013-01-19 03:06:00,43.7,26.8,30.32,SSE,148,2.7,3.6,51,0.00,,OVC,0.00,VWS V14.00,2013-01-19 08:06:00,
2013-01-19 03:07:00,43.7,26.8,30.32,SSE,149,2.2,3.1,51,0.00,,OVC,0.00,VWS V14.00,2013-01-19 08:07:00,
2013-01-19 03:08:00,43.5,26.6,30.32,SSE,149,0.0,0.0,51,0.00,,OVC,0.00,VWS V14.00,2013-01-19 08:08:00,
2013-01-19 03:09:00,43.5,26.6,30.32,SSE,149,0.0,0.0,51,0.00,,OVC,0.00,VWS V14.00,2013-01-19 08:09:00,
2013-01-19 03:10:00,43.5,26.6,30.32,SSE,149,0.0,0.0,51,0.00,,OVC,0.00,VWS V14.00,2013-01-19 08:10:00,
2013-01-19 03:11:00,43.3,26.4,30.32,SSE,149,0.0,2.2,51,0.00,,OVC,0.00,VWS V14.00,2013-01-19 08:11:00,
2013-01-19 03:12:00,43.3,26.4,30.32,SSE,148,2.2,3.1,51,0.00,,OVC,0.00,VWS V14.00,2013-01-19 08:12:00,
2013-01-19 03:13:00,43.2,26.3,30.32,SSE,148,2.7,2.7,51,0.00,,OVC,0.00,VWS V14.00,2013-01-19 08:13:00,
2013-01-19 03:14:00,43.2,26.3,30.32,SE,145,3.1,3.1,51,0.00,,OVC,0.00,VWS V14.00,2013-01-19 08:14:00,
2013-01-19 03:15:00,43.0,26.1,30.32,ESE,105,4.9,4.9,51,0.00,,OVC,0.00,VWS V14.00,2013-01-19 08:15:00,
2013-01-19 03:16:00,43.0,26.1,30.32,East,89,4.9,4.9,51,0.00,,OVC,0.00,VWS V14.00,2013-01-19 08:16:00,
2013-01-19 03:17:00,42.8,25.9,30.32,ENE,75,3.6,4.9,51,0.00,,OVC,0.00,VWS V14.00,2013-01-19 08:17:00,
2013-01-19 03:18:00,42.8,25.9,30.32,ENE,74,3.1,3.1,51,0.00,,OVC,0.00,VWS V14.00,2013-01-19 08:18:00,
2013-01-19 03:19:00,42.8,25.9,30.32,ENE,74,3.6,3.6,51,0.00,,OVC,0.00,VWS V14.00,2013-01-19 08:19:00,
2013-01-19 03:20:00,42.8,25.9,30.32,ENE,74,2.7,4.0,51,0.00,,OVC,0.00,VWS V14.00,2013-01-19 08:20:00,
2013-01-19 03:21:00,42.6,26.2,30.32,ENE,73,5.4,5.4,52,0.00,,OVC,0.00,VWS V14.00,2013-01-19 08:21:00,
2013-01-19 03:22:00,42.6,26.2,30.32,ENE,66,4.9,5.4,52,0.00,,OVC,0.00,VWS V14.00,2013-01-19 08:22:00,
2013-01-19 03:23:00,42.4,26.1,30.32,ENE,66,4.0,4.0,52,0.00,,OVC,0.00,VWS V14.00,2013-01-19 08:23:00,
2013-01-19 03:24:00,42.4,26.1,30.32,ENE,66,4.0,4.0,52,0.00,,OVC,0.00,VWS V14.00,2013-01-19 08:24:00,
2013-01-19 03:25:00,42.3,25.9,30.32,ENE,75,3.6,4.0,52,0.00,,OVC,0.00,VWS V14.00,2013-01-19 08:25:00,
2013-01-19 03:26:00,42.3,25.9,30.32,ENE,73,5.4,5.4,52,0.00,,OVC,0.00,VWS V14.00,2013-01-19 08:26:00,
2013-01-19 03:27:00,42.3,25.9,30.32,ENE,75,4.0,5.4,52,0.00,,OVC,0.00,VWS V14.00,2013-01-19 08:27:00,
2013-01-19 03:28:00,42.1,25.7,30.32,ENE,72,3.1,3.1,52,0.00,,OVC,0.00,VWS V14.00,2013-01-19 08:28:00,
2013-01-19 03:29:00,42.1,25.7,30.32,ENE,73,3.1,4.0,52,0.00,,OVC,0.00,VWS V14.00,2013-01-19 08:29:00,
2013-01-19 03:30:00,41.9,26.0,30.32,ENE,73,2.7,3.1,53,0.00,,OVC,0.00,VWS V14.00,2013-01-19 08:30:00,
2013-01-19 03:31:00,41.9,26.0,30.32,East,81,3.1,3.6,53,0.00,,OVC,0.00,VWS V14.00,2013-01-19 08:31:00,
2013-01-19 03:32:00,41.9,26.0,30.32,ENE,74,5.8,5.8,53,0.00,,OVC,0.00,VWS V14.00,2013-01-19 08:32:00,
2013-01-19 03:33:00,41.9,26.5,30.32,ESE,107,4.0,4.0,54,0.00,,OVC,0.00,VWS V14.00,2013-01-19 08:33:00,
2013-01-19 03:34:00,41.7,26.3,30.32,ESE,109,3.1,4.0,54,0.00,,OVC,0.00,VWS V14.00,2013-01-19 08:34:00,
2013-01-19 03:35:00,41.7,25.9,30.32,ESE,104,3.1,3.6,53,0.00,,OVC,0.00,VWS V14.00,2013-01-19 08:35:00,
2013-01-19 03:36:00,41.7,26.3,30.32,ENE,70,4.0,5.8,54,0.00,,OVC,0.00,VWS V14.00,2013-01-19 08:36:00,
2013-01-19 03:37:00,41.7,26.3,30.32,ENE,70,4.0,5.4,54,0.00,,OVC,0.00,VWS V14.00,2013-01-19 08:37:00,
2013-01-19 03:38:00,41.7,26.3,30.32,ENE,77,4.9,4.9,54,0.00,,OVC,0.00,VWS V14.00,2013-01-19 08:38:00,
2013-01-19 03:39:00,41.5,26.1,30.32,ESE,102,3.6,4.9,54,0.00,,OVC,0.00,VWS V14.00,2013-01-19 08:39:00,
2013-01-19 03:40:00,41.5,26.1,30.32,East,99,2.7,5.4,54,0.00,,OVC,0.00,VWS V14.00,2013-01-19 08:40:00,
2013-01-19 03:41:00,41.5,26.1,30.32,East,86,5.4,5.4,54,0.00,,OVC,0.00,VWS V14.00,2013-01-19 08:41:00,
2013-01-19 03:42:00,41.5,26.6,30.32,East,86,5.8,6.3,55,0.00,,OVC,0.00,VWS V14.00,2013-01-19 08:42:00,
2013-01-19 03:43:00,41.5,26.6,30.32,SE,131,4.0,4.0,55,0.00,,OVC,0.00,VWS V14.00,2013-01-19 08:43:00,
2013-01-19 03:44:00,41.5,26.6,30.32,East,92,4.9,4.9,55,0.00,,OVC,0.00,VWS V14.00,2013-01-19 08:44:00,
2013-01-19 03:45:00,41.5,26.6,30.32,East,79,4.9,5.8,55,0.00,,OVC,0.00,VWS V14.00,2013-01-19 08:45:00,
2013-01-19 03:46:00,41.5,27.0,30.32,East,84,4.0,5.4,56,0.00,,OVC,0.00,VWS V14.00,2013-01-19 08:46:00,
2013-01-19 03:47:00,41.7,27.2,30.32,East,100,4.0,5.8,56,0.00,,OVC,0.00,VWS V14.00,2013-01-19 08:47:00,
2013-01-19 03:48:00,41.7,27.2,30.32,ESE,118,4.0,4.0,56,0.00,,OVC,0.00,VWS V14.00,2013-01-19 08:48:00,
2013-01-19 03:49:00,41.7,27.2,30.32,ESE,107,5.8,5.8,56,0.00,,OVC,0.00,VWS V14.00,2013-01-19 08:49:00,
2013-01-19 03:50:00,41.9,27.4,30.32,ESE,116,6.3,6.3,56,0.00,,OVC,0.00,VWS V14.00,2013-01-19 08:50:00,
2013-01-19 03:51:00,41.9,27.4,30.32,East,97,4.0,6.3,56,0.00,,OVC,0.00,VWS V14.00,2013-01-19 08:51:00,
2013-01-19 03:52:00,42.1,27.5,30.32,ESE,116,4.9,4.9,56,0.00,,OVC,0.00,VWS V14.00,2013-01-19 08:52:00,
2013-01-19 03:53:00,42.1,27.5,30.32,ESE,115,6.3,6.3,56,0.00,,OVC,0.00,VWS V14.00,2013-01-19 08:53:00,
2013-01-19 03:54:00,42.1,27.1,30.32,ESE,114,5.4,6.3,55,0.00,,OVC,0.00,VWS V14.00,2013-01-19 08:54:00,
2013-01-19 03:55:00,42.1,27.1,30.32,ESE,114,6.3,6.3,55,0.00,,OVC,0.00,VWS V14.00,2013-01-19 08:55:00,
2013-01-19 03:56:00,42.1,27.1,30.32,ESE,123,6.3,6.3,55,0.00,,OVC,0.00,VWS V14.00,2013-01-19 08:56:00,
2013-01-19 03:57:00,42.1,27.1,30.32,SE,138,5.8,6.3,55,0.00,,OVC,0.00,VWS V14.00,2013-01-19 08:57:00,
2013-01-19 03:58:00,42.3,27.3,30.32,SE,142,4.0,4.0,55,0.00,,OVC,0.00,VWS V14.00,2013-01-19 08:58:00,
2013-01-19 03:59:00,42.3,27.3,30.32,SSE,151,5.4,5.8,55,0.00,,OVC,0.00,VWS V14.00,2013-01-19 08:59:00,
2013-01-19 04:00:00,42.3,27.3,30.32,SSE,147,5.4,5.8,55,0.00,,OVC,0.00,VWS V14.00,2013-01-19 09:00:00,
2013-01-19 04:01:00,42.3,27.3,30.32,SE,126,5.8,6.3,55,0.00,,OVC,0.00,VWS V14.00,2013-01-19 09:01:00,
2013-01-19 04:02:00,42.3,27.7,30.32,SE,143,4.9,5.8,56,0.00,,OVC,0.00,VWS V14.00,2013-01-19 09:02:00,
2013-01-19 04:03:00,42.3,27.7,30.32,SSE,163,6.3,6.3,56,0.00,,OVC,0.00,VWS V14.00,2013-01-19 09:03:00,
2013-01-19 04:04:00,42.3,27.7,30.32,SSE,155,5.8,6.3,56,0.00,,OVC,0.00,VWS V14.00,2013-01-19 09:04:00,
2013-01-19 04:05:00,42.3,27.7,30.32,SSE,162,5.4,6.7,56,0.00,,OVC,0.00,VWS V14.00,2013-01-19 09:05:00,
2013-01-19 04:06:00,42.3,27.7,30.32,SSE,156,5.4,5.8,56,0.00,,OVC,0.00,VWS V14.00,2013-01-19 09:06:00,
2013-01-19 04:07:00,42.3,27.7,30.32,SSE,152,4.9,6.3,56,0.00,,OVC,0.00,VWS V14.00,2013-01-19 09:07:00,
2013-01-19 04:08:00,42.3,27.7,30.32,SSE,157,5.4,5.8,56,0.00,,OVC,0.00,VWS V14.00,2013-01-19 09:08:00,
2013-01-19 04:09:00,42.3,27.7,30.32,SE,141,5.8,7.6,56,0.00,,OVC,0.00,VWS V14.00,2013-01-19 09:09:00,
2013-01-19 04:10:00,42.3,27.7,30.32,South,169,6.7,8.1,56,0.00,,OVC,0.00,VWS V14.00,2013-01-19 09:10:00,
2013-01-19 04:11:00,42.3,27.7,30.32,SSE,150,5.4,6.7,56,0.00,,OVC,0.00,VWS V14.00,2013-01-19 09:11:00,
2013-01-19 04:12:00,42.3,27.7,30.32,SE,139,5.4,5.8,56,0.00,,OVC,0.00,VWS V14.00,2013-01-19 09:12:00,
2013-01-19 04:13:00,42.3,27.7,30.32,SE,145,4.9,4.9,56,0.00,,OVC,0.00,VWS V14.00,2013-01-19 09:13:00,
2013-01-19 04:14:00,42.4,28.3,30.32,SSE,160,5.4,5.4,57,0.00,,OVC,0.00,VWS V14.00,2013-01-19 09:14:00,
2013-01-19 04:15:00,42.3,28.1,30.32,SSE,159,5.8,5.8,57,0.00,,OVC,0.00,VWS V14.00,2013-01-19 09:15:00,
2013-01-19 04:16:00,42.3,28.1,30.32,SSE,151,5.4,6.3,57,0.00,,OVC,0.00,VWS V14.00,2013-01-19 09:16:00,
2013-01-19 04:17:00,42.3,28.1,30.32,SSE,150,4.9,8.1,57,0.00,,OVC,0.00,VWS V14.00,2013-01-19 09:17:00,
2013-01-19 04:18:00,42.3,28.1,30.32,South,170,5.8,6.3,57,0.00,,OVC,0.00,VWS V14.00,2013-01-19 09:18:00,
2013-01-19 04:19:00,42.3,28.1,30.32,SSE,155,4.0,6.3,57,0.00,,OVC,0.00,VWS V14.00,2013-01-19 09:19:00,
2013-01-19 04:20:00,42.3,28.1,30.32,SSE,167,6.3,8.3,57,0.00,,OVC,0.00,VWS V14.00,2013-01-19 09:20:00,
2013-01-19 04:21:00,42.3,28.1,30.32,SSE,148,6.3,6.7,57,0.00,,OVC,0.00,VWS V14.00,2013-01-19 09:21:00,
2013-01-19 04:22:00,42.3,28.5,30.32,SSE,150,5.8,7.6,58,0.00,,OVC,0.00,VWS V14.00,2013-01-19 09:22:00,
2013-01-19 04:23:00,42.3,28.5,30.32,SSE,160,5.4,5.4,58,0.00,,OVC,0.00,VWS V14.00,2013-01-19 09:23:00,
2013-01-19 04:24:00,42.3,28.5,30.32,SSE,149,4.0,6.3,58,0.00,,OVC,0.00,VWS V14.00,2013-01-19 09:24:00,
2013-01-19 04:25:00,42.3,28.5,30.32,SSE,163,7.6,7.6,58,0.00,,OVC,0.00,VWS V14.00,2013-01-19 09:25:00,
2013-01-19 04:26:00,42.3,28.5,30.32,SE,139,6.3,7.6,58,0.00,,OVC,0.00,VWS V14.00,2013-01-19 09:26:00,
2013-01-19 04:27:00,42.3,28.5,30.32,SSE,156,5.8,8.1,58,0.00,,OVC,0.00,VWS V14.00,2013-01-19 09:27:00,
2013-01-19 04:28:00,42.3,28.5,30.32,SE,145,4.0,5.4,58,0.00,,OVC,0.00,VWS V14.00,2013-01-19 09:28:00,
2013-01-19 04:29:00,42.3,28.5,30.32,SSE,150,4.5,5.4,58,0.00,,OVC,0.00,VWS V14.00,2013-01-19 09:29:00,
2013-01-19 04:30:00,42.3,28.5,30.32,SSE,160,3.6,6.3,58,0.00,,OVC,0.00,VWS V14.00,2013-01-19 09:30:00,
2013-01-19 04:31:00,42.3,28.5,30.32,SSE,152,5.4,6.3,58,0.00,,OVC,0.00,VWS V14.00,2013-01-19 09:31:00,
2013-01-19 04:32:00,42.3,28.5,30.32,SSE,154,5.4,5.4,58,0.00,,OVC,0.00,VWS V14.00,2013-01-19 09:32:00,
2013-01-19 04:33:00,42.3,28.5,30.29,SSE,159,4.0,4.0,58,0.00,,OVC,0.00,VWS V14.00,2013-01-19 09:33:00,
2013-01-19 04:34:00,42.3,28.5,30.30,SSE,165,4.9,8.7,58,0.00,,OVC,0.00,VWS V14.00,2013-01-19 09:34:00,
2013-01-19 04:35:00,42.3,28.5,30.30,SSE,165,6.3,6.7,58,0.00,,OVC,0.00,VWS V14.00,2013-01-19 09:35:00,
2013-01-19 04:36:00,42.3,29.0,30.30,SE,136,5.8,6.3,59,0.00,,OVC,0.00,VWS V14.00,2013-01-19 09:36:00,
2013-01-19 04:37:00,42.3,29.0,30.30,SSE,164,7.6,7.6,59,0.00,,OVC,0.00,VWS V14.00,2013-01-19 09:37:00,
2013-01-19 04:38:00,42.3,29.0,30.29,SSE,155,5.4,5.4,59,0.00,,OVC,0.00,VWS V14.00,2013-01-19 09:38:00,
2013-01-19 04:39:00,42.3,29.0,30.30,SE,141,5.8,5.8,59,0.00,,OVC,0.00,VWS V14.00,2013-01-19 09:39:00,
2013-01-19 04:40:00,42.3,29.4,30.30,SSE,152,3.1,5.8,60,0.00,,OVC,0.00,VWS V14.00,2013-01-19 09:40:00,
2013-01-19 04:41:00,42.3,29.4,30.30,South,173,4.9,5.4,60,0.00,,OVC,0.00,VWS V14.00,2013-01-19 09:41:00,
2013-01-19 04:42:00,42.3,29.4,30.30,SE,137,4.0,4.9,60,0.00,,OVC,0.00,VWS V14.00,2013-01-19 09:42:00,
2013-01-19 04:43:00,42.3,29.4,30.29,ESE,117,5.8,6.3,60,0.00,,OVC,0.00,VWS V14.00,2013-01-19 09:43:00,
2013-01-19 04:44:00,42.3,29.4,30.30,SE,146,4.0,6.3,60,0.00,,OVC,0.00,VWS V14.00,2013-01-19 09:44:00,
2013-01-19 04:45:00,42.3,29.4,30.30,SE,133,4.0,4.0,60,0.00,,OVC,0.00,VWS V14.00,2013-01-19 09:45:00,
2013-01-19 04:46:00,42.3,29.4,30.30,SE,141,3.1,5.4,60,0.00,,OVC,0.00,VWS V14.00,2013-01-19 09:46:00,
2013-01-19 04:47:00,42.1,29.2,30.30,SE,128,5.8,5.8,60,0.00,,OVC,0.00,VWS V14.00,2013-01-19 09:47:00,
2013-01-19 04:48:00,42.1,29.2,30.29,SE,138,5.8,5.8,60,0.00,,OVC,0.00,VWS V14.00,2013-01-19 09:48:00,
2013-01-19 04:49:00,42.1,29.2,30.30,SE,140,4.0,5.8,60,0.00,,OVC,0.00,VWS V14.00,2013-01-19 09:49:00,
2013-01-19 04:50:00,42.1,29.2,30.30,SE,136,3.1,5.4,60,0.00,,OVC,0.00,VWS V14.00,2013-01-19 09:50:00,
2013-01-19 04:51:00,42.1,29.2,30.30,SE,145,5.4,6.3,60,0.00,,OVC,0.00,VWS V14.00,2013-01-19 09:51:00,
2013-01-19 04:52:00,42.1,29.2,30.30,SE,133,4.0,5.4,60,0.00,,OVC,0.00,VWS V14.00,2013-01-19 09:52:00,
2013-01-19 04:53:00,42.1,29.2,30.29,SE,141,4.9,4.9,60,0.00,,OVC,0.00,VWS V14.00,2013-01-19 09:53:00,
2013-01-19 04:54:00,42.1,29.2,30.30,SSE,150,6.3,6.3,60,0.00,,OVC,0.00,VWS V14.00,2013-01-19 09:54:00,
2013-01-19 04:55:00,42.1,29.2,30.30,SE,125,5.4,6.3,60,0.00,,OVC,0.00,VWS V14.00,2013-01-19 09:55:00,
2013-01-19 04:56:00,42.1,29.2,30.30,South,172,5.4,7.6,60,0.00,,OVC,0.00,VWS V14.00,2013-01-19 09:56:00,
2013-01-19 04:57:00,42.1,29.2,30.30,SSE,160,6.3,6.3,60,0.00,,OVC,0.00,VWS V14.00,2013-01-19 09:57:00,
2013-01-19 04:58:00,42.1,29.2,30.29,SSE,150,5.8,5.8,60,0.00,,OVC,0.00,VWS V14.00,2013-01-19 09:58:00,
2013-01-19 04:59:00,42.1,29.2,30.30,SE,146,5.4,5.8,60,0.00,,OVC,0.00,VWS V14.00,2013-01-19 09:59:00,
2013-01-19 05:00:00,42.1,29.2,30.30,SE,143,4.5,5.4,60,0.00,,OVC,0.00,VWS V14.00,2013-01-19 10:00:00,
2013-01-19 05:01:00,42.1,29.2,30.30,SSE,148,3.6,5.4,60,0.00,,OVC,0.00,VWS V14.00,2013-01-19 10:01:00,
2013-01-19 05:02:00,42.1,29.2,30.30,SSE,147,4.0,4.0,60,0.00,,OVC,0.00,VWS V14.00,2013-01-19 10:02:00,
2013-01-19 05:03:00,42.1,29.2,30.29,SSE,167,3.6,3.6,60,0.00,,OVC,0.00,VWS V14.00,2013-01-19 10:03:00,
2013-01-19 05:04:00,42.1,29.2,30.30,SSE,160,4.0,4.0,60,0.00,,OVC,0.00,VWS V14.00,2013-01-19 10:04:00,
2013-01-19 05:05:00,42.1,29.2,30.30,SSE,166,3.1,6.3,60,0.00,,OVC,0.00,VWS V14.00,2013-01-19 10:05:00,
2013-01-19 05:06:00,42.1,29.2,30.30,SSE,162,4.0,4.9,60,0.00,,OVC,0.00,VWS V14.00,2013-01-19 10:06:00,
2013-01-19 05:07:00,42.1,29.2,30.30,SSE,156,4.0,6.3,60,0.00,,OVC,0.00,VWS V14.00,2013-01-19 10:07:00,
2013-01-19 05:08:00,42.1,29.2,30.29,SSE,154,3.1,4.0,60,0.00,,OVC,0.00,VWS V14.00,2013-01-19 10:08:00,
2013-01-19 05:09:00,42.1,29.2,30.30,SSE,158,4.0,4.0,60,0.00,,OVC,0.00,VWS V14.00,2013-01-19 10:09:00,
2013-01-19 05:10:00,42.1,29.2,30.30,SSE,156,2.7,4.0,60,0.00,,OVC,0.00,VWS V14.00,2013-01-19 10:10:00,
2013-01-19 05:11:00,42.1,29.2,30.30,SSE,156,3.6,3.6,60,0.00,,OVC,0.00,VWS V14.00,2013-01-19 10:11:00,
2013-01-19 05:12:00,42.1,29.2,30.30,SSE,156,2.7,3.6,60,0.00,,OVC,0.00,VWS V14.00,2013-01-19 10:12:00,
2013-01-19 05:13:00,42.1,29.6,30.29,SSW,195,4.0,4.0,61,0.00,,OVC,0.00,VWS V14.00,2013-01-19 10:13:00,
2013-01-19 05:14:00,42.1,29.6,30.30,SSW,203,2.2,4.0,61,0.00,,OVC,0.00,VWS V14.00,2013-01-19 10:14:00,
2013-01-19 05:15:00,42.1,29.6,30.30,SSW,203,0.0,2.2,61,0.00,,OVC,0.00,VWS V14.00,2013-01-19 10:15:00,
2013-01-19 05:16:00,41.9,29.5,30.30,SSW,206,3.6,3.6,61,0.00,,OVC,0.00,VWS V14.00,2013-01-19 10:16:00,
2013-01-19 05:17:00,41.7,29.3,30.30,SSW,201,2.2,4.0,61,0.00,,OVC,0.00,VWS V14.00,2013-01-19 10:17:00,
2013-01-19 05:18:00,41.7,29.3,30.29,SSW,201,0.0,0.0,61,0.00,,OVC,0.00,VWS V14.00,2013-01-19 10:18:00,
2013-01-19 05:19:00,41.5,29.1,30.30,SSW,201,0.0,0.0,61,0.00,,OVC,0.00,VWS V14.00,2013-01-19 10:19:00,
2013-01-19 05:20:00,41.5,29.1,30.30,SSW,201,0.0,0.0,61,0.00,,OVC,0.00,VWS V14.00,2013-01-19 10:20:00,
2013-01-19 05:21:00,41.5,29.1,30.30,SSW,201,3.6,3.6,61,0.00,,OVC,0.00,VWS V14.00,2013-01-19 10:21:00,
2013-01-19 05:22:00,41.4,28.9,30.30,SSW,201,2.2,3.6,61,0.00,,OVC,0.00,VWS V14.00,2013-01-19 10:22:00,
2013-01-19 05:23:00,41.4,28.9,30.29,SSW,200,3.6,3.6,61,0.00,,OVC,0.00,VWS V14.00,2013-01-19 10:23:00,
2013-01-19 05:24:00,41.2,28.8,30.30,SSW,199,2.7,3.6,61,0.00,,OVC,0.00,VWS V14.00,2013-01-19 10:24:00,
2013-01-19 05:25:00,41.2,28.8,30.30,SSW,199,2.2,3.1,61,0.00,,OVC,0.00,VWS V14.00,2013-01-19 10:25:00,
2013-01-19 05:26:00,41.2,28.8,30.30,SSW,198,3.1,3.1,61,0.00,,OVC,0.00,VWS V14.00,2013-01-19 10:26:00,
2013-01-19 05:27:00,41.2,28.8,30.30,SSW,198,2.2,3.1,61,0.00,,OVC,0.00,VWS V14.00,2013-01-19 10:27:00,
2013-01-19 05:28:00,41.2,28.8,30.29,SSW,198,2.7,2.7,61,0.00,,OVC,0.00,VWS V14.00,2013-01-19 10:28:00,
2013-01-19 05:29:00,41.0,28.6,30.30,NE,52,3.6,3.6,61,0.00,,OVC,0.00,VWS V14.00,2013-01-19 10:29:00,
2013-01-19 05:30:00,41.0,28.6,30.30,NE,51,0.0,3.6,61,0.00,,OVC,0.00,VWS V14.00,2013-01-19 10:30:00,
2013-01-19 05:31:00,41.0,28.6,30.30,NE,51,2.7,2.7,61,0.00,,OVC,0.00,VWS V14.00,2013-01-19 10:31:00,
2013-01-19 05:32:00,41.0,28.6,30.30,ENE,68,2.7,2.7,61,0.00,,OVC,0.00,VWS V14.00,2013-01-19 10:32:00,
2013-01-19 05:33:00,41.0,28.6,30.29,ENE,69,2.7,2.7,61,0.00,,OVC,0.00,VWS V14.00,2013-01-19 10:33:00,
2013-01-19 05:34:00,40.8,28.4,30.30,ENE,69,2.7,3.1,61,0.00,,OVC,0.00,VWS V14.00,2013-01-19 10:34:00,
2013-01-19 05:35:00,40.8,28.4,30.30,ENE,69,2.2,2.7,61,0.00,,OVC,0.00,VWS V14.00,2013-01-19 10:35:00,
2013-01-19 05:36:00,40.6,28.3,30.30,ENE,69,0.0,2.2,61,0.00,,OVC,0.00,VWS V14.00,2013-01-19 10:36:00,
2013-01-19 05:37:00,40.6,28.3,30.30,East,97,2.7,2.7,61,0.00,,OVC,0.00,VWS V14.00,2013-01-19 10:37:00,
2013-01-19 05:38:00,40.6,28.3,30.29,East,97,0.0,0.0,61,0.00,,OVC,0.00,VWS V14.00,2013-01-19 10:38:00,
2013-01-19 05:39:00,40.6,28.3,30.30,East,97,0.0,0.0,61,0.00,,OVC,0.00,VWS V14.00,2013-01-19 10:39:00,
2013-01-19 05:40:00,40.5,28.1,30.30,East,97,2.7,2.7,61,0.00,,OVC,0.00,VWS V14.00,2013-01-19 10:40:00,
2013-01-19 05:41:00,40.5,28.1,30.30,East,97,2.7,2.7,61,0.00,,OVC,0.00,VWS V14.00,2013-01-19 10:41:00,
2013-01-19 05:42:00,40.5,28.1,30.30,SE,136,3.6,3.6,61,0.00,,OVC,0.00,VWS V14.00,2013-01-19 10:42:00,
2013-01-19 05:43:00,40.3,27.9,30.29,SE,127,2.2,3.6,61,0.00,,OVC,0.00,VWS V14.00,2013-01-19 10:43:00,
2013-01-19 05:44:00,40.3,27.9,30.30,SE,127,0.0,3.6,61,0.00,,OVC,0.00,VWS V14.00,2013-01-19 10:44:00,
2013-01-19 05:45:00,40.3,27.9,30.30,SE,127,0.0,0.0,61,0.00,,OVC,0.00,VWS V14.00,2013-01-19 10:45:00,
2013-01-19 05:46:00,40.1,27.8,30.30,SE,125,2.2,2.2,61,0.00,,OVC,0.00,VWS V14.00,2013-01-19 10:46:00,
2013-01-19 05:47:00,40.1,27.8,30.30,SE,124,2.2,2.2,61,0.00,,OVC,0.00,VWS V14.00,2013-01-19 10:47:00,
2013-01-19 05:48:00,40.1,28.1,30.29,SE,124,0.0,0.0,62,0.00,,OVC,0.00,VWS V14.00,2013-01-19 10:48:00,
2013-01-19 05:49:00,40.1,28.1,30.30,SW,232,3.6,3.6,62,0.00,,OVC,0.00,VWS V14.00,2013-01-19 10:49:00,
2013-01-19 05:50:00,39.9,28.0,30.30,South,171,2.2,3.6,62,0.00,,OVC,0.00,VWS V14.00,2013-01-19 10:50:00,
2013-01-19 05:51:00,39.9,28.0,30.30,South,171,0.0,2.2,62,0.00,,OVC,0.00,VWS V14.00,2013-01-19 10:51:00,
2013-01-19 05:52:00,39.9,28.0,30.30,South,171,0.0,0.0,62,0.00,,OVC,0.00,VWS V14.00,2013-01-19 10:52:00,
2013-01-19 05:53:00,39.9,28.0,30.29,South,171,0.0,0.0,62,0.00,,OVC,0.00,VWS V14.00,2013-01-19 10:53:00,
2013-01-19 05:54:00,39.7,27.8,30.30,South,171,0.0,0.0,62,0.00,,OVC,0.00,VWS V14.00,2013-01-19 10:54:00,
2013-01-19 05:55:00,39.7,27.8,30.30,South,171,2.2,2.2,62,0.00,,OVC,0.00,VWS V14.00,2013-01-19 10:55:00,
2013-01-19 05:56:00,39.7,27.8,30.30,South,171,0.0,2.2,62,0.00,,OVC,0.00,VWS V14.00,2013-01-19 10:56:00,
2013-01-19 05:57:00,39.7,27.8,30.30,South,171,0.0,0.0,62,0.00,,OVC,0.00,VWS V14.00,2013-01-19 10:57:00,
2013-01-19 05:58:00,39.7,27.8,30.29,SSE,164,2.2,2.2,62,0.00,,OVC,0.00,VWS V14.00,2013-01-19 10:58:00,
2013-01-19 05:59:00,39.6,27.6,30.30,SSE,164,2.2,2.7,62,0.00,,OVC,0.00,VWS V14.00,2013-01-19 10:59:00,
2013-01-19 06:00:00,39.6,27.6,30.30,SSE,164,0.0,2.2,62,0.00,,OVC,0.00,VWS V14.00,2013-01-19 11:00:00,
2013-01-19 06:01:00,39.6,27.6,30.30,SSE,164,2.7,2.7,62,0.00,,OVC,0.00,VWS V14.00,2013-01-19 11:01:00,
2013-01-19 06:02:00,39.6,27.6,30.30,SSE,163,2.7,3.1,62,0.00,,OVC,0.00,VWS V14.00,2013-01-19 11:02:00,
2013-01-19 06:03:00,39.6,27.6,30.29,East,87,3.6,3.6,62,0.00,,OVC,0.00,VWS V14.00,2013-01-19 11:03:00,
2013-01-19 06:04:00,39.4,27.5,30.30,East,79,3.6,3.6,62,0.00,,OVC,0.00,VWS V14.00,2013-01-19 11:04:00,
2013-01-19 06:05:00,39.4,27.5,30.30,ENE,78,2.7,3.6,62,0.00,,OVC,0.00,VWS V14.00,2013-01-19 11:05:00,
2013-01-19 06:06:00,39.4,27.9,30.30,ENE,78,3.1,3.1,63,0.00,,OVC,0.00,VWS V14.00,2013-01-19 11:06:00,
2013-01-19 06:07:00,39.4,27.9,30.30,ENE,78,2.7,3.1,63,0.00,,OVC,0.00,VWS V14.00,2013-01-19 11:07:00,
2013-01-19 06:08:00,39.4,27.9,30.29,ENE,78,0.0,0.0,63,0.00,,OVC,0.00,VWS V14.00,2013-01-19 11:08:00,
2013-01-19 06:09:00,39.4,27.9,30.30,ENE,78,2.7,3.1,63,0.00,,OVC,0.00,VWS V14.00,2013-01-19 11:09:00,
2013-01-19 06:10:00,39.4,27.9,30.30,ENE,78,2.2,2.7,63,0.00,,OVC,0.00,VWS V14.00,2013-01-19 11:10:00,
2013-01-19 06:11:00,39.4,27.9,30.30,ENE,78,0.0,2.2,63,0.00,,OVC,0.00,VWS V14.00,2013-01-19 11:11:00,
2013-01-19 06:12:00,39.4,27.9,30.30,ENE,78,0.0,2.2,63,0.00,,OVC,0.00,VWS V14.00,2013-01-19 11:12:00,
2013-01-19 06:13:00,39.4,27.9,30.29,ENE,78,0.0,0.0,63,0.00,,OVC,0.00,VWS V14.00,2013-01-19 11:13:00,
2013-01-19 06:14:00,39.4,27.9,30.30,ENE,78,0.0,0.0,63,0.00,,OVC,0.00,VWS V14.00,2013-01-19 11:14:00,
2013-01-19 06:15:00,39.4,27.9,30.30,ENE,78,0.0,2.2,63,0.00,,OVC,0.00,VWS V14.00,2013-01-19 11:15:00,
2013-01-19 06:16:00,39.4,27.9,30.30,ENE,78,0.0,0.0,63,0.00,,OVC,0.00,VWS V14.00,2013-01-19 11:16:00,
2013-01-19 06:17:00,39.6,28.0,30.30,ENE,78,0.0,0.0,63,0.00,,OVC,0.00,VWS V14.00,2013-01-19 11:17:00,
2013-01-19 06:18:00,39.6,28.0,30.30,East,83,2.7,2.7,63,0.00,,OVC,0.00,VWS V14.00,2013-01-19 11:18:00,
2013-01-19 06:19:00,39.6,28.0,30.30,SSE,157,3.1,3.1,63,0.00,,OVC,0.00,VWS V14.00,2013-01-19 11:19:00,
2013-01-19 06:20:00,39.6,28.4,30.30,SSE,153,2.7,3.6,64,0.00,,OVC,0.00,VWS V14.00,2013-01-19 11:20:00,
2013-01-19 06:21:00,39.6,28.4,30.30,SSE,165,4.0,4.0,64,0.00,,OVC,0.00,VWS V14.00,2013-01-19 11:21:00,
2013-01-19 06:22:00,39.6,28.4,30.30,SSW,197,3.6,4.0,64,0.00,,OVC,0.00,VWS V14.00,2013-01-19 11:22:00,
2013-01-19 06:23:00,39.6,28.4,30.30,SSE,166,4.0,4.9,64,0.00,,OVC,0.00,VWS V14.00,2013-01-19 11:23:00,
2013-01-19 06:24:00,39.6,28.4,30.30,South,186,4.0,4.0,64,0.00,,OVC,0.00,VWS V14.00,2013-01-19 11:24:00,
2013-01-19 06:25:00,39.6,28.4,30.30,South,187,2.7,4.0,64,0.00,,OVC,0.00,VWS V14.00,2013-01-19 11:25:00,
2013-01-19 06:26:00,39.6,28.4,30.30,South,181,4.0,4.0,64,0.00,,OVC,0.00,VWS V14.00,2013-01-19 11:26:00,
2013-01-19 06:27:00,39.6,28.4,30.30,South,189,3.6,4.0,64,0.00,,OVC,0.00,VWS V14.00,2013-01-19 11:27:00,
2013-01-19 06:28:00,39.6,28.4,30.30,SSW,198,4.0,5.4,64,0.00,,OVC,0.00,VWS V14.00,2013-01-19 11:28:00,
2013-01-19 06:29:00,39.6,28.4,30.30,South,170,4.0,4.0,64,0.00,,OVC,0.00,VWS V14.00,2013-01-19 11:29:00,
2013-01-19 06:30:00,39.6,28.4,30.30,SSE,162,4.0,5.4,64,0.00,,OVC,0.00,VWS V14.00,2013-01-19 11:30:00,
2013-01-19 06:31:00,39.7,28.6,30.30,South,189,4.9,5.4,64,0.00,,OVC,0.00,VWS V14.00,2013-01-19 11:31:00,
2013-01-19 06:32:00,39.9,29.1,30.30,South,178,3.6,4.9,65,0.00,,OVC,0.00,VWS V14.00,2013-01-19 11:32:00,
2013-01-19 06:33:00,39.9,29.1,30.30,South,183,6.3,6.3,65,0.00,,OVC,0.00,VWS V14.00,2013-01-19 11:33:00,
2013-01-19 06:34:00,40.1,29.3,30.30,SSW,196,6.3,6.3,65,0.00,,OVC,0.00,VWS V14.00,2013-01-19 11:34:00,
2013-01-19 06:35:00,40.3,29.5,30.30,South,182,5.8,6.3,65,0.00,,OVC,0.00,VWS V14.00,2013-01-19 11:35:00,
2013-01-19 06:36:00,40.5,29.6,30.30,SSW,195,4.9,5.8,65,0.00,,OVC,0.00,VWS V14.00,2013-01-19 11:36:00,
2013-01-19 06:37:00,40.5,29.6,30.30,South,183,5.8,5.8,65,0.00,,OVC,0.00,VWS V14.00,2013-01-19 11:37:00,
2013-01-19 06:38:00,40.6,30.2,30.30,SSW,202,7.6,7.6,66,0.00,,OVC,0.00,VWS V14.00,2013-01-19 11:38:00,
2013-01-19 06:39:00,40.8,30.4,30.30,SSW,203,5.4,7.6,66,0.00,,OVC,0.00,VWS V14.00,2013-01-19 11:39:00,
2013-01-19 06:40:00,40.8,30.4,30.30,South,191,5.4,5.8,66,0.00,,OVC,0.00,VWS V14.00,2013-01-19 11:40:00,
2013-01-19 06:41:00,41.0,30.1,30.30,South,185,6.3,6.3,65,0.00,,OVC,0.00,VWS V14.00,2013-01-19 11:41:00,
2013-01-19 06:42:00,41.0,30.1,30.30,SSW,192,6.3,6.3,65,0.00,,OVC,0.00,VWS V14.00,2013-01-19 11:42:00,
2013-01-19 06:43:00,41.2,30.3,30.30,South,180,5.4,6.3,65,0.00,,OVC,0.00,VWS V14.00,2013-01-19 11:43:00,
2013-01-19 06:44:00,41.2,30.3,30.30,SSW,195,6.7,6.7,65,0.00,,OVC,0.00,VWS V14.00,2013-01-19 11:44:00,
2013-01-19 06:45:00,41.4,30.5,30.30,SSW,198,4.9,6.7,65,0.00,,OVC,0.00,VWS V14.00,2013-01-19 11:45:00,
2013-01-19 06:46:00,41.4,30.9,30.30,South,189,4.0,4.9,66,0.00,,OVC,0.00,VWS V14.00,2013-01-19 11:46:00,
2013-01-19 06:47:00,41.5,31.0,30.30,South,187,4.0,4.9,66,0.00,,OVC,0.00,VWS V14.00,2013-01-19 11:47:00,
2013-01-19 06:48:00,41.5,31.0,30.30,South,190,3.6,4.0,66,0.00,,OVC,0.00,VWS V14.00,2013-01-19 11:48:00,
2013-01-19 06:49:00,41.5,31.0,30.30,SSW,193,3.1,4.0,66,0.00,,OVC,0.00,VWS V14.00,2013-01-19 11:49:00,
2013-01-19 06:50:00,41.5,31.0,30.30,South,191,3.1,3.6,66,0.00,,OVC,0.00,VWS V14.00,2013-01-19 11:50:00,
2013-01-19 06:51:00,41.5,31.0,30.30,South,191,2.7,3.1,66,0.00,,OVC,0.00,VWS V14.00,2013-01-19 11:51:00,
2013-01-19 06:52:00,41.5,31.0,30.30,SSW,194,2.7,3.1,66,0.00,,OVC,0.00,VWS V14.00,2013-01-19 11:52:00,
2013-01-19 06:53:00,41.5,31.0,30.30,SSW,198,3.6,3.6,66,0.00,,OVC,0.00,VWS V14.00,2013-01-19 11:53:00,
2013-01-19 06:54:00,41.5,31.0,30.30,South,184,4.9,4.9,66,0.00,,OVC,0.00,VWS V14.00,2013-01-19 11:54:00,
2013-01-19 06:55:00,41.5,31.0,30.30,South,178,5.8,6.3,66,0.00,,OVC,0.00,VWS V14.00,2013-01-19 11:55:00,
2013-01-19 06:56:00,41.5,31.0,30.30,South,180,5.8,6.3,66,0.00,,OVC,0.00,VWS V14.00,2013-01-19 11:56:00,
2013-01-19 06:57:00,41.5,31.0,30.30,South,184,6.3,6.3,66,0.00,,OVC,0.00,VWS V14.00,2013-01-19 11:57:00,
2013-01-19 06:58:00,41.5,31.0,30.30,South,181,5.8,6.3,66,0.00,,OVC,0.00,VWS V14.00,2013-01-19 11:58:00,
2013-01-19 06:59:00,41.5,31.0,30.30,South,178,8.1,8.1,66,0.00,,OVC,0.00,VWS V14.00,2013-01-19 11:59:00,
2013-01-19 07:00:00,41.5,31.0,30.30,South,176,5.4,8.1,66,0.00,,OVC,0.00,VWS V14.00,2013-01-19 12:00:00,
2013-01-19 07:01:00,41.7,31.2,30.30,South,170,5.4,7.6,66,0.00,,OVC,0.00,VWS V14.00,2013-01-19 12:01:00,
2013-01-19 07:02:00,41.7,31.2,30.30,South,184,5.4,8.1,66,0.00,,OVC,0.00,VWS V14.00,2013-01-19 12:02:00,
2013-01-19 07:03:00,41.7,31.2,30.26,South,189,4.9,6.3,66,0.00,,OVC,0.00,VWS V14.00,2013-01-19 12:03:00,
2013-01-19 07:04:00,41.7,31.2,30.26,South,186,4.0,5.4,66,0.00,,OVC,0.00,VWS V14.00,2013-01-19 12:04:00,
2013-01-19 07:05:00,41.7,31.2,30.26,South,189,4.0,4.9,66,0.00,,OVC,0.00,VWS V14.00,2013-01-19 12:05:00,
2013-01-19 07:06:00,41.7,31.2,30.26,South,180,4.0,4.9,66,0.00,,OVC,0.00,VWS V14.00,2013-01-19 12:06:00,
2013-01-19 07:07:00,41.7,31.2,30.26,SSW,192,3.6,4.9,66,0.00,,OVC,0.00,VWS V14.00,2013-01-19 12:07:00,
2013-01-19 07:08:00,41.9,31.4,30.26,SSW,197,3.6,4.0,66,0.00,,OVC,0.00,VWS V14.00,2013-01-19 12:08:00,
2013-01-19 07:09:00,41.9,31.4,30.26,SSW,193,3.1,4.0,66,0.00,,OVC,0.00,VWS V14.00,2013-01-19 12:09:00,
2013-01-19 07:10:00,41.9,31.4,30.26,SSW,193,2.2,3.1,66,0.00,,OVC,0.00,VWS V14.00,2013-01-19 12:10:00,
2013-01-19 07:11:00,41.9,31.4,30.26,SSW,193,0.0,2.2,66,0.00,,OVC,0.00,VWS V14.00,2013-01-19 12:11:00,
2013-01-19 07:12:00,41.7,31.2,30.26,SSW,193,0.0,2.7,66,0.00,,OVC,0.00,VWS V14.00,2013-01-19 12:12:00,
2013-01-19 07:13:00,41.7,31.2,30.26,SSW,193,2.7,2.7,66,0.00,,OVC,0.00,VWS V14.00,2013-01-19 12:13:00,
2013-01-19 07:14:00,41.7,31.2,30.26,SSW,193,2.7,2.7,66,0.00,,OVC,0.00,VWS V14.00,2013-01-19 12:14:00,
2013-01-19 07:15:00,41.5,31.0,30.26,SSW,193,2.2,3.1,66,0.00,,OVC,0.00,VWS V14.00,2013-01-19 12:15:00,
2013-01-19 07:16:00,41.5,31.0,30.26,SSW,193,0.0,2.2,66,0.00,,OVC,0.00,VWS V14.00,2013-01-19 12:16:00,
2013-01-19 07:17:00,41.5,31.0,30.26,SSW,193,2.2,2.2,66,0.00,,OVC,0.00,VWS V14.00,2013-01-19 12:17:00,
2013-01-19 07:18:00,41.5,31.0,30.30,SSW,193,0.0,2.2,66,0.00,,OVC,0.00,VWS V14.00,2013-01-19 12:18:00,
2013-01-19 07:19:00,41.4,30.9,30.30,SSW,193,0.0,2.2,66,0.00,,OVC,0.00,VWS V14.00,2013-01-19 12:19:00,
2013-01-19 07:20:00,41.4,30.9,30.30,SSW,193,0.0,0.0,66,0.00,,OVC,0.00,VWS V14.00,2013-01-19 12:20:00,
2013-01-19 07:21:00,41.2,30.7,30.30,SSW,193,0.0,0.0,66,0.00,,OVC,0.00,VWS V14.00,2013-01-19 12:21:00,
2013-01-19 07:22:00,41.2,30.7,30.30,SSW,193,0.0,0.0,66,0.00,,OVC,0.00,VWS V14.00,2013-01-19 12:22:00,
2013-01-19 07:23:00,41.0,30.5,30.30,SSW,193,0.0,0.0,66,0.00,,OVC,0.00,VWS V14.00,2013-01-19 12:23:00,
2013-01-19 07:24:00,41.0,30.9,30.30,SSW,193,0.0,0.0,67,0.00,,OVC,0.00,VWS V14.00,2013-01-19 12:24:00,
2013-01-19 07:25:00,41.0,30.9,30.30,SSW,193,0.0,0.0,67,0.00,,OVC,0.00,VWS V14.00,2013-01-19 12:25:00,
2013-01-19 07:26:00,40.8,30.7,30.30,SSW,193,0.0,0.0,67,0.00,,OVC,0.00,VWS V14.00,2013-01-19 12:26:00,
2013-01-19 07:27:00,40.8,30.7,30.30,SSW,193,0.0,0.0,67,0.00,,OVC,0.00,VWS V14.00,2013-01-19 12:27:00,
2013-01-19 07:28:00,40.8,30.7,30.30,SSW,193,0.0,0.0,67,0.00,,OVC,0.00,VWS V14.00,2013-01-19 12:28:00,
2013-01-19 07:29:00,40.8,30.7,30.30,SSW,193,0.0,0.0,67,0.00,,OVC,0.00,VWS V14.00,2013-01-19 12:29:00,
2013-01-19 07:30:00,40.8,30.7,30.30,SSW,193,0.0,0.0,67,0.00,,OVC,0.00,VWS V14.00,2013-01-19 12:30:00,
2013-01-19 07:31:00,40.8,30.7,30.30,SSW,193,2.2,2.7,67,0.00,,OVC,0.00,VWS V14.00,2013-01-19 12:31:00,
2013-01-19 07:32:00,40.6,30.5,30.30,SSW,193,2.2,2.7,67,0.00,,OVC,0.00,VWS V14.00,2013-01-19 12:32:00,
2013-01-19 07:33:00,40.6,30.9,30.30,SSW,193,2.7,2.7,68,0.00,,OVC,0.00,VWS V14.00,2013-01-19 12:33:00,
2013-01-19 07:34:00,40.8,31.1,30.30,SSW,193,3.1,3.1,68,0.00,,OVC,0.00,VWS V14.00,2013-01-19 12:34:00,
2013-01-19 07:35:00,40.8,31.1,30.30,SSW,193,2.7,3.1,68,0.00,,OVC,0.00,VWS V14.00,2013-01-19 12:35:00,
2013-01-19 07:36:00,40.8,31.1,30.30,SSW,193,2.2,2.7,68,0.00,,OVC,0.00,VWS V14.00,2013-01-19 12:36:00,
2013-01-19 07:37:00,40.8,31.1,30.30,SSW,193,2.7,3.1,68,0.00,,OVC,0.00,VWS V14.00,2013-01-19 12:37:00,
2013-01-19 07:38:00,40.8,31.1,30.30,SSW,192,3.1,4.9,68,0.00,,OVC,0.00,VWS V14.00,2013-01-19 12:38:00,
2013-01-19 07:39:00,40.8,31.1,30.30,South,190,3.6,3.6,68,0.00,,OVC,0.00,VWS V14.00,2013-01-19 12:39:00,
2013-01-19 07:40:00,41.0,31.3,30.30,South,186,4.0,4.0,68,0.00,,OVC,0.00,VWS V14.00,2013-01-19 12:40:00,
2013-01-19 07:41:00,41.0,31.3,30.30,SSW,192,4.0,4.0,68,0.00,,OVC,0.00,VWS V14.00,2013-01-19 12:41:00,
2013-01-19 07:42:00,41.0,31.3,30.30,SSW,204,3.6,4.0,68,0.00,,OVC,0.00,VWS V14.00,2013-01-19 12:42:00,
2013-01-19 07:43:00,41.0,31.3,30.30,South,189,4.0,4.0,68,0.00,,OVC,0.00,VWS V14.00,2013-01-19 12:43:00,
2013-01-19 07:44:00,41.0,31.3,30.30,SSW,204,3.6,4.0,68,0.00,,OVC,0.00,VWS V14.00,2013-01-19 12:44:00,
2013-01-19 07:45:00,41.0,31.3,30.30,SSW,202,4.0,4.9,68,0.00,,OVC,0.00,VWS V14.00,2013-01-19 12:45:00,
2013-01-19 07:46:00,41.0,31.3,30.30,SSW,200,3.1,4.0,68,0.00,,OVC,0.00,VWS V14.00,2013-01-19 12:46:00,
2013-01-19 07:47:00,41.0,31.3,30.29,SSW,213,3.6,4.0,68,0.00,,OVC,0.00,VWS V14.00,2013-01-19 12:47:00,
2013-01-19 07:48:00,41.0,31.3,30.29,SSW,212,4.9,4.9,68,0.00,,OVC,0.00,VWS V14.00,2013-01-19 12:48:00,
2013-01-19 07:49:00,41.0,31.3,30.29,SSW,206,4.0,4.9,68,0.00,,OVC,0.00,VWS V14.00,2013-01-19 12:49:00,
2013-01-19 07:50:00,41.2,31.4,30.30,SSW,208,4.9,4.9,68,0.00,,OVC,0.00,VWS V14.00,2013-01-19 12:50:00,
2013-01-19 07:51:00,41.2,31.4,30.30,SSW,211,3.1,4.9,68,0.00,,OVC,0.00,VWS V14.00,2013-01-19 12:51:00,
2013-01-19 07:52:00,41.2,31.4,30.29,SSW,210,5.4,6.3,68,0.00,,OVC,0.00,VWS V14.00,2013-01-19 12:52:00,
2013-01-19 07:53:00,41.4,32.0,30.29,SSW,210,4.0,5.4,69,0.00,,OVC,0.00,VWS V14.00,2013-01-19 12:53:00,
2013-01-19 07:54:00,41.4,32.0,30.30,SSW,206,5.8,5.8,69,0.00,,OVC,0.00,VWS V14.00,2013-01-19 12:54:00,
2013-01-19 07:55:00,41.5,32.1,30.30,SSW,200,4.9,5.8,69,0.00,,OVC,0.00,VWS V14.00,2013-01-19 12:55:00,
2013-01-19 07:56:00,41.5,32.1,30.30,South,191,4.9,5.4,69,0.00,,OVC,0.00,VWS V14.00,2013-01-19 12:56:00,
2013-01-19 07:57:00,41.5,32.1,30.30,SSW,208,5.4,5.4,69,0.00,,OVC,0.00,VWS V14.00,2013-01-19 12:57:00,
2013-01-19 07:58:00,41.7,32.3,30.29,SSW,194,3.6,5.4,69,0.00,,OVC,0.00,VWS V14.00,2013-01-19 12:58:00,
2013-01-19 07:59:00,41.7,32.3,30.30,South,187,4.5,4.9,69,0.00,,OVC,0.00,VWS V14.00,2013-01-19 12:59:00,
2013-01-19 08:00:00,41.7,32.3,30.30,SSW,196,3.1,4.9,69,0.00,,OVC,0.00,VWS V14.00,2013-01-19 13:00:00,
2013-01-19 08:01:00,41.9,32.5,30.30,SSW,192,4.0,4.0,69,0.00,,OVC,0.00,VWS V14.00,2013-01-19 13:01:00,
2013-01-19 08:02:00,41.9,32.5,30.30,SSW,193,5.4,5.4,69,0.00,,OVC,0.00,VWS V14.00,2013-01-19 13:02:00,
2013-01-19 08:03:00,41.9,32.5,30.29,South,191,5.4,6.3,69,0.00,,OVC,0.00,VWS V14.00,2013-01-19 13:03:00,
2013-01-19 08:04:00,42.1,32.7,30.30,South,189,5.4,5.4,69,0.00,,OVC,0.00,VWS V14.00,2013-01-19 13:04:00,
2013-01-19 08:05:00,42.1,32.7,30.30,SSW,197,5.4,5.8,69,0.00,,OVC,0.00,VWS V14.00,2013-01-19 13:05:00,
2013-01-19 08:06:00,42.1,32.7,30.30,South,190,5.4,5.4,69,0.00,,OVC,0.00,VWS V14.00,2013-01-19 13:06:00,
2013-01-19 08:07:00,42.1,32.7,30.30,SSW,194,5.8,6.3,69,0.00,,OVC,0.00,VWS V14.00,2013-01-19 13:07:00,
2013-01-19 08:08:00,42.3,32.8,30.29,South,170,5.4,5.8,69,0.00,,OVC,0.00,VWS V14.00,2013-01-19 13:08:00,
2013-01-19 08:09:00,42.3,32.8,30.30,South,188,5.4,5.8,69,0.00,,OVC,0.00,VWS V14.00,2013-01-19 13:09:00,
2013-01-19 08:10:00,42.3,32.8,30.30,South,181,5.4,5.8,69,0.00,,OVC,0.00,VWS V14.00,2013-01-19 13:10:00,
2013-01-19 08:11:00,42.3,33.2,30.30,South,181,5.8,5.8,70,0.00,,OVC,0.00,VWS V14.00,2013-01-19 13:11:00,
2013-01-19 08:12:00,42.4,33.4,30.30,South,183,5.4,6.3,70,0.00,,OVC,0.00,VWS V14.00,2013-01-19 13:12:00,
2013-01-19 08:13:00,42.4,33.4,30.29,SSW,197,5.4,7.6,70,0.00,,OVC,0.00,VWS V14.00,2013-01-19 13:13:00,
2013-01-19 08:14:00,42.4,33.4,30.30,SSW,195,5.4,7.2,70,0.00,,OVC,0.00,VWS V14.00,2013-01-19 13:14:00,
2013-01-19 08:15:00,42.4,33.4,30.30,South,189,5.4,5.4,70,0.00,,OVC,0.00,VWS V14.00,2013-01-19 13:15:00,
2013-01-19 08:16:00,42.6,33.5,30.30,South,185,5.4,6.3,70,0.00,,OVC,0.00,VWS V14.00,2013-01-19 13:16:00,
2013-01-19 08:17:00,42.6,33.5,30.30,South,185,5.4,6.3,70,0.00,,OVC,0.00,VWS V14.00,2013-01-19 13:17:00,
2013-01-19 08:18:00,42.6,33.5,30.29,South,188,4.9,8.1,70,0.00,,OVC,0.00,VWS V14.00,2013-01-19 13:18:00,
2013-01-19 08:19:00,42.6,33.5,30.30,SSW,206,8.1,8.1,70,0.00,,OVC,0.00,VWS V14.00,2013-01-19 13:19:00,
2013-01-19 08:20:00,42.6,33.5,30.30,South,177,8.1,8.1,70,0.00,,OVC,0.00,VWS V14.00,2013-01-19 13:20:00,
2013-01-19 08:21:00,42.8,33.3,30.30,SSW,199,5.8,8.1,69,0.00,,OVC,0.00,VWS V14.00,2013-01-19 13:21:00,
2013-01-19 08:22:00,42.8,33.3,30.30,South,186,4.9,7.6,69,0.00,,OVC,0.00,VWS V14.00,2013-01-19 13:22:00,
2013-01-19 08:23:00,42.8,33.3,30.29,SSW,193,6.3,6.7,69,0.00,,OVC,0.00,VWS V14.00,2013-01-19 13:23:00,
2013-01-19 08:24:00,42.8,33.3,30.30,SSW,192,3.6,6.7,69,0.00,,OVC,0.00,VWS V14.00,2013-01-19 13:24:00,
2013-01-19 08:25:00,42.8,33.3,30.30,South,188,3.1,5.4,69,0.00,,OVC,0.00,VWS V14.00,2013-01-19 13:25:00,
2013-01-19 08:26:00,42.8,33.7,30.30,South,188,4.0,4.0,70,0.00,,OVC,0.00,VWS V14.00,2013-01-19 13:26:00,
2013-01-19 08:27:00,42.8,33.7,30.30,South,189,3.6,4.9,70,0.00,,OVC,0.00,VWS V14.00,2013-01-19 13:27:00,
2013-01-19 08:28:00,42.8,33.7,30.29,SSW,194,5.8,5.8,70,0.00,,OVC,0.00,VWS V14.00,2013-01-19 13:28:00,
2013-01-19 08:29:00,42.8,33.7,30.30,SSW,192,4.0,5.8,70,0.00,,OVC,0.00,VWS V14.00,2013-01-19 13:29:00,
2013-01-19 08:30:00,42.8,33.3,30.30,South,191,3.6,5.4,69,0.00,,OVC,0.00,VWS V14.00,2013-01-19 13:30:00,
2013-01-19 08:31:00,42.8,33.3,30.30,SSW,193,4.9,5.4,69,0.00,,OVC,0.00,VWS V14.00,2013-01-19 13:31:00,
2013-01-19 08:32:00,42.8,33.7,30.30,SSW,192,3.6,5.4,70,0.00,,OVC,0.00,VWS V14.00,2013-01-19 13:32:00,
2013-01-19 08:33:00,42.8,33.7,30.29,SSW,208,5.4,5.8,70,0.00,,OVC,0.00,VWS V14.00,2013-01-19 13:33:00,
2013-01-19 08:34:00,42.6,33.5,30.30,SSW,194,4.0,5.4,70,0.00,,OVC,0.00,VWS V14.00,2013-01-19 13:34:00,
2013-01-19 08:35:00,42.6,33.5,30.30,SSW,202,4.9,4.9,70,0.00,,OVC,0.00,VWS V14.00,2013-01-19 13:35:00,
2013-01-19 08:36:00,42.6,33.5,30.30,SSW,194,4.9,4.9,70,0.00,,OVC,0.00,VWS V14.00,2013-01-19 13:36:00,
2013-01-19 08:37:00,42.6,33.5,30.30,South,190,4.0,4.9,70,0.00,,OVC,0.00,VWS V14.00,2013-01-19 13:37:00,
2013-01-19 08:38:00,42.6,33.5,30.29,SSW,195,4.9,4.9,70,0.00,,OVC,0.00,VWS V14.00,2013-01-19 13:38:00,
2013-01-19 08:39:00,42.6,33.5,30.30,South,191,3.6,4.9,70,0.00,,OVC,0.00,VWS V14.00,2013-01-19 13:39:00,
2013-01-19 08:40:00,42.6,33.5,30.30,SSW,195,3.6,4.0,70,0.00,,OVC,0.00,VWS V14.00,2013-01-19 13:40:00,
2013-01-19 08:41:00,42.6,33.5,30.30,South,189,4.0,4.9,70,0.00,,OVC,0.00,VWS V14.00,2013-01-19 13:41:00,
2013-01-19 08:42:00,42.6,33.5,30.30,SSW,198,4.9,4.9,70,0.00,,OVC,0.00,VWS V14.00,2013-01-19 13:42:00,
2013-01-19 08:43:00,42.6,33.5,30.29,SSW,198,4.0,4.9,70,0.00,,OVC,0.00,VWS V14.00,2013-01-19 13:43:00,
2013-01-19 08:44:00,42.6,33.5,30.30,SSW,196,5.4,5.4,70,0.00,,OVC,0.00,VWS V14.00,2013-01-19 13:44:00,
2013-01-19 08:45:00,42.6,33.5,30.30,South,186,4.0,5.4,70,0.00,,OVC,0.00,VWS V14.00,2013-01-19 13:45:00,
2013-01-19 08:46:00,42.6,33.5,30.30,South,184,4.0,4.0,70,0.00,,OVC,0.00,VWS V14.00,2013-01-19 13:46:00,
2013-01-19 08:47:00,42.6,33.5,30.30,South,187,3.6,4.0,70,0.00,,OVC,0.00,VWS V14.00,2013-01-19 13:47:00,
2013-01-19 08:48:00,42.6,33.5,30.29,South,188,4.0,4.0,70,0.00,,OVC,0.00,VWS V14.00,2013-01-19 13:48:00,
2013-01-19 08:49:00,42.6,33.5,30.30,South,190,5.4,5.4,70,0.00,,OVC,0.00,VWS V14.00,2013-01-19 13:49:00,
2013-01-19 08:50:00,42.6,33.5,30.30,South,190,3.1,5.4,70,0.00,,OVC,0.00,VWS V14.00,2013-01-19 13:50:00,
2013-01-19 08:51:00,42.6,33.5,30.30,South,190,2.7,3.1,70,0.00,,OVC,0.00,VWS V14.00,2013-01-19 13:51:00,
2013-01-19 08:52:00,42.4,33.4,30.30,SSW,192,3.6,3.6,70,0.00,,OVC,0.00,VWS V14.00,2013-01-19 13:52:00,
2013-01-19 08:53:00,42.4,33.4,30.29,South,179,4.0,4.0,70,0.00,,OVC,0.00,VWS V14.00,2013-01-19 13:53:00,
2013-01-19 08:54:00,42.4,33.4,30.30,South,183,4.0,5.4,70,0.00,,OVC,0.00,VWS V14.00,2013-01-19 13:54:00,
2013-01-19 08:55:00,42.4,33.4,30.30,South,173,5.4,5.4,70,0.00,,OVC,0.00,VWS V14.00,2013-01-19 13:55:00,
2013-01-19 08:56:00,42.4,33.7,30.30,South,170,5.4,5.4,71,0.00,,OVC,0.00,VWS V14.00,2013-01-19 13:56:00,
2013-01-19 08:57:00,42.4,33.7,30.30,SSE,168,3.6,5.4,71,0.00,,OVC,0.00,VWS V14.00,2013-01-19 13:57:00,
2013-01-19 08:58:00,42.4,33.7,30.29,SSE,168,4.0,4.0,71,0.00,,OVC,0.00,VWS V14.00,2013-01-19 13:58:00,
2013-01-19 08:59:00,42.4,33.7,30.30,SSE,168,3.6,4.0,71,0.00,,OVC,0.00,VWS V14.00,2013-01-19 13:59:00,
2013-01-19 09:00:00,42.4,33.7,30.30,SSE,168,4.0,4.0,71,0.00,,OVC,0.00,VWS V14.00,2013-01-19 14:00:00,
2013-01-19 09:01:00,42.4,33.7,30.30,SSE,168,3.6,5.4,71,0.00,,OVC,0.00,VWS V14.00,2013-01-19 14:01:00,
2013-01-19 09:02:00,42.3,33.5,30.30,SSE,168,4.0,5.4,71,0.00,,OVC,0.00,VWS V14.00,2013-01-19 14:02:00,
2013-01-19 09:03:00,42.3,33.5,30.29,SSE,168,3.6,4.0,71,0.00,,OVC,0.00,VWS V14.00,2013-01-19 14:03:00,
2013-01-19 09:04:00,42.3,33.5,30.30,South,179,5.4,5.8,71,0.00,,OVC,0.00,VWS V14.00,2013-01-19 14:04:00,
2013-01-19 09:05:00,42.3,33.5,30.30,South,185,4.0,5.4,71,0.00,,OVC,0.00,VWS V14.00,2013-01-19 14:05:00,
2013-01-19 09:06:00,42.3,33.5,30.30,South,178,5.4,5.8,71,0.00,,OVC,0.00,VWS V14.00,2013-01-19 14:06:00,
2013-01-19 09:07:00,42.3,33.5,30.30,South,176,5.8,5.8,71,0.00,,OVC,0.00,VWS V14.00,2013-01-19 14:07:00,
2013-01-19 09:08:00,42.3,33.5,30.29,South,175,4.0,5.8,71,0.00,,OVC,0.00,VWS V14.00,2013-01-19 14:08:00,
2013-01-19 09:09:00,42.3,33.5,30.30,South,173,3.6,5.8,71,0.00,,OVC,0.00,VWS V14.00,2013-01-19 14:09:00,
2013-01-19 09:10:00,42.3,33.5,30.30,SSE,166,4.0,4.9,71,0.00,,OVC,0.00,VWS V14.00,2013-01-19 14:10:00,
2013-01-19 09:11:00,42.4,33.7,30.30,South,185,5.8,7.6,71,0.00,,OVC,0.00,VWS V14.00,2013-01-19 14:11:00,
2013-01-19 09:12:00,42.4,33.7,30.30,South,185,5.8,5.8,71,0.00,,OVC,0.00,VWS V14.00,2013-01-19 14:12:00,
2013-01-19 09:13:00,42.4,33.7,30.29,South,185,6.3,6.3,71,0.00,,OVC,0.00,VWS V14.00,2013-01-19 14:13:00,
2013-01-19 09:14:00,42.6,34.2,30.30,South,188,4.9,6.3,72,0.00,,OVC,0.00,VWS V14.00,2013-01-19 14:14:00,
2013-01-19 09:15:00,42.8,34.1,30.30,South,176,5.8,5.8,71,0.00,,OVC,0.00,VWS V14.00,2013-01-19 14:15:00,
2013-01-19 09:16:00,42.8,34.1,30.30,South,181,5.8,5.8,71,0.00,,OVC,0.00,VWS V14.00,2013-01-19 14:16:00,
2013-01-19 09:17:00,43.0,34.2,30.30,South,190,5.8,8.3,71,0.00,,OVC,0.00,VWS V14.00,2013-01-19 14:17:00,
2013-01-19 09:18:00,43.0,34.6,30.29,South,191,5.8,6.3,72,0.00,,OVC,0.00,VWS V14.00,2013-01-19 14:18:00,
2013-01-19 09:19:00,43.0,34.6,30.30,South,187,6.3,6.3,72,0.00,,OVC,0.00,VWS V14.00,2013-01-19 14:19:00,
2013-01-19 09:20:00,43.2,34.8,30.30,South,183,8.1,8.1,72,0.00,,OVC,0.00,VWS V14.00,2013-01-19 14:20:00,
2013-01-19 09:21:00,43.2,34.8,30.30,South,181,5.8,8.1,72,0.00,,OVC,0.00,VWS V14.00,2013-01-19 14:21:00,
2013-01-19 09:22:00,43.3,34.9,30.30,South,179,5.8,7.6,72,0.00,,OVC,0.00,VWS V14.00,2013-01-19 14:22:00,
2013-01-19 09:23:00,43.3,34.9,30.29,South,186,5.4,6.3,72,0.00,,OVC,0.00,VWS V14.00,2013-01-19 14:23:00,
2013-01-19 09:24:00,43.3,34.9,30.30,South,186,5.4,6.3,72,0.00,,OVC,0.00,VWS V14.00,2013-01-19 14:24:00,
2013-01-19 09:25:00,43.5,35.1,30.30,South,176,8.3,8.3,72,0.00,,OVC,0.00,VWS V14.00,2013-01-19 14:25:00,
2013-01-19 09:26:00,43.5,35.1,30.30,South,184,5.4,8.3,72,0.00,,OVC,0.00,VWS V14.00,2013-01-19 14:26:00,
2013-01-19 09:27:00,43.7,35.3,30.30,South,186,7.6,7.6,72,0.00,,OVC,0.00,VWS V14.00,2013-01-19 14:27:00,
2013-01-19 09:28:00,43.7,35.3,30.29,South,175,8.1,8.3,72,0.00,,OVC,0.00,VWS V14.00,2013-01-19 14:28:00,
2013-01-19 09:29:00,43.9,35.5,30.30,South,189,8.1,8.7,72,0.00,,OVC,0.00,VWS V14.00,2013-01-19 14:29:00,
2013-01-19 09:30:00,44.1,35.6,30.30,South,179,5.4,8.3,72,0.00,,OVC,0.00,VWS V14.00,2013-01-19 14:30:00,
2013-01-19 09:31:00,44.1,35.6,30.30,South,186,7.6,7.6,72,0.00,,OVC,0.00,VWS V14.00,2013-01-19 14:31:00,
2013-01-19 09:32:00,44.1,35.6,30.30,South,182,5.8,8.3,72,0.00,,OVC,0.00,VWS V14.00,2013-01-19 14:32:00,
2013-01-19 09:33:00,44.2,35.8,30.29,South,188,6.3,6.3,72,0.00,,OVC,0.00,VWS V14.00,2013-01-19 14:33:00,
2013-01-19 09:34:00,44.2,35.8,30.30,SW,216,5.8,6.3,72,0.00,,OVC,0.00,VWS V14.00,2013-01-19 14:34:00,
2013-01-19 09:35:00,44.2,36.2,30.30,South,181,7.6,7.6,73,0.00,,OVC,0.00,VWS V14.00,2013-01-19 14:35:00,
2013-01-19 09:36:00,44.4,36.3,30.30,South,180,8.7,8.7,73,0.00,,OVC,0.00,VWS V14.00,2013-01-19 14:36:00,
2013-01-19 09:37:00,44.6,36.2,30.29,South,186,7.6,7.6,72,0.00,,OVC,0.00,VWS V14.00,2013-01-19 14:37:00,
2013-01-19 09:38:00,44.6,36.2,30.30,South,186,7.6,7.6,72,0.00,,OVC,0.00,VWS V14.00,2013-01-19 14:38:00,
2013-01-19 09:39:00,44.6,36.2,30.30,SSE,165,6.7,7.6,72,0.00,,OVC,0.00,VWS V14.00,2013-01-19 14:39:00,
2013-01-19 09:40:00,44.8,36.3,30.30,SSE,164,5.8,7.2,72,0.00,,OVC,0.00,VWS V14.00,2013-01-19 14:40:00,
2013-01-19 09:41:00,44.8,36.3,30.30,SSE,160,5.8,6.3,72,0.00,,OVC,0.00,VWS V14.00,2013-01-19 14:41:00,
2013-01-19 09:42:00,44.8,36.3,30.29,South,175,4.9,7.6,72,0.00,,OVC,0.00,VWS V14.00,2013-01-19 14:42:00,
2013-01-19 09:43:00,44.8,36.3,30.30,South,172,4.9,7.6,72,0.00,,OVC,0.00,VWS V14.00,2013-01-19 14:43:00,
2013-01-19 09:44:00,44.8,36.3,30.30,South,173,6.3,6.7,72,0.00,,OVC,0.00,VWS V14.00,2013-01-19 14:44:00,
2013-01-19 09:45:00,44.8,36.3,30.30,SSE,166,6.3,6.3,72,0.00,,OVC,0.00,VWS V14.00,2013-01-19 14:45:00,
2013-01-19 09:46:00,44.8,36.3,30.30,South,177,5.4,6.7,72,0.00,,OVC,0.00,VWS V14.00,2013-01-19 14:46:00,
2013-01-19 09:47:00,44.8,36.3,30.30,SSE,167,6.3,6.3,72,0.00,,OVC,0.00,VWS V14.00,2013-01-19 14:47:00,
2013-01-19 09:48:00,44.8,36.3,30.32,South,176,5.4,6.3,72,0.00,,OVC,0.00,VWS V14.00,2013-01-19 14:48:00,
2013-01-19 09:49:00,44.8,36.3,30.32,South,177,5.8,5.8,72,0.00,,OVC,0.00,VWS V14.00,2013-01-19 14:49:00,
2013-01-19 09:50:00,45.0,36.5,30.32,SSE,158,5.4,8.3,72,0.00,,OVC,0.00,VWS V14.00,2013-01-19 14:50:00,
2013-01-19 09:51:00,45.0,36.5,30.32,SSE,160,7.6,7.6,72,0.00,,OVC,0.00,VWS V14.00,2013-01-19 14:51:00,
2013-01-19 09:52:00,45.0,36.5,30.32,SSE,167,5.8,8.1,72,0.00,,OVC,0.00,VWS V14.00,2013-01-19 14:52:00,
2013-01-19 09:53:00,45.0,36.5,30.32,SSE,165,7.6,8.3,72,0.00,,OVC,0.00,VWS V14.00,2013-01-19 14:53:00,
2013-01-19 09:54:00,45.1,37.0,30.32,SSE,164,6.3,7.6,73,0.00,,OVC,0.00,VWS V14.00,2013-01-19 14:54:00,
2013-01-19 09:55:00,45.1,37.0,30.32,SSE,158,5.8,6.3,73,0.00,,OVC,0.00,VWS V14.00,2013-01-19 14:55:00,
2013-01-19 09:56:00,45.1,37.0,30.32,South,179,7.6,7.6,73,0.00,,OVC,0.00,VWS V14.00,2013-01-19 14:56:00,
2013-01-19 09:57:00,45.1,37.0,30.32,SSE,164,7.6,8.1,73,0.00,,OVC,0.00,VWS V14.00,2013-01-19 14:57:00,
2013-01-19 09:58:00,45.3,37.2,30.32,SSE,160,4.0,7.6,73,0.00,,OVC,0.00,VWS V14.00,2013-01-19 14:58:00,
2013-01-19 09:59:00,45.3,37.2,30.32,South,175,6.7,6.7,73,0.00,,OVC,0.00,VWS V14.00,2013-01-19 14:59:00,
2013-01-19 10:00:00,45.3,37.2,30.32,South,169,5.4,6.7,73,0.00,,OVC,0.00,VWS V14.00,2013-01-19 15:00:00,
2013-01-19 10:01:00,45.3,37.2,30.32,South,170,5.4,5.8,73,0.00,,OVC,0.00,VWS V14.00,2013-01-19 15:01:00,
2013-01-19 10:08:00,45.7,37.5,30.32,South,176,4.0,4.9,73,0.00,,OVC,0.00,VWS V14.00,2013-01-19 15:08:00,
2013-01-19 10:09:00,45.7,37.5,30.32,South,176,3.1,4.0,73,0.00,,OVC,0.00,VWS V14.00,2013-01-19 15:09:00,
2013-01-19 10:10:00,45.7,37.5,30.32,SE,146,5.4,6.3,73,0.00,,OVC,0.00,VWS V14.00,2013-01-19 15:10:00,
2013-01-19 10:11:00,45.9,37.7,30.32,SSE,160,5.4,5.4,73,0.00,,OVC,0.00,VWS V14.00,2013-01-19 15:11:00,
2013-01-19 10:12:00,45.9,37.7,30.32,SSE,162,6.3,6.3,73,0.00,,OVC,0.00,VWS V14.00,2013-01-19 15:12:00,
2013-01-19 10:13:00,45.9,37.7,30.32,South,187,5.4,6.3,73,0.00,,OVC,0.00,VWS V14.00,2013-01-19 15:13:00,
2013-01-19 10:14:00,46.0,37.9,30.32,SSE,154,4.0,5.4,73,0.00,,OVC,0.00,VWS V14.00,2013-01-19 15:14:00,
2013-01-19 10:15:00,46.0,38.2,30.32,South,186,3.6,4.0,74,0.00,,OVC,0.00,VWS V14.00,2013-01-19 15:15:00,
2013-01-19 10:16:00,46.0,38.2,30.32,SSE,151,4.0,4.0,74,0.00,,OVC,0.00,VWS V14.00,2013-01-19 15:16:00,
2013-01-19 10:17:00,46.2,38.4,30.32,South,177,6.3,6.3,74,0.00,,OVC,0.00,VWS V14.00,2013-01-19 15:17:00,
2013-01-19 10:18:00,46.4,38.6,30.32,South,181,5.8,6.3,74,0.00,,OVC,0.00,VWS V14.00,2013-01-19 15:18:00,
2013-01-19 10:19:00,46.6,38.8,30.32,South,178,6.3,6.3,74,0.00,,OVC,0.00,VWS V14.00,2013-01-19 15:19:00,
2013-01-19 10:20:00,46.6,38.8,30.32,South,180,8.1,8.1,74,0.00,,OVC,0.00,VWS V14.00,2013-01-19 15:20:00,
2013-01-19 10:21:00,46.8,38.9,30.32,SE,144,4.0,8.1,74,0.00,,OVC,0.00,VWS V14.00,2013-01-19 15:21:00,
2013-01-19 10:22:00,46.8,38.9,30.32,SSE,168,9.2,9.2,74,0.00,,OVC,0.00,VWS V14.00,2013-01-19 15:22:00,
2013-01-19 10:23:00,47.1,39.3,30.32,SSE,155,8.7,10.5,74,0.00,,OVC,0.00,VWS V14.00,2013-01-19 15:23:00,
2013-01-19 10:24:00,47.1,39.3,30.32,SSE,164,8.1,8.7,74,0.00,,OVC,0.00,VWS V14.00,2013-01-19 15:24:00,
2013-01-19 10:25:00,47.3,39.5,30.32,South,179,8.3,11.4,74,0.00,,OVC,0.00,VWS V14.00,2013-01-19 15:25:00,
2013-01-19 10:26:00,47.3,39.4,30.32,South,169,8.1,8.7,74,0.00,,OVC,0.00,VWS V14.00,2013-01-19 15:26:00,
2013-01-19 10:27:00,47.3,39.4,30.32,South,184,8.1,8.1,74,0.00,,OVC,0.00,VWS V14.00,2013-01-19 15:27:00,
2013-01-19 10:28:00,47.5,39.6,30.32,South,190,10.1,11.0,74,0.00,,OVC,0.00,VWS V14.00,2013-01-19 15:28:00,
2013-01-19 10:29:00,47.5,39.6,30.32,South,171,6.3,10.1,74,0.00,,OVC,0.00,VWS V14.00,2013-01-19 15:29:00,
2013-01-19 10:30:00,47.5,39.6,30.32,South,175,6.3,8.7,74,0.00,,OVC,0.00,VWS V14.00,2013-01-19 15:30:00,
2013-01-19 10:31:00,47.5,39.6,30.32,South,181,8.3,10.5,74,0.00,,OVC,0.00,VWS V14.00,2013-01-19 15:31:00,
2013-01-19 10:32:00,47.5,39.6,30.32,South,174,11.0,11.0,74,0.00,,OVC,0.00,VWS V14.00,2013-01-19 15:32:00,
2013-01-19 10:33:00,47.5,39.6,30.32,SSW,194,5.8,11.0,74,0.00,,OVC,0.00,VWS V14.00,2013-01-19 15:33:00,
2013-01-19 10:34:00,47.5,39.6,30.32,South,176,4.0,6.3,74,0.00,,OVC,0.00,VWS V14.00,2013-01-19 15:34:00,
2013-01-19 10:35:00,47.7,39.8,30.32,SSW,194,10.1,10.1,74,0.00,,OVC,0.00,VWS V14.00,2013-01-19 15:35:00,
2013-01-19 10:36:00,47.7,39.8,30.32,South,182,7.6,10.1,74,0.00,,OVC,0.00,VWS V14.00,2013-01-19 15:36:00,
2013-01-19 10:37:00,47.7,39.8,30.32,SSW,198,6.7,8.1,74,0.00,,OVC,0.00,VWS V14.00,2013-01-19 15:37:00,
2013-01-19 10:38:00,47.7,39.8,30.32,South,190,8.1,8.7,74,0.00,,OVC,0.00,VWS V14.00,2013-01-19 15:38:00,
2013-01-19 10:39:00,47.7,39.8,30.32,South,189,6.7,8.1,74,0.00,,OVC,0.00,VWS V14.00,2013-01-19 15:39:00,
2013-01-19 10:40:00,47.7,39.8,30.32,South,186,8.1,8.1,74,0.00,,OVC,0.00,VWS V14.00,2013-01-19 15:40:00,
2013-01-19 10:41:00,47.7,39.8,30.32,South,186,5.8,8.1,74,0.00,,OVC,0.00,VWS V14.00,2013-01-19 15:41:00,
2013-01-19 10:42:00,47.7,39.8,30.32,South,182,5.4,8.3,74,0.00,,OVC,0.00,VWS V14.00,2013-01-19 15:42:00,
2013-01-19 10:43:00,47.7,39.8,30.32,SSW,192,5.4,8.1,74,0.00,,OVC,0.00,VWS V14.00,2013-01-19 15:43:00,
2013-01-19 10:44:00,47.7,39.8,30.32,SSE,168,6.3,8.1,74,0.00,,OVC,0.00,VWS V14.00,2013-01-19 15:44:00,
2013-01-19 10:45:00,47.8,40.0,30.32,South,191,8.7,8.7,74,0.00,,OVC,0.00,VWS V14.00,2013-01-19 15:45:00,
2013-01-19 10:46:00,47.8,40.0,30.32,South,179,8.3,10.1,74,0.00,,OVC,0.00,VWS V14.00,2013-01-19 15:46:00,
2013-01-19 10:47:00,47.8,40.0,30.32,South,187,8.1,11.0,74,0.00,,OVC,0.00,VWS V14.00,2013-01-19 15:47:00,
2013-01-19 10:48:00,47.8,40.0,30.32,South,181,8.1,8.1,74,0.00,,OVC,0.00,VWS V14.00,2013-01-19 15:48:00,
2013-01-19 10:49:00,47.8,40.0,30.32,SSW,200,8.7,8.7,74,0.00,,OVC,0.00,VWS V14.00,2013-01-19 15:49:00,
2013-01-19 10:50:00,48.0,40.1,30.32,SSW,192,6.7,8.7,74,0.00,,OVC,0.00,VWS V14.00,2013-01-19 15:50:00,
2013-01-19 10:51:00,48.0,40.1,30.32,South,174,12.3,12.3,74,0.00,,OVC,0.00,VWS V14.00,2013-01-19 15:51:00,
2013-01-19 10:52:00,48.2,40.3,30.32,SSW,195,8.1,12.3,74,0.00,,OVC,0.00,VWS V14.00,2013-01-19 15:52:00,
2013-01-19 10:53:00,48.2,40.3,30.32,South,187,8.7,8.7,74,0.00,,OVC,0.00,VWS V14.00,2013-01-19 15:53:00,
2013-01-19 10:54:00,48.2,40.3,30.32,SSW,192,10.5,11.0,74,0.00,,OVC,0.00,VWS V14.00,2013-01-19 15:54:00,
2013-01-19 10:55:00,48.4,40.5,30.32,South,176,8.7,10.5,74,0.00,,OVC,0.00,VWS V14.00,2013-01-19 15:55:00,
2013-01-19 10:56:00,48.4,40.5,30.32,SSW,205,8.1,8.7,74,0.00,,OVC,0.00,VWS V14.00,2013-01-19 15:56:00,
2013-01-19 10:57:00,48.7,40.8,30.32,SSW,209,8.3,8.3,74,0.00,,OVC,0.00,VWS V14.00,2013-01-19 15:57:00,
2013-01-19 10:58:00,48.7,41.2,30.32,South,187,8.7,8.7,75,0.00,,OVC,0.00,VWS V14.00,2013-01-19 15:58:00,
2013-01-19 10:59:00,48.9,41.4,30.32,SSW,210,8.1,8.7,75,0.00,,OVC,0.00,VWS V14.00,2013-01-19 15:59:00,
2013-01-19 11:00:00,49.1,41.5,30.32,South,182,8.3,10.1,75,0.00,,OVC,0.00,VWS V14.00,2013-01-19 16:00:00,
2013-01-19 11:01:00,49.3,41.7,30.32,South,177,6.3,8.7,75,0.00,,OVC,0.00,VWS V14.00,2013-01-19 16:01:00,
2013-01-19 11:02:00,49.5,41.9,30.32,SSW,201,5.8,11.0,75,0.00,,OVC,0.00,VWS V14.00,2013-01-19 16:02:00,
2013-01-19 11:03:00,49.8,42.2,30.32,SSW,213,8.1,8.1,75,0.00,,OVC,0.00,VWS V14.00,2013-01-19 16:03:00,
2013-01-19 11:04:00,49.8,42.2,30.32,South,180,5.8,8.1,75,0.00,,OVC,0.00,VWS V14.00,2013-01-19 16:04:00,
2013-01-19 11:05:00,50.2,42.6,30.32,SSW,193,6.3,7.6,75,0.00,,OVC,0.00,VWS V14.00,2013-01-19 16:05:00,
2013-01-19 11:06:00,50.4,42.8,30.32,SSW,212,6.3,8.3,75,0.00,,OVC,0.00,VWS V14.00,2013-01-19 16:06:00,
2013-01-19 11:07:00,50.4,42.8,30.32,SSW,206,11.0,11.0,75,0.00,,OVC,0.00,VWS V14.00,2013-01-19 16:07:00,
2013-01-19 11:08:00,50.7,43.1,30.32,SSW,204,10.1,11.0,75,0.00,,OVC,0.00,VWS V14.00,2013-01-19 16:08:00,
2013-01-19 11:09:00,50.7,43.1,30.32,SSW,201,8.7,10.1,75,0.00,,OVC,0.00,VWS V14.00,2013-01-19 16:09:00,
2013-01-19 11:10:00,50.9,43.3,30.32,SSW,197,7.6,8.7,75,0.00,,OVC,0.00,VWS V14.00,2013-01-19 16:10:00,
2013-01-19 11:11:00,51.1,43.4,30.32,SSW,199,8.7,8.7,75,0.00,,OVC,0.00,VWS V14.00,2013-01-19 16:11:00,
2013-01-19 11:12:00,51.1,43.4,30.32,SSW,206,8.3,9.6,75,0.00,,OVC,0.00,VWS V14.00,2013-01-19 16:12:00,
2013-01-19 11:13:00,51.3,43.6,30.32,SSW,193,4.9,8.7,75,0.00,,OVC,0.00,VWS V14.00,2013-01-19 16:13:00,
2013-01-19 11:14:00,51.3,43.6,30.32,SSW,196,10.5,11.0,75,0.00,,OVC,0.00,VWS V14.00,2013-01-19 16:14:00,
2013-01-19 11:15:00,51.4,43.8,30.32,SW,216,5.8,11.0,75,0.00,,OVC,0.00,VWS V14.00,2013-01-19 16:15:00,
2013-01-19 11:16:00,51.6,44.0,30.32,SSW,206,10.1,10.1,75,0.00,,OVC,0.00,VWS V14.00,2013-01-19 16:16:00,
2013-01-19 11:17:00,51.6,44.0,30.32,South,185,5.8,10.1,75,0.00,,OVC,0.00,VWS V14.00,2013-01-19 16:17:00,
2013-01-19 11:18:00,51.8,44.1,30.32,SSW,203,8.3,12.3,75,0.00,,OVC,0.00,VWS V14.00,2013-01-19 16:18:00,
2013-01-19 11:19:00,52.0,44.3,30.32,SSW,198,5.8,8.3,75,0.00,,OVC,0.00,VWS V14.00,2013-01-19 16:19:00,
2013-01-19 11:20:00,52.0,44.3,30.32,SSW,201,10.1,10.1,75,0.00,,OVC,0.00,VWS V14.00,2013-01-19 16:20:00,
2013-01-19 11:21:00,52.3,44.7,30.32,SSW,210,9.2,10.1,75,0.00,,OVC,0.00,VWS V14.00,2013-01-19 16:21:00,
2013-01-19 11:22:00,52.5,44.8,30.32,South,178,6.3,9.2,75,0.00,,OVC,0.00,VWS V14.00,2013-01-19 16:22:00,
2013-01-19 11:23:00,52.5,44.8,30.32,SSW,209,8.1,8.3,75,0.00,,OVC,0.00,VWS V14.00,2013-01-19 16:23:00,
2013-01-19 11:24:00,52.7,45.0,30.32,SSW,209,8.3,8.3,75,0.00,,OVC,0.00,VWS V14.00,2013-01-19 16:24:00,
2013-01-19 11:25:00,52.9,45.2,30.32,SSW,194,5.4,8.7,75,0.00,,OVC,0.00,VWS V14.00,2013-01-19 16:25:00,
2013-01-19 11:26:00,53.1,45.4,30.32,South,175,8.3,8.3,75,0.00,,OVC,0.00,VWS V14.00,2013-01-19 16:26:00,
2013-01-19 11:27:00,53.2,45.5,30.32,SW,216,10.5,11.0,75,0.00,,OVC,0.00,VWS V14.00,2013-01-19 16:27:00,
2013-01-19 11:28:00,53.4,45.7,30.32,SSE,150,6.7,10.5,75,0.00,,OVC,0.00,VWS V14.00,2013-01-19 16:28:00,
2013-01-19 11:29:00,53.6,45.9,30.32,South,191,4.5,6.7,75,0.00,,OVC,0.00,VWS V14.00,2013-01-19 16:29:00,
2013-01-19 11:30:00,53.8,46.0,30.32,South,170,5.8,7.2,75,0.00,,OVC,0.00,VWS V14.00,2013-01-19 16:30:00,
2013-01-19 11:31:00,54.0,46.2,30.32,South,183,5.4,7.6,75,0.00,,OVC,0.00,VWS V14.00,2013-01-19 16:31:00,
2013-01-19 11:32:00,54.1,46.4,30.32,SSW,193,8.1,8.3,75,0.00,,OVC,0.00,VWS V14.00,2013-01-19 16:32:00,
2013-01-19 11:33:00,54.3,46.6,30.32,SSW,195,7.6,8.1,75,0.00,,OVC,0.00,VWS V14.00,2013-01-19 16:33:00,
2013-01-19 11:34:00,54.5,46.8,30.32,SSW,197,10.1,10.1,75,0.00,,OVC,0.00,VWS V14.00,2013-01-19 16:34:00,
2013-01-19 11:35:00,54.7,46.9,30.32,South,189,12.8,12.8,75,0.00,,OVC,0.00,VWS V14.00,2013-01-19 16:35:00,
2013-01-19 11:36:00,54.9,47.1,30.32,South,179,11.4,12.8,75,0.00,,OVC,0.00,VWS V14.00,2013-01-19 16:36:00,
2013-01-19 11:37:00,55.0,47.3,30.32,SSW,200,8.7,11.4,75,0.00,,OVC,0.00,VWS V14.00,2013-01-19 16:37:00,
2013-01-19 11:38:00,55.0,47.3,30.32,SSW,195,6.3,8.7,75,0.00,,OVC,0.00,VWS V14.00,2013-01-19 16:38:00,
2013-01-19 11:39:00,55.2,47.4,30.32,SSW,209,8.3,8.3,75,0.00,,OVC,0.00,VWS V14.00,2013-01-19 16:39:00,
2013-01-19 11:40:00,55.4,47.3,30.32,SW,219,8.1,8.7,74,0.00,,OVC,0.00,VWS V14.00,2013-01-19 16:40:00,
2013-01-19 11:41:00,55.4,47.3,30.32,SSW,196,8.1,8.7,74,0.00,,OVC,0.00,VWS V14.00,2013-01-19 16:41:00,
2013-01-19 11:42:00,55.6,47.4,30.32,SW,231,8.3,10.1,74,0.00,,OVC,0.00,VWS V14.00,2013-01-19 16:42:00,
2013-01-19 11:43:00,55.8,47.6,30.32,SSE,150,5.8,8.3,74,0.00,,OVC,0.00,VWS V14.00,2013-01-19 16:43:00,
2013-01-19 11:44:00,55.8,47.6,30.32,South,188,6.3,8.3,74,0.00,,OVC,0.00,VWS V14.00,2013-01-19 16:44:00,
2013-01-19 11:45:00,55.9,47.8,30.32,SSE,160,8.3,10.1,74,0.00,,OVC,0.00,VWS V14.00,2013-01-19 16:45:00,
2013-01-19 11:46:00,55.9,47.8,30.32,South,187,6.3,8.7,74,0.00,,OVC,0.00,VWS V14.00,2013-01-19 16:46:00,
2013-01-19 11:47:00,56.1,48.0,30.32,South,170,5.8,8.1,74,0.00,,OVC,0.00,VWS V14.00,2013-01-19 16:47:00,
2013-01-19 11:48:00,56.1,47.6,30.32,SSE,151,7.6,8.3,73,0.00,,OVC,0.00,VWS V14.00,2013-01-19 16:48:00,
2013-01-19 11:49:00,56.1,47.6,30.32,South,185,7.6,8.1,73,0.00,,OVC,0.00,VWS V14.00,2013-01-19 16:49:00,
2013-01-19 11:50:00,56.3,47.8,30.32,South,177,9.2,9.2,73,0.00,,OVC,0.00,VWS V14.00,2013-01-19 16:50:00,
2013-01-19 11:51:00,56.5,47.9,30.32,SSE,166,4.9,9.2,73,0.00,,OVC,0.00,VWS V14.00,2013-01-19 16:51:00,
2013-01-19 11:52:00,56.7,48.1,30.32,SSE,165,7.6,8.7,73,0.00,,OVC,0.00,VWS V14.00,2013-01-19 16:52:00,
2013-01-19 11:53:00,56.7,48.1,30.32,SSW,200,8.3,8.3,73,0.00,,OVC,0.00,VWS V14.00,2013-01-19 16:53:00,
2013-01-19 11:54:00,56.8,48.3,30.32,SSW,207,10.1,10.1,73,0.00,,OVC,0.00,VWS V14.00,2013-01-19 16:54:00,
2013-01-19 11:55:00,56.8,48.3,30.32,South,182,8.3,11.0,73,0.00,,OVC,0.00,VWS V14.00,2013-01-19 16:55:00,
2013-01-19 11:56:00,57.0,48.5,30.32,SSW,192,10.1,10.1,73,0.00,,OVC,0.00,VWS V14.00,2013-01-19 16:56:00,
2013-01-19 11:57:00,57.0,48.5,30.32,SSW,193,11.0,11.0,73,0.00,,OVC,0.00,VWS V14.00,2013-01-19 16:57:00,
2013-01-19 11:58:00,57.2,48.3,30.32,SSE,154,10.5,11.0,72,0.00,,OVC,0.00,VWS V14.00,2013-01-19 16:58:00,
2013-01-19 11:59:00,57.2,48.3,30.32,SSW,192,10.1,12.8,72,0.00,,OVC,0.00,VWS V14.00,2013-01-19 16:59:00,
2013-01-19 12:00:00,57.4,48.4,30.32,SSW,208,8.7,10.5,72,0.00,,OVC,0.00,VWS V14.00,2013-01-19 17:00:00,
2013-01-19 12:01:00,57.6,48.6,30.32,South,189,8.3,8.7,72,0.00,,OVC,0.00,VWS V14.00,2013-01-19 17:01:00,
2013-01-19 12:02:00,57.6,48.2,30.32,SSW,194,5.8,8.3,71,0.00,,OVC,0.00,VWS V14.00,2013-01-19 17:02:00,
2013-01-19 12:03:00,57.7,48.4,30.32,SW,227,7.6,11.9,71,0.00,,OVC,0.00,VWS V14.00,2013-01-19 17:03:00,
2013-01-19 12:04:00,57.9,48.6,30.32,SSW,211,7.6,8.3,71,0.00,,OVC,0.00,VWS V14.00,2013-01-19 17:04:00,
2013-01-19 12:05:00,57.9,48.6,30.32,South,184,8.3,8.3,71,0.00,,OVC,0.00,VWS V14.00,2013-01-19 17:05:00,
2013-01-19 12:06:00,57.9,48.6,30.32,South,175,5.8,8.3,71,0.00,,OVC,0.00,VWS V14.00,2013-01-19 17:06:00,
2013-01-19 12:07:00,58.1,48.8,30.32,South,186,7.2,10.5,71,0.00,,OVC,0.00,VWS V14.00,2013-01-19 17:07:00,
2013-01-19 12:08:00,58.1,48.4,30.32,SW,216,8.7,8.7,70,0.00,,OVC,0.00,VWS V14.00,2013-01-19 17:08:00,
2013-01-19 12:09:00,58.3,48.5,30.32,SSW,196,10.1,10.1,70,0.00,,OVC,0.00,VWS V14.00,2013-01-19 17:09:00,
2013-01-19 12:10:00,58.5,48.7,30.32,South,171,11.0,11.0,70,0.00,,OVC,0.00,VWS V14.00,2013-01-19 17:10:00,
2013-01-19 12:11:00,58.5,48.7,30.32,SSW,207,11.4,15.4,70,0.00,,OVC,0.00,VWS V14.00,2013-01-19 17:11:00,
2013-01-19 12:12:00,58.6,48.9,30.32,SW,229,15.0,15.0,70,0.00,,OVC,0.00,VWS V14.00,2013-01-19 17:12:00,
2013-01-19 12:13:00,58.8,48.7,30.32,SW,224,8.3,15.0,69,0.00,,OVC,0.00,VWS V14.00,2013-01-19 17:13:00,
2013-01-19 12:14:00,58.8,48.7,30.32,SSW,195,11.0,15.4,69,0.00,,OVC,0.00,VWS V14.00,2013-01-19 17:14:00,
2013-01-19 12:15:00,58.8,48.7,30.32,SW,220,8.3,14.1,69,0.00,,OVC,0.00,VWS V14.00,2013-01-19 17:15:00,
2013-01-19 12:16:00,59.0,48.5,30.32,South,175,12.8,12.8,68,0.00,,OVC,0.00,VWS V14.00,2013-01-19 17:16:00,
2013-01-19 12:17:00,59.2,48.6,30.32,SSW,192,11.0,12.8,68,0.00,,OVC,0.00,VWS V14.00,2013-01-19 17:17:00,
2013-01-19 12:18:00,59.2,48.6,30.32,South,191,8.7,11.0,68,0.00,,OVC,0.00,VWS V14.00,2013-01-19 17:18:00,
2013-01-19 12:19:00,59.2,48.2,30.32,SSW,206,8.1,11.9,67,0.00,,OVC,0.00,VWS V14.00,2013-01-19 17:19:00,
2013-01-19 12:20:00,59.2,48.2,30.32,SW,214,10.5,12.8,67,0.00,,OVC,0.00,VWS V14.00,2013-01-19 17:20:00,
2013-01-19 12:21:00,59.4,48.0,30.32,SSE,166,11.0,11.0,66,0.00,,OVC,0.00,VWS V14.00,2013-01-19 17:21:00,
2013-01-19 12:22:00,59.4,48.0,30.32,South,174,8.1,11.0,66,0.00,,OVC,0.00,VWS V14.00,2013-01-19 17:22:00,
2013-01-19 12:23:00,59.5,48.2,30.32,South,179,6.3,8.7,66,0.00,,OVC,0.00,VWS V14.00,2013-01-19 17:23:00,
2013-01-19 12:24:00,59.7,48.4,30.32,SW,227,7.2,11.0,66,0.00,,OVC,0.00,VWS V14.00,2013-01-19 17:24:00,
2013-01-19 12:25:00,59.9,48.1,30.32,SW,223,8.3,8.7,65,0.00,,OVC,0.00,VWS V14.00,2013-01-19 17:25:00,
2013-01-19 12:26:00,59.9,48.1,30.32,SSW,207,8.7,11.0,65,0.00,,OVC,0.00,VWS V14.00,2013-01-19 17:26:00,
2013-01-19 12:27:00,60.1,48.3,30.32,SSW,205,10.1,12.8,65,0.00,,OVC,0.00,VWS V14.00,2013-01-19 17:27:00,
2013-01-19 12:28:00,60.1,47.9,30.32,South,177,10.5,13.2,64,0.00,,OVC,0.00,VWS V14.00,2013-01-19 17:28:00,
2013-01-19 12:29:00,60.3,48.0,30.32,SW,215,8.7,10.5,64,0.00,,OVC,0.00,VWS V14.00,2013-01-19 17:29:00,
2013-01-19 12:30:00,60.4,47.8,30.32,SSW,199,8.1,12.3,63,0.00,,OVC,0.00,VWS V14.00,2013-01-19 17:30:00,
2013-01-19 12:31:00,60.4,47.8,30.32,SW,216,8.7,8.7,63,0.00,,OVC,0.00,VWS V14.00,2013-01-19 17:31:00,
2013-01-19 12:32:00,60.4,47.4,30.32,WSW,243,8.3,10.1,62,0.00,,OVC,0.00,VWS V14.00,2013-01-19 17:32:00,
2013-01-19 12:33:00,60.6,47.5,30.30,WSW,237,7.6,8.3,62,0.00,,OVC,0.00,VWS V14.00,2013-01-19 17:33:00,
2013-01-19 12:34:00,60.6,47.5,30.30,SSW,209,8.7,8.7,62,0.00,,OVC,0.00,VWS V14.00,2013-01-19 17:34:00,
2013-01-19 12:35:00,60.8,47.3,30.30,SSW,211,11.0,12.3,61,0.00,,OVC,0.00,VWS V14.00,2013-01-19 17:35:00,
2013-01-19 12:36:00,60.8,46.8,30.29,SW,225,12.8,13.2,60,0.00,,OVC,0.00,VWS V14.00,2013-01-19 17:36:00,
2013-01-19 12:37:00,61.0,47.0,30.30,SW,224,8.7,15.4,60,0.00,,OVC,0.00,VWS V14.00,2013-01-19 17:37:00,
2013-01-19 12:38:00,61.0,46.6,30.30,WSW,257,11.0,14.5,59,0.00,,OVC,0.00,VWS V14.00,2013-01-19 17:38:00,
2013-01-19 12:39:00,61.0,46.1,30.30,SW,218,11.0,12.8,58,0.00,,OVC,0.00,VWS V14.00,2013-01-19 17:39:00,
2013-01-19 12:40:00,61.0,46.1,30.30,SW,231,12.3,12.8,58,0.00,,OVC,0.00,VWS V14.00,2013-01-19 17:40:00,
2013-01-19 12:41:00,61.2,45.4,30.30,SW,224,11.4,12.3,56,0.00,,OVC,0.00,VWS V14.00,2013-01-19 17:41:00,
2013-01-19 12:42:00,61.2,45.4,30.29,SW,220,8.3,11.4,56,0.00,,OVC,0.00,VWS V14.00,2013-01-19 17:42:00,
2013-01-19 12:43:00,61.2,45.4,30.30,SW,233,7.6,8.7,56,0.00,,OVC,0.00,VWS V14.00,2013-01-19 17:43:00,
2013-01-19 12:44:00,61.2,44.9,30.30,SSW,210,8.7,10.5,55,0.00,,OVC,0.00,VWS V14.00,2013-01-19 17:44:00,
2013-01-19 12:45:00,61.3,45.0,30.30,WSW,240,10.5,10.5,55,0.00,,OVC,0.00,VWS V14.00,2013-01-19 17:45:00,
2013-01-19 12:46:00,61.3,45.0,30.30,South,191,12.3,12.3,55,0.00,,OVC,0.00,VWS V14.00,2013-01-19 17:46:00,
2013-01-19 12:47:00,61.3,45.0,30.29,SW,214,10.1,12.8,55,0.00,,OVC,0.00,VWS V14.00,2013-01-19 17:47:00,
2013-01-19 12:48:00,61.5,44.7,30.30,SW,224,12.3,14.1,54,0.00,,OVC,0.00,VWS V14.00,2013-01-19 17:48:00,
2013-01-19 12:49:00,61.5,44.2,30.30,SW,224,10.5,12.8,53,0.00,,OVC,0.00,VWS V14.00,2013-01-19 17:49:00,
2013-01-19 12:50:00,61.5,44.2,30.30,SSW,201,11.0,12.3,53,0.00,,OVC,0.00,VWS V14.00,2013-01-19 17:50:00,
2013-01-19 12:51:00,61.5,43.8,30.30,SW,214,10.1,12.3,52,0.00,,OVC,0.00,VWS V14.00,2013-01-19 17:51:00,
2013-01-19 12:52:00,61.5,43.8,30.30,South,189,8.7,12.8,52,0.00,,OVC,0.00,VWS V14.00,2013-01-19 17:52:00,
2013-01-19 12:53:00,61.5,43.8,30.29,SW,218,11.4,11.4,52,0.00,,OVC,0.00,VWS V14.00,2013-01-19 17:53:00,
2013-01-19 12:54:00,61.5,43.2,30.30,SSW,204,8.7,11.4,51,0.00,,OVC,0.00,VWS V14.00,2013-01-19 17:54:00,
2013-01-19 12:55:00,61.5,43.2,30.30,SSW,194,10.1,12.3,51,0.00,,OVC,0.00,VWS V14.00,2013-01-19 17:55:00,
2013-01-19 12:56:00,61.5,43.2,30.30,SSW,212,8.7,10.1,51,0.00,,OVC,0.00,VWS V14.00,2013-01-19 17:56:00,
2013-01-19 12:57:00,61.7,43.4,30.30,South,172,8.1,11.4,51,0.00,,OVC,0.00,VWS V14.00,2013-01-19 17:57:00,
2013-01-19 12:58:00,61.7,43.4,30.29,SSW,192,6.3,10.1,51,0.00,,OVC,0.00,VWS V14.00,2013-01-19 17:58:00,
2013-01-19 12:59:00,61.9,43.6,30.30,SSW,197,11.0,11.0,51,0.00,,OVC,0.00,VWS V14.00,2013-01-19 17:59:00,
2013-01-19 13:00:00,61.9,43.1,30.30,SSW,197,6.3,11.0,50,0.00,,OVC,0.00,VWS V14.00,2013-01-19 18:00:00,
2013-01-19 13:01:00,62.1,43.2,30.30,SW,223,11.0,11.0,50,0.00,,OVC,0.00,VWS V14.00,2013-01-19 18:01:00,
2013-01-19 13:02:00,62.2,43.4,30.30,SW,222,8.1,11.0,50,0.00,,OVC,0.00,VWS V14.00,2013-01-19 18:02:00,
2013-01-19 13:03:00,62.2,43.4,30.30,SSW,195,8.7,10.5,50,0.00,,OVC,0.00,VWS V14.00,2013-01-19 18:03:00,
2013-01-19 13:04:00,62.4,43.5,30.29,SW,224,10.1,10.1,50,0.00,,OVC,0.00,VWS V14.00,2013-01-19 18:04:00,
2013-01-19 13:05:00,62.6,42.7,30.30,SW,218,7.6,10.1,48,0.00,,OVC,0.00,VWS V14.00,2013-01-19 18:05:00,
2013-01-19 13:06:00,62.6,42.7,30.30,WSW,254,8.7,8.7,48,0.00,,OVC,0.00,VWS V14.00,2013-01-19 18:06:00,
2013-01-19 13:07:00,62.6,42.7,30.30,SW,224,12.3,13.2,48,0.00,,OVC,0.00,VWS V14.00,2013-01-19 18:07:00,
2013-01-19 13:08:00,62.8,42.3,30.30,SW,220,11.0,13.2,47,0.00,,OVC,0.00,VWS V14.00,2013-01-19 18:08:00,
2013-01-19 13:09:00,62.8,41.7,30.30,SSW,204,12.8,13.2,46,0.00,,OVC,0.00,VWS V14.00,2013-01-19 18:09:00,
2013-01-19 13:10:00,62.8,41.7,30.30,SW,214,13.2,15.4,46,0.00,,OVC,0.00,VWS V14.00,2013-01-19 18:10:00,
2013-01-19 13:11:00,62.8,41.7,30.30,SW,218,11.0,15.4,46,0.00,,OVC,0.00,VWS V14.00,2013-01-19 18:11:00,
2013-01-19 13:12:00,62.8,41.7,30.29,SSW,205,13.2,14.1,46,0.00,,OVC,0.00,VWS V14.00,2013-01-19 18:12:00,
2013-01-19 13:13:00,62.8,41.7,30.30,South,191,8.1,13.2,46,0.00,,OVC,0.00,VWS V14.00,2013-01-19 18:13:00,
2013-01-19 13:14:00,62.8,41.2,30.30,SW,226,8.1,8.7,45,0.00,,OVC,0.00,VWS V14.00,2013-01-19 18:14:00,
2013-01-19 13:15:00,63.0,41.3,30.30,South,182,8.3,10.1,45,0.00,,OVC,0.00,VWS V14.00,2013-01-19 18:15:00,
2013-01-19 13:16:00,63.0,41.3,30.30,South,186,11.9,13.2,45,0.00,,OVC,0.00,VWS V14.00,2013-01-19 18:16:00,
2013-01-19 13:17:00,63.0,41.3,30.29,South,187,11.0,11.9,45,0.00,,OVC,0.00,VWS V14.00,2013-01-19 18:17:00,
2013-01-19 13:18:00,63.0,41.3,30.26,SW,230,10.1,11.0,45,0.00,,OVC,0.00,VWS V14.00,2013-01-19 18:18:00,
2013-01-19 13:19:00,63.0,41.3,30.26,SW,218,8.1,12.3,45,0.00,,OVC,0.00,VWS V14.00,2013-01-19 18:19:00,
2013-01-19 13:20:00,63.0,40.7,30.26,WSW,250,9.6,10.5,44,0.00,,OVC,0.00,VWS V14.00,2013-01-19 18:20:00,
2013-01-19 13:21:00,63.0,40.7,30.26,WSW,237,8.7,10.1,44,0.00,,OVC,0.00,VWS V14.00,2013-01-19 18:21:00,
2013-01-19 13:22:00,63.0,40.7,30.27,WSW,250,6.3,8.7,44,0.00,,OVC,0.00,VWS V14.00,2013-01-19 18:22:00,
2013-01-19 13:23:00,63.0,40.7,30.26,West,265,8.3,11.0,44,0.00,,OVC,0.00,VWS V14.00,2013-01-19 18:23:00,
2013-01-19 13:24:00,63.0,40.7,30.26,WSW,246,8.3,12.8,44,0.00,,OVC,0.00,VWS V14.00,2013-01-19 18:24:00,
2013-01-19 13:25:00,63.0,40.1,30.26,WSW,254,8.1,12.3,43,0.00,,OVC,0.00,VWS V14.00,2013-01-19 18:25:00,
2013-01-19 13:26:00,63.0,40.1,30.26,SW,225,8.7,11.4,43,0.00,,OVC,0.00,VWS V14.00,2013-01-19 18:26:00,
2013-01-19 13:27:00,63.0,40.1,30.26,SW,234,7.6,8.7,43,0.00,,OVC,0.00,VWS V14.00,2013-01-19 18:27:00,
2013-01-19 13:28:00,63.0,39.5,30.26,SW,214,10.1,11.0,42,0.00,,OVC,0.00,VWS V14.00,2013-01-19 18:28:00,
2013-01-19 13:29:00,63.0,39.5,30.27,SSW,199,7.6,10.1,42,0.00,,OVC,0.00,VWS V14.00,2013-01-19 18:29:00,
2013-01-19 13:30:00,63.0,39.5,30.26,SSW,197,12.8,14.1,42,0.00,,OVC,0.00,VWS V14.00,2013-01-19 18:30:00,
2013-01-19 13:31:00,63.0,39.5,30.26,SSW,198,12.3,13.2,42,0.00,,OVC,0.00,VWS V14.00,2013-01-19 18:31:00,
2013-01-19 13:32:00,63.0,39.5,30.26,SW,230,8.3,12.3,42,0.00,,OVC,0.00,VWS V14.00,2013-01-19 18:32:00,
2013-01-19 13:33:00,63.0,39.5,30.26,SW,215,5.4,9.2,42,0.00,,OVC,0.00,VWS V14.00,2013-01-19 18:33:00,
2013-01-19 13:34:00,63.0,38.9,30.26,SW,227,15.0,15.0,41,0.00,,OVC,0.00,VWS V14.00,2013-01-19 18:34:00,
2013-01-19 13:35:00,63.0,38.9,30.27,SW,227,15.9,15.9,41,0.00,,OVC,0.00,VWS V14.00,2013-01-19 18:35:00,
2013-01-19 13:36:00,63.0,38.9,30.26,WSW,254,13.2,15.9,41,0.00,,OVC,0.00,VWS V14.00,2013-01-19 18:36:00,
2013-01-19 13:37:00,63.0,38.9,30.26,SW,216,8.7,13.2,41,0.00,,OVC,0.00,VWS V14.00,2013-01-19 18:37:00,
2013-01-19 13:38:00,63.0,38.9,30.26,SSW,197,6.3,10.1,41,0.00,,OVC,0.00,VWS V14.00,2013-01-19 18:38:00,
2013-01-19 13:39:00,63.1,39.1,30.26,SSW,200,10.1,10.1,41,0.00,,OVC,0.00,VWS V14.00,2013-01-19 18:39:00,
2013-01-19 13:40:00,63.1,39.1,30.26,SW,225,10.1,10.5,41,0.00,,OVC,0.00,VWS V14.00,2013-01-19 18:40:00,
2013-01-19 13:41:00,63.1,39.1,30.27,West,263,11.0,11.0,41,0.00,,OVC,0.00,VWS V14.00,2013-01-19 18:41:00,
2013-01-19 13:42:00,63.3,38.6,30.26,West,260,8.7,11.0,40,0.00,,OVC,0.00,VWS V14.00,2013-01-19 18:42:00,
2013-01-19 13:43:00,63.3,38.6,30.26,WSW,258,11.0,11.0,40,0.00,,OVC,0.00,VWS V14.00,2013-01-19 18:43:00,
2013-01-19 13:44:00,63.5,38.8,30.26,SW,224,15.0,15.0,40,0.00,,OVC,0.00,VWS V14.00,2013-01-19 18:44:00,
2013-01-19 13:45:00,63.5,38.8,30.26,SW,229,8.3,15.0,40,0.00,,OVC,0.00,VWS V14.00,2013-01-19 18:45:00,
2013-01-19 13:46:00,63.7,38.9,30.26,SW,225,11.0,12.3,40,0.00,,OVC,0.00,VWS V14.00,2013-01-19 18:46:00,
2013-01-19 13:47:00,63.9,39.1,30.27,WSW,243,8.7,11.0,40,0.00,,OVC,0.00,VWS V14.00,2013-01-19 18:47:00,
2013-01-19 13:48:00,63.9,39.1,30.26,WSW,247,8.3,11.0,40,0.00,,OVC,0.00,VWS V14.00,2013-01-19 18:48:00,
2013-01-19 13:49:00,64.0,38.6,30.26,SW,216,8.7,11.0,39,0.00,,OVC,0.00,VWS V14.00,2013-01-19 18:49:00,
2013-01-19 13:50:00,64.2,38.8,30.26,SW,215,10.1,13.2,39,0.00,,OVC,0.00,VWS V14.00,2013-01-19 18:50:00,
2013-01-19 13:51:00,64.2,38.8,30.26,SW,235,10.5,12.3,39,0.00,,OVC,0.00,VWS V14.00,2013-01-19 18:51:00,
2013-01-19 13:52:00,64.2,38.8,30.26,SSW,211,7.6,13.2,39,0.00,,OVC,0.00,VWS V14.00,2013-01-19 18:52:00,
2013-01-19 13:53:00,64.2,38.8,30.27,SSW,209,7.6,9.6,39,0.00,,OVC,0.00,VWS V14.00,2013-01-19 18:53:00,
2013-01-19 13:54:00,64.2,38.8,30.26,South,187,7.6,8.3,39,0.00,,OVC,0.00,VWS V14.00,2013-01-19 18:54:00,
2013-01-19 13:55:00,64.2,38.1,30.26,SSW,207,5.8,8.1,38,0.00,,OVC,0.00,VWS V14.00,2013-01-19 18:55:00,
2013-01-19 13:56:00,64.2,38.1,30.26,SSW,204,7.6,8.1,38,0.00,,OVC,0.00,VWS V14.00,2013-01-19 18:56:00,
2013-01-19 13:57:00,64.2,38.1,30.26,SSW,195,8.1,8.1,38,0.00,,OVC,0.00,VWS V14.00,2013-01-19 18:57:00,
2013-01-19 13:58:00,64.2,38.1,30.27,WSW,237,9.6,9.6,38,0.00,,OVC,0.00,VWS V14.00,2013-01-19 18:58:00,
2013-01-19 13:59:00,64.2,38.1,30.26,SW,224,10.5,10.5,38,0.00,,OVC,0.00,VWS V14.00,2013-01-19 18:59:00,
2013-01-19 14:00:00,64.2,38.1,30.26,SW,218,8.3,10.5,38,0.00,,OVC,0.00,VWS V14.00,2013-01-19 19:00:00,
2013-01-19 14:01:00,64.2,38.1,30.26,SSW,212,15.4,15.4,38,0.00,,OVC,0.00,VWS V14.00,2013-01-19 19:01:00,
2013-01-19 14:02:00,64.2,38.1,30.26,SSW,209,9.6,15.4,38,0.00,,OVC,0.00,VWS V14.00,2013-01-19 19:02:00,
2013-01-19 14:03:00,64.2,38.1,30.24,SSW,211,8.1,9.6,38,0.00,,OVC,0.00,VWS V14.00,2013-01-19 19:03:00,
2013-01-19 14:04:00,64.2,38.1,30.24,SSW,200,11.0,11.0,38,0.00,,OVC,0.00,VWS V14.00,2013-01-19 19:04:00,
2013-01-19 14:05:00,64.2,38.1,30.24,SSW,200,8.1,11.0,38,0.00,,OVC,0.00,VWS V14.00,2013-01-19 19:05:00,
2013-01-19 14:06:00,64.2,38.1,30.24,WSW,249,8.1,9.2,38,0.00,,OVC,0.00,VWS V14.00,2013-01-19 19:06:00,
2013-01-19 14:07:00,64.2,38.1,30.24,SSW,204,7.6,12.3,38,0.00,,OVC,0.00,VWS V14.00,2013-01-19 19:07:00,
2013-01-19 14:08:00,64.2,38.1,30.24,WSW,239,5.8,8.7,38,0.00,,OVC,0.00,VWS V14.00,2013-01-19 19:08:00,
2013-01-19 14:09:00,64.4,37.6,30.24,WSW,249,5.4,8.1,37,0.00,,OVC,0.00,VWS V14.00,2013-01-19 19:09:00,
2013-01-19 14:10:00,64.4,37.6,30.24,SSW,209,5.8,5.8,37,0.00,,OVC,0.00,VWS V14.00,2013-01-19 19:10:00,
2013-01-19 14:11:00,64.4,37.6,30.24,WSW,253,8.7,10.5,37,0.00,,OVC,0.00,VWS V14.00,2013-01-19 19:11:00,
2013-01-19 14:12:00,64.4,37.6,30.24,West,267,8.3,8.7,37,0.00,,OVC,0.00,VWS V14.00,2013-01-19 19:12:00,
2013-01-19 14:13:00,64.6,37.8,30.24,West,259,10.1,10.1,37,0.00,,OVC,0.00,VWS V14.00,2013-01-19 19:13:00,
2013-01-19 14:14:00,64.6,37.8,30.24,WSW,246,11.0,11.0,37,0.00,,OVC,0.00,VWS V14.00,2013-01-19 19:14:00,
2013-01-19 14:15:00,64.8,37.9,30.24,WSW,239,8.7,11.0,37,0.00,,OVC,0.00,VWS V14.00,2013-01-19 19:15:00,
2013-01-19 14:16:00,64.8,37.9,30.24,SW,233,8.7,11.0,37,0.00,,OVC,0.00,VWS V14.00,2013-01-19 19:16:00,
2013-01-19 14:17:00,64.8,37.9,30.24,WSW,246,10.5,11.0,37,0.00,,OVC,0.00,VWS V14.00,2013-01-19 19:17:00,
2013-01-19 14:18:00,64.9,38.1,30.24,West,259,10.1,12.8,37,0.00,,OVC,0.00,VWS V14.00,2013-01-19 19:18:00,
2013-01-19 14:19:00,65.1,38.2,30.24,SW,220,10.1,12.3,37,0.00,,OVC,0.00,VWS V14.00,2013-01-19 19:19:00,
2013-01-19 14:20:00,65.1,38.2,30.24,WSW,257,8.1,11.0,37,0.00,,OVC,0.00,VWS V14.00,2013-01-19 19:20:00,
2013-01-19 14:21:00,65.1,38.2,30.24,WSW,258,8.3,10.5,37,0.00,,OVC,0.00,VWS V14.00,2013-01-19 19:21:00,
2013-01-19 14:22:00,65.3,38.4,30.24,SW,221,8.1,10.1,37,0.00,,OVC,0.00,VWS V14.00,2013-01-19 19:22:00,
2013-01-19 14:23:00,65.3,37.7,30.24,West,278,6.3,8.1,36,0.00,,OVC,0.00,VWS V14.00,2013-01-19 19:23:00,
2013-01-19 14:24:00,65.3,37.7,30.24,SW,217,6.3,8.3,36,0.00,,OVC,0.00,VWS V14.00,2013-01-19 19:24:00,
2013-01-19 14:25:00,65.5,37.8,30.24,SSW,195,6.3,7.6,36,0.00,,OVC,0.00,VWS V14.00,2013-01-19 19:25:00,
2013-01-19 14:26:00,65.5,37.8,30.24,SSW,213,8.7,10.1,36,0.00,,OVC,0.00,VWS V14.00,2013-01-19 19:26:00,
2013-01-19 14:27:00,65.5,37.8,30.24,SSW,209,10.5,10.5,36,0.00,,OVC,0.00,VWS V14.00,2013-01-19 19:27:00,
2013-01-19 14:28:00,65.5,37.8,30.24,South,179,11.0,11.0,36,0.00,,OVC,0.00,VWS V14.00,2013-01-19 19:28:00,
2013-01-19 14:29:00,65.7,38.0,30.24,SSW,202,8.7,11.0,36,0.00,,OVC,0.00,VWS V14.00,2013-01-19 19:29:00,
2013-01-19 14:30:00,65.7,38.0,30.24,SW,222,10.5,11.0,36,0.00,,OVC,0.00,VWS V14.00,2013-01-19 19:30:00,
2013-01-19 14:31:00,65.8,38.2,30.24,SSW,194,10.1,12.8,36,0.00,,OVC,0.00,VWS V14.00,2013-01-19 19:31:00,
2013-01-19 14:32:00,65.8,37.5,30.24,South,170,8.1,11.0,35,0.00,,OVC,0.00,VWS V14.00,2013-01-19 19:32:00,
2013-01-19 14:33:00,65.8,37.5,30.24,WSW,239,8.1,8.1,35,0.00,,OVC,0.00,VWS V14.00,2013-01-19 19:33:00,
2013-01-19 14:34:00,66.0,37.6,30.24,SW,225,7.2,10.5,35,0.00,,OVC,0.00,VWS V14.00,2013-01-19 19:34:00,
2013-01-19 14:35:00,66.0,37.6,30.24,SSW,205,8.1,8.3,35,0.00,,OVC,0.00,VWS V14.00,2013-01-19 19:35:00,
2013-01-19 14:36:00,66.0,37.6,30.24,SSW,213,9.6,9.6,35,0.00,,OVC,0.00,VWS V14.00,2013-01-19 19:36:00,
2013-01-19 14:37:00,66.2,37.8,30.24,SW,221,7.6,11.0,35,0.00,,OVC,0.00,VWS V14.00,2013-01-19 19:37:00,
2013-01-19 14:38:00,66.2,37.8,30.24,WSW,240,11.9,12.3,35,0.00,,OVC,0.00,VWS V14.00,2013-01-19 19:38:00,
2013-01-19 14:39:00,66.4,37.9,30.24,West,271,6.3,11.9,35,0.00,,OVC,0.00,VWS V14.00,2013-01-19 19:39:00,
2013-01-19 14:40:00,66.6,38.1,30.24,SW,231,10.1,10.1,35,0.00,,OVC,0.00,VWS V14.00,2013-01-19 19:40:00,
2013-01-19 14:41:00,66.6,38.1,30.24,SSW,212,8.1,10.1,35,0.00,,OVC,0.00,VWS V14.00,2013-01-19 19:41:00,
2013-01-19 14:42:00,66.6,38.1,30.24,SSW,210,10.1,10.1,35,0.00,,OVC,0.00,VWS V14.00,2013-01-19 19:42:00,
2013-01-19 14:43:00,66.6,38.1,30.24,SW,232,13.6,13.6,35,0.00,,OVC,0.00,VWS V14.00,2013-01-19 19:43:00,
2013-01-19 14:44:00,66.7,38.2,30.24,WSW,243,12.8,14.1,35,0.00,,OVC,0.00,VWS V14.00,2013-01-19 19:44:00,
2013-01-19 14:45:00,66.6,37.3,30.24,WSW,238,11.0,12.8,34,0.00,,OVC,0.00,VWS V14.00,2013-01-19 19:45:00,
2013-01-19 14:46:00,66.6,37.3,30.24,SW,231,8.7,11.0,34,0.00,,OVC,0.00,VWS V14.00,2013-01-19 19:46:00,
2013-01-19 14:47:00,66.6,37.3,30.24,SW,221,12.8,12.8,34,0.00,,OVC,0.00,VWS V14.00,2013-01-19 19:47:00,
2013-01-19 14:48:00,66.6,37.3,30.21,SSW,192,10.1,12.8,34,0.00,,OVC,0.00,VWS V14.00,2013-01-19 19:48:00,
2013-01-19 14:49:00,66.6,37.3,30.21,West,259,8.1,10.1,34,0.00,,OVC,0.00,VWS V14.00,2013-01-19 19:49:00,
2013-01-19 14:50:00,66.6,37.3,30.21,SSW,206,8.3,8.7,34,0.00,,OVC,0.00,VWS V14.00,2013-01-19 19:50:00,
2013-01-19 14:51:00,66.6,37.3,30.21,West,261,6.3,8.3,34,0.00,,OVC,0.00,VWS V14.00,2013-01-19 19:51:00,
2013-01-19 14:52:00,66.4,37.2,30.21,WSW,247,8.1,8.3,34,0.00,,OVC,0.00,VWS V14.00,2013-01-19 19:52:00,
2013-01-19 14:53:00,66.4,37.2,30.21,West,265,6.3,8.1,34,0.00,,OVC,0.00,VWS V14.00,2013-01-19 19:53:00,
2013-01-19 14:54:00,66.4,37.2,30.21,SW,232,10.5,13.2,34,0.00,,OVC,0.00,VWS V14.00,2013-01-19 19:54:00,
2013-01-19 14:55:00,66.4,37.2,30.21,SSW,192,8.1,10.5,34,0.00,,OVC,0.00,VWS V14.00,2013-01-19 19:55:00,
2013-01-19 14:56:00,66.4,37.2,30.21,SSW,209,11.4,12.3,34,0.00,,OVC,0.00,VWS V14.00,2013-01-19 19:56:00,
2013-01-19 14:57:00,66.4,36.4,30.21,West,261,6.3,11.4,33,0.00,,OVC,0.00,VWS V14.00,2013-01-19 19:57:00,
2013-01-19 14:58:00,66.4,37.2,30.21,WSW,242,10.5,10.5,34,0.00,,OVC,0.00,VWS V14.00,2013-01-19 19:58:00,
2013-01-19 14:59:00,66.4,37.2,30.21,West,262,11.0,13.2,34,0.00,,OVC,0.00,VWS V14.00,2013-01-19 19:59:00,
2013-01-19 15:00:00,66.6,37.3,30.21,SW,222,12.3,12.3,34,0.00,,OVC,0.00,VWS V14.00,2013-01-19 20:00:00,
2013-01-19 15:01:00,66.6,37.3,30.21,SSW,208,10.5,15.0,34,0.00,,OVC,0.00,VWS V14.00,2013-01-19 20:01:00,
2013-01-19 15:02:00,66.6,37.3,30.21,SW,224,12.8,13.6,34,0.00,,OVC,0.00,VWS V14.00,2013-01-19 20:02:00,
2013-01-19 15:03:00,66.6,37.3,30.21,SSW,209,8.3,12.8,34,0.00,,OVC,0.00,VWS V14.00,2013-01-19 20:03:00,
2013-01-19 15:04:00,66.6,37.3,30.21,WSW,239,8.3,10.5,34,0.00,,OVC,0.00,VWS V14.00,2013-01-19 20:04:00,
2013-01-19 15:05:00,66.6,37.3,30.21,SW,225,10.1,12.8,34,0.00,,OVC,0.00,VWS V14.00,2013-01-19 20:05:00,
2013-01-19 15:06:00,66.6,37.3,30.21,WSW,245,10.5,12.3,34,0.00,,OVC,0.00,VWS V14.00,2013-01-19 20:06:00,
2013-01-19 15:07:00,66.6,37.3,30.21,SW,219,5.8,10.5,34,0.00,,OVC,0.00,VWS V14.00,2013-01-19 20:07:00,
2013-01-19 15:08:00,66.6,37.3,30.21,SSW,205,8.1,8.1,34,0.00,,OVC,0.00,VWS V14.00,2013-01-19 20:08:00,
2013-01-19 15:09:00,66.6,37.3,30.21,SW,234,6.3,10.1,34,0.00,,OVC,0.00,VWS V14.00,2013-01-19 20:09:00,
2013-01-19 15:10:00,66.6,36.6,30.21,SSW,204,8.3,8.3,33,0.00,,OVC,0.00,VWS V14.00,2013-01-19 20:10:00,
2013-01-19 15:11:00,66.6,36.6,30.21,SW,228,7.6,10.1,33,0.00,,OVC,0.00,VWS V14.00,2013-01-19 20:11:00,
2013-01-19 15:12:00,66.6,36.6,30.21,SW,219,6.3,7.6,33,0.00,,OVC,0.00,VWS V14.00,2013-01-19 20:12:00,
2013-01-19 15:13:00,66.4,36.4,30.21,SW,236,13.2,13.2,33,0.00,,OVC,0.00,VWS V14.00,2013-01-19 20:13:00,
2013-01-19 15:14:00,66.4,36.4,30.21,SSW,206,10.5,13.2,33,0.00,,OVC,0.00,VWS V14.00,2013-01-19 20:14:00,
2013-01-19 15:15:00,66.4,36.4,30.21,WSW,239,8.7,10.5,33,0.00,,OVC,0.00,VWS V14.00,2013-01-19 20:15:00,
2013-01-19 15:16:00,66.4,36.4,30.21,SW,219,8.7,10.5,33,0.00,,OVC,0.00,VWS V14.00,2013-01-19 20:16:00,
2013-01-19 15:17:00,66.4,36.4,30.21,WSW,245,8.3,8.7,33,0.00,,OVC,0.00,VWS V14.00,2013-01-19 20:17:00,
2013-01-19 15:18:00,66.4,36.4,30.21,WSW,247,8.3,8.7,33,0.00,,OVC,0.00,VWS V14.00,2013-01-19 20:18:00,
2013-01-19 15:19:00,66.4,36.4,30.21,West,279,7.6,8.7,33,0.00,,OVC,0.00,VWS V14.00,2013-01-19 20:19:00,
2013-01-19 15:20:00,66.4,36.4,30.21,SSW,206,5.8,8.3,33,0.00,,OVC,0.00,VWS V14.00,2013-01-19 20:20:00,
2013-01-19 15:21:00,66.4,36.4,30.21,SSE,167,9.2,10.1,33,0.00,,OVC,0.00,VWS V14.00,2013-01-19 20:21:00,
2013-01-19 15:22:00,66.4,36.4,30.21,SW,222,7.6,9.2,33,0.00,,OVC,0.00,VWS V14.00,2013-01-19 20:22:00,
2013-01-19 15:23:00,66.4,36.4,30.21,SSW,204,8.3,8.3,33,0.00,,OVC,0.00,VWS V14.00,2013-01-19 20:23:00,
2013-01-19 15:24:00,66.4,36.4,30.21,WSW,254,6.3,8.3,33,0.00,,OVC,0.00,VWS V14.00,2013-01-19 20:24:00,
2013-01-19 15:25:00,66.6,36.6,30.21,SSW,194,8.1,8.7,33,0.00,,OVC,0.00,VWS V14.00,2013-01-19 20:25:00,
2013-01-19 15:26:00,66.6,36.6,30.21,SW,215,8.1,10.1,33,0.00,,OVC,0.00,VWS V14.00,2013-01-19 20:26:00,
2013-01-19 15:27:00,66.6,36.6,30.21,SSW,211,6.3,11.0,33,0.00,,OVC,0.00,VWS V14.00,2013-01-19 20:27:00,
2013-01-19 15:28:00,66.6,36.6,30.21,SW,234,8.3,11.0,33,0.00,,OVC,0.00,VWS V14.00,2013-01-19 20:28:00,
2013-01-19 15:29:00,66.6,36.6,30.21,WSW,245,7.6,10.1,33,0.00,,OVC,0.00,VWS V14.00,2013-01-19 20:29:00,
2013-01-19 15:30:00,66.6,36.6,30.21,SSW,208,8.1,8.1,33,0.00,,OVC,0.00,VWS V14.00,2013-01-19 20:30:00,
2013-01-19 15:31:00,66.6,36.6,30.21,West,273,8.1,8.1,33,0.00,,OVC,0.00,VWS V14.00,2013-01-19 20:31:00,
2013-01-19 15:32:00,66.7,36.8,30.21,SSW,212,8.1,10.5,33,0.00,,OVC,0.00,VWS V14.00,2013-01-19 20:32:00,
2013-01-19 15:33:00,66.6,36.6,30.21,SW,217,10.1,13.2,33,0.00,,OVC,0.00,VWS V14.00,2013-01-19 20:33:00,
2013-01-19 15:34:00,66.7,36.8,30.21,SW,227,9.6,11.0,33,0.00,,OVC,0.00,VWS V14.00,2013-01-19 20:34:00,
2013-01-19 15:35:00,66.7,36.8,30.21,WSW,252,8.7,12.3,33,0.00,,OVC,0.00,VWS V14.00,2013-01-19 20:35:00,
2013-01-19 15:36:00,66.7,36.8,30.21,WSW,255,7.6,8.7,33,0.00,,OVC,0.00,VWS V14.00,2013-01-19 20:36:00,
2013-01-19 15:37:00,66.7,36.8,30.21,SW,235,6.3,8.1,33,0.00,,OVC,0.00,VWS V14.00,2013-01-19 20:37:00,
2013-01-19 15:38:00,66.7,36.8,30.21,SW,220,6.3,8.7,33,0.00,,OVC,0.00,VWS V14.00,2013-01-19 20:38:00,
2013-01-19 15:39:00,66.7,36.8,30.21,SSW,201,6.3,8.7,33,0.00,,OVC,0.00,VWS V14.00,2013-01-19 20:39:00,
2013-01-19 15:40:00,66.7,36.8,30.21,South,180,8.1,8.1,33,0.00,,OVC,0.00,VWS V14.00,2013-01-19 20:40:00,
2013-01-19 15:41:00,66.7,36.8,30.21,SSW,198,4.9,8.1,33,0.00,,OVC,0.00,VWS V14.00,2013-01-19 20:41:00,
2013-01-19 15:42:00,66.7,36.8,30.21,SW,221,6.3,6.3,33,0.00,,OVC,0.00,VWS V14.00,2013-01-19 20:42:00,
2013-01-19 15:43:00,66.7,36.8,30.21,SW,228,7.6,7.6,33,0.00,,OVC,0.00,VWS V14.00,2013-01-19 20:43:00,
2013-01-19 15:44:00,66.7,36.8,30.21,SW,221,8.3,9.2,33,0.00,,OVC,0.00,VWS V14.00,2013-01-19 20:44:00,
2013-01-19 15:45:00,66.7,36.8,30.21,SW,218,7.6,8.3,33,0.00,,OVC,0.00,VWS V14.00,2013-01-19 20:45:00,
2013-01-19 15:46:00,66.7,36.8,30.21,SW,220,6.3,8.3,33,0.00,,OVC,0.00,VWS V14.00,2013-01-19 20:46:00,
2013-01-19 15:47:00,66.7,36.8,30.21,SSW,205,5.8,6.3,33,0.00,,OVC,0.00,VWS V14.00,2013-01-19 20:47:00,
2013-01-19 15:48:00,66.7,36.8,30.21,SSW,207,10.1,10.1,33,0.00,,OVC,0.00,VWS V14.00,2013-01-19 20:48:00,
2013-01-19 15:49:00,66.7,36.8,30.21,SW,229,6.3,10.5,33,0.00,,OVC,0.00,VWS V14.00,2013-01-19 20:49:00,
2013-01-19 15:50:00,66.7,36.8,30.21,WSW,251,5.8,6.3,33,0.00,,OVC,0.00,VWS V14.00,2013-01-19 20:50:00,
2013-01-19 15:51:00,66.7,36.8,30.21,WSW,240,5.4,6.3,33,0.00,,OVC,0.00,VWS V14.00,2013-01-19 20:51:00,
2013-01-19 15:52:00,66.7,36.8,30.21,SW,223,5.8,6.3,33,0.00,,OVC,0.00,VWS V14.00,2013-01-19 20:52:00,
2013-01-19 15:53:00,66.7,36.8,30.21,SW,236,10.5,10.5,33,0.00,,OVC,0.00,VWS V14.00,2013-01-19 20:53:00,
2013-01-19 15:54:00,66.7,36.8,30.21,SSW,194,7.6,10.5,33,0.00,,OVC,0.00,VWS V14.00,2013-01-19 20:54:00,
2013-01-19 15:55:00,66.7,36.8,30.21,WSW,244,8.1,10.1,33,0.00,,OVC,0.00,VWS V14.00,2013-01-19 20:55:00,
2013-01-19 15:56:00,66.9,36.9,30.21,SSW,205,5.8,10.5,33,0.00,,OVC,0.00,VWS V14.00,2013-01-19 20:56:00,
2013-01-19 15:57:00,66.9,36.9,30.21,SSW,198,3.6,5.8,33,0.00,,OVC,0.00,VWS V14.00,2013-01-19 20:57:00,
2013-01-19 15:58:00,66.9,36.9,30.21,SW,232,4.5,6.3,33,0.00,,OVC,0.00,VWS V14.00,2013-01-19 20:58:00,
2013-01-19 15:59:00,67.1,37.1,30.21,SW,232,6.3,7.6,33,0.00,,OVC,0.00,VWS V14.00,2013-01-19 20:59:00,
2013-01-19 16:00:00,67.1,37.1,30.21,SW,214,8.3,8.3,33,0.00,,OVC,0.00,VWS V14.00,2013-01-19 21:00:00,
2013-01-19 16:01:00,67.1,37.1,30.21,SSW,201,8.3,11.9,33,0.00,,OVC,0.00,VWS V14.00,2013-01-19 21:01:00,
2013-01-19 16:02:00,67.3,37.2,30.21,SSW,203,7.6,8.3,33,0.00,,OVC,0.00,VWS V14.00,2013-01-19 21:02:00,
2013-01-19 16:03:00,67.3,37.2,30.21,South,185,5.8,8.1,33,0.00,,OVC,0.00,VWS V14.00,2013-01-19 21:03:00,
2013-01-19 16:04:00,67.5,37.4,30.21,SW,222,6.3,8.1,33,0.00,,OVC,0.00,VWS V14.00,2013-01-19 21:04:00,
2013-01-19 16:05:00,67.5,37.4,30.21,South,183,8.3,8.7,33,0.00,,OVC,0.00,VWS V14.00,2013-01-19 21:05:00,
2013-01-19 16:06:00,67.6,37.5,30.21,SSE,163,8.7,8.7,33,0.00,,OVC,0.00,VWS V14.00,2013-01-19 21:06:00,
2013-01-19 16:07:00,67.6,37.5,30.21,SSW,203,3.1,8.7,33,0.00,,OVC,0.00,VWS V14.00,2013-01-19 21:07:00,
2013-01-19 16:08:00,67.6,37.5,30.21,SW,221,5.8,5.8,33,0.00,,OVC,0.00,VWS V14.00,2013-01-19 21:08:00,
2013-01-19 16:09:00,67.8,37.7,30.21,SW,228,8.7,8.7,33,0.00,,OVC,0.00,VWS V14.00,2013-01-19 21:09:00,
2013-01-19 16:10:00,67.8,37.7,30.21,SSW,212,8.7,11.0,33,0.00,,OVC,0.00,VWS V14.00,2013-01-19 21:10:00,
2013-01-19 16:11:00,67.8,37.7,30.21,SSW,207,8.1,11.0,33,0.00,,OVC,0.00,VWS V14.00,2013-01-19 21:11:00,
2013-01-19 16:12:00,67.8,37.7,30.21,WSW,237,5.8,8.7,33,0.00,,OVC,0.00,VWS V14.00,2013-01-19 21:12:00,
2013-01-19 16:13:00,68.0,37.8,30.21,SSW,206,10.1,11.0,33,0.00,,OVC,0.00,VWS V14.00,2013-01-19 21:13:00,
2013-01-19 16:14:00,68.0,37.8,30.21,SW,223,5.8,10.1,33,0.00,,OVC,0.00,VWS V14.00,2013-01-19 21:14:00,
2013-01-19 16:15:00,68.0,37.8,30.21,SSW,198,5.4,5.8,33,0.00,,OVC,0.00,VWS V14.00,2013-01-19 21:15:00,
2013-01-19 16:16:00,68.0,37.8,30.21,SW,215,8.7,10.1,33,0.00,,OVC,0.00,VWS V14.00,2013-01-19 21:16:00,
2013-01-19 16:17:00,68.2,38.0,30.21,WSW,251,5.4,10.1,33,0.00,,OVC,0.00,VWS V14.00,2013-01-19 21:17:00,
2013-01-19 16:18:00,68.2,38.0,30.18,South,169,6.3,8.7,33,0.00,,OVC,0.00,VWS V14.00,2013-01-19 21:18:00,
2013-01-19 16:19:00,68.2,37.2,30.18,South,189,15.4,15.4,32,0.00,,OVC,0.00,VWS V14.00,2013-01-19 21:19:00,
2013-01-19 16:20:00,68.4,37.4,30.18,SW,229,11.0,15.4,32,0.00,,OVC,0.00,VWS V14.00,2013-01-19 21:20:00,
2013-01-19 16:21:00,68.4,37.4,30.18,SW,231,8.3,13.2,32,0.00,,OVC,0.00,VWS V14.00,2013-01-19 21:21:00,
2013-01-19 16:22:00,68.4,37.4,30.18,SW,221,7.6,9.2,32,0.00,,OVC,0.00,VWS V14.00,2013-01-19 21:22:00,
2013-01-19 16:23:00,68.5,37.5,30.18,SSW,204,10.1,10.1,32,0.00,,OVC,0.00,VWS V14.00,2013-01-19 21:23:00,
2013-01-19 16:24:00,68.5,37.5,30.18,SSW,203,4.9,11.0,32,0.00,,OVC,0.00,VWS V14.00,2013-01-19 21:24:00,
2013-01-19 16:25:00,68.5,37.5,30.18,SW,232,7.6,8.3,32,0.00,,OVC,0.00,VWS V14.00,2013-01-19 21:25:00,
2013-01-19 16:26:00,68.7,37.7,30.18,SSW,202,6.3,10.5,32,0.00,,OVC,0.00,VWS V14.00,2013-01-19 21:26:00,
2013-01-19 16:27:00,68.7,37.7,30.18,SSW,213,8.7,8.7,32,0.00,,OVC,0.00,VWS V14.00,2013-01-19 21:27:00,
2013-01-19 16:28:00,68.7,37.7,30.18,SW,232,6.3,10.5,32,0.00,,OVC,0.00,VWS V14.00,2013-01-19 21:28:00,
2013-01-19 16:29:00,68.7,37.7,30.18,WSW,237,6.3,8.7,32,0.00,,OVC,0.00,VWS V14.00,2013-01-19 21:29:00,
2013-01-19 16:30:00,68.9,37.8,30.18,WSW,239,5.4,8.7,32,0.00,,OVC,0.00,VWS V14.00,2013-01-19 21:30:00,
2013-01-19 16:31:00,68.9,37.8,30.18,SW,221,2.7,6.3,32,0.00,,OVC,0.00,VWS V14.00,2013-01-19 21:31:00,
2013-01-19 16:32:00,68.9,37.8,30.18,WSW,248,6.3,6.3,32,0.00,,OVC,0.00,VWS V14.00,2013-01-19 21:32:00,
2013-01-19 16:33:00,68.9,37.0,30.18,WSW,246,4.9,6.3,31,0.00,,OVC,0.00,VWS V14.00,2013-01-19 21:33:00,
2013-01-19 16:34:00,68.9,37.0,30.18,SW,225,6.3,6.3,31,0.00,,OVC,0.00,VWS V14.00,2013-01-19 21:34:00,
2013-01-19 16:35:00,68.9,37.8,30.18,SSW,204,8.3,9.6,32,0.00,,OVC,0.00,VWS V14.00,2013-01-19 21:35:00,
2013-01-19 16:36:00,68.9,37.8,30.18,South,180,8.1,8.3,32,0.00,,OVC,0.00,VWS V14.00,2013-01-19 21:36:00,
2013-01-19 16:37:00,68.9,37.8,30.18,SW,231,4.9,8.1,32,0.00,,OVC,0.00,VWS V14.00,2013-01-19 21:37:00,
2013-01-19 16:38:00,69.1,38.0,30.18,South,185,6.7,8.7,32,0.00,,OVC,0.00,VWS V14.00,2013-01-19 21:38:00,
2013-01-19 16:39:00,69.1,38.0,30.18,WSW,244,6.3,7.6,32,0.00,,OVC,0.00,VWS V14.00,2013-01-19 21:39:00,
2013-01-19 16:40:00,69.1,38.0,30.18,South,181,7.6,8.3,32,0.00,,OVC,0.00,VWS V14.00,2013-01-19 21:40:00,
2013-01-19 16:41:00,69.1,38.0,30.18,South,178,8.1,8.3,32,0.00,,OVC,0.00,VWS V14.00,2013-01-19 21:41:00,
2013-01-19 16:42:00,69.1,38.0,30.18,SW,220,11.0,11.0,32,0.00,,OVC,0.00,VWS V14.00,2013-01-19 21:42:00,
2013-01-19 16:43:00,69.1,38.0,30.18,SSW,194,12.3,12.8,32,0.00,,OVC,0.00,VWS V14.00,2013-01-19 21:43:00,
2013-01-19 16:44:00,69.1,38.0,30.18,SSW,205,7.2,12.3,32,0.00,,OVC,0.00,VWS V14.00,2013-01-19 21:44:00,
2013-01-19 16:45:00,69.1,38.0,30.18,South,173,10.5,12.8,32,0.00,,OVC,0.00,VWS V14.00,2013-01-19 21:45:00,
2013-01-19 16:46:00,69.1,38.0,30.18,South,183,10.5,12.3,32,0.00,,OVC,0.00,VWS V14.00,2013-01-19 21:46:00,
2013-01-19 16:47:00,69.1,38.0,30.18,South,181,8.3,10.5,32,0.00,,OVC,0.00,VWS V14.00,2013-01-19 21:47:00,
2013-01-19 16:48:00,69.1,38.0,30.18,SW,218,7.6,8.3,32,0.00,,OVC,0.00,VWS V14.00,2013-01-19 21:48:00,
2013-01-19 16:49:00,69.1,38.0,30.18,SSW,203,6.3,9.2,32,0.00,,OVC,0.00,VWS V14.00,2013-01-19 21:49:00,
2013-01-19 16:50:00,69.1,38.0,30.18,SSW,196,7.6,9.2,32,0.00,,OVC,0.00,VWS V14.00,2013-01-19 21:50:00,
2013-01-19 16:51:00,69.1,38.0,30.18,South,178,8.3,10.1,32,0.00,,OVC,0.00,VWS V14.00,2013-01-19 21:51:00,
2013-01-19 16:52:00,68.9,37.8,30.18,South,171,8.1,11.0,32,0.00,,OVC,0.00,VWS V14.00,2013-01-19 21:52:00,
2013-01-19 16:53:00,68.9,37.8,30.18,SSW,192,10.1,13.2,32,0.00,,OVC,0.00,VWS V14.00,2013-01-19 21:53:00,
2013-01-19 16:54:00,68.9,37.0,30.18,SSW,203,7.6,10.5,31,0.00,,OVC,0.00,VWS V14.00,2013-01-19 21:54:00,
2013-01-19 16:55:00,68.7,36.9,30.18,South,183,8.1,8.1,31,0.00,,OVC,0.00,VWS V14.00,2013-01-19 21:55:00,
2013-01-19 16:56:00,68.7,36.9,30.18,SSW,209,8.1,8.3,31,0.00,,OVC,0.00,VWS V14.00,2013-01-19 21:56:00,
2013-01-19 16:57:00,68.7,36.9,30.18,SSW,212,10.1,11.9,31,0.00,,OVC,0.00,VWS V14.00,2013-01-19 21:57:00,
2013-01-19 16:58:00,68.5,36.7,30.18,SSW,206,10.5,11.0,31,0.00,,OVC,0.00,VWS V14.00,2013-01-19 21:58:00,
2013-01-19 16:59:00,68.5,36.7,30.18,SW,227,8.1,10.5,31,0.00,,OVC,0.00,VWS V14.00,2013-01-19 21:59:00,
2013-01-19 17:00:00,68.4,36.6,30.18,SSW,197,8.1,8.1,31,0.00,,OVC,0.00,VWS V14.00,2013-01-19 22:00:00,
2013-01-19 17:01:00,68.4,36.6,30.18,SW,216,6.3,8.1,31,0.00,,OVC,0.00,VWS V14.00,2013-01-19 22:01:00,
2013-01-19 17:02:00,68.2,36.4,30.18,SW,223,6.3,6.3,31,0.00,,OVC,0.00,VWS V14.00,2013-01-19 22:02:00,
2013-01-19 17:03:00,68.2,36.4,30.18,SSW,197,8.7,8.7,31,0.00,,OVC,0.00,VWS V14.00,2013-01-19 22:03:00,
2013-01-19 17:04:00,68.2,36.4,30.18,SSW,195,8.1,8.7,31,0.00,,OVC,0.00,VWS V14.00,2013-01-19 22:04:00,
2013-01-19 17:05:00,68.0,36.3,30.18,SSW,192,11.0,11.0,31,0.00,,OVC,0.00,VWS V14.00,2013-01-19 22:05:00,
2013-01-19 17:06:00,68.0,36.3,30.18,SW,229,7.6,11.0,31,0.00,,OVC,0.00,VWS V14.00,2013-01-19 22:06:00,
2013-01-19 17:07:00,68.0,36.3,30.18,SSW,213,9.2,12.8,31,0.00,,OVC,0.00,VWS V14.00,2013-01-19 22:07:00,
2013-01-19 17:08:00,67.8,36.1,30.18,SSW,204,8.1,10.5,31,0.00,,OVC,0.00,VWS V14.00,2013-01-19 22:08:00,
2013-01-19 17:09:00,67.8,36.1,30.18,SSW,208,7.6,11.0,31,0.00,,OVC,0.00,VWS V14.00,2013-01-19 22:09:00,
2013-01-19 17:10:00,67.8,36.1,30.18,South,182,10.5,10.5,31,0.00,,OVC,0.00,VWS V14.00,2013-01-19 22:10:00,
2013-01-19 17:11:00,67.8,36.1,30.18,SW,214,10.1,11.0,31,0.00,,OVC,0.00,VWS V14.00,2013-01-19 22:11:00,
2013-01-19 17:12:00,67.6,36.0,30.18,South,173,10.1,10.1,31,0.00,,OVC,0.00,VWS V14.00,2013-01-19 22:12:00,
2013-01-19 17:13:00,67.6,36.0,30.18,South,185,8.7,12.8,31,0.00,,OVC,0.00,VWS V14.00,2013-01-19 22:13:00,
2013-01-19 17:14:00,67.5,35.8,30.18,SSW,211,8.1,11.0,31,0.00,,OVC,0.00,VWS V14.00,2013-01-19 22:14:00,
2013-01-19 17:15:00,67.5,35.8,30.18,SSW,207,9.2,11.0,31,0.00,,OVC,0.00,VWS V14.00,2013-01-19 22:15:00,
2013-01-19 17:16:00,67.3,35.6,30.18,SSW,212,8.7,10.1,31,0.00,,OVC,0.00,VWS V14.00,2013-01-19 22:16:00,
2013-01-19 17:17:00,67.3,35.6,30.18,SSW,211,8.1,12.3,31,0.00,,OVC,0.00,VWS V14.00,2013-01-19 22:17:00,
2013-01-19 17:18:00,67.3,34.8,30.18,SW,214,8.1,9.2,30,0.00,,OVC,0.00,VWS V14.00,2013-01-19 22:18:00,
2013-01-19 17:19:00,67.1,34.7,30.18,SW,225,8.7,10.1,30,0.00,,OVC,0.00,VWS V14.00,2013-01-19 22:19:00,
2013-01-19 17:20:00,67.1,34.7,30.18,SSW,195,10.1,10.1,30,0.00,,OVC,0.00,VWS V14.00,2013-01-19 22:20:00,
2013-01-19 17:21:00,66.9,34.5,30.18,SSW,200,7.6,10.1,30,0.00,,OVC,0.00,VWS V14.00,2013-01-19 22:21:00,
2013-01-19 17:22:00,66.9,34.5,30.18,SSW,200,7.6,8.7,30,0.00,,OVC,0.00,VWS V14.00,2013-01-19 22:22:00,
2013-01-19 17:23:00,66.7,34.3,30.18,SSW,199,6.3,8.1,30,0.00,,OVC,0.00,VWS V14.00,2013-01-19 22:23:00,
2013-01-19 17:24:00,66.7,34.3,30.18,South,191,5.8,6.3,30,0.00,,OVC,0.00,VWS V14.00,2013-01-19 22:24:00,
2013-01-19 17:25:00,66.7,34.3,30.18,SSW,209,5.8,6.3,30,0.00,,OVC,0.00,VWS V14.00,2013-01-19 22:25:00,
2013-01-19 17:26:00,66.7,34.3,30.18,SW,219,8.1,8.3,30,0.00,,OVC,0.00,VWS V14.00,2013-01-19 22:26:00,
2013-01-19 17:27:00,66.7,34.3,30.18,SSW,205,7.6,11.0,30,0.00,,OVC,0.00,VWS V14.00,2013-01-19 22:27:00,
2013-01-19 17:28:00,66.7,34.3,30.18,SSW,200,8.1,8.7,30,0.00,,OVC,0.00,VWS V14.00,2013-01-19 22:28:00,
2013-01-19 17:29:00,66.6,34.2,30.18,SW,220,8.1,8.1,30,0.00,,OVC,0.00,VWS V14.00,2013-01-19 22:29:00,
2013-01-19 17:30:00,66.6,34.2,30.18,SW,216,5.8,8.1,30,0.00,,OVC,0.00,VWS V14.00,2013-01-19 22:30:00,
2013-01-19 17:31:00,66.6,34.2,30.18,SW,215,5.8,9.2,30,0.00,,OVC,0.00,VWS V14.00,2013-01-19 22:31:00,
2013-01-19 17:32:00,66.6,34.2,30.18,South,185,8.7,10.5,30,0.00,,OVC,0.00,VWS V14.00,2013-01-19 22:32:00,
2013-01-19 17:33:00,66.6,34.2,30.18,SSW,209,8.3,8.7,30,0.00,,OVC,0.00,VWS V14.00,2013-01-19 22:33:00,
2013-01-19 17:34:00,66.6,34.2,30.18,SSW,198,7.6,8.3,30,0.00,,OVC,0.00,VWS V14.00,2013-01-19 22:34:00,
2013-01-19 17:35:00,66.6,34.2,30.18,South,178,9.6,9.6,30,0.00,,OVC,0.00,VWS V14.00,2013-01-19 22:35:00,
2013-01-19 17:36:00,66.4,34.0,30.18,South,187,7.2,10.1,30,0.00,,OVC,0.00,VWS V14.00,2013-01-19 22:36:00,
2013-01-19 17:37:00,66.4,34.0,30.18,SSW,197,5.4,7.6,30,0.00,,OVC,0.00,VWS V14.00,2013-01-19 22:37:00,
2013-01-19 17:38:00,66.4,34.0,30.18,SSW,208,8.7,8.7,30,0.00,,OVC,0.00,VWS V14.00,2013-01-19 22:38:00,
2013-01-19 17:39:00,66.4,34.9,30.18,SSW,213,12.8,12.8,31,0.00,,OVC,0.00,VWS V14.00,2013-01-19 22:39:00,
2013-01-19 17:40:00,66.4,34.9,30.18,SSW,199,8.1,12.8,31,0.00,,OVC,0.00,VWS V14.00,2013-01-19 22:40:00,
2013-01-19 17:41:00,66.4,34.9,30.18,South,188,11.0,11.0,31,0.00,,OVC,0.00,VWS V14.00,2013-01-19 22:41:00,
2013-01-19 17:42:00,66.4,34.9,30.18,SSW,202,8.3,11.0,31,0.00,,OVC,0.00,VWS V14.00,2013-01-19 22:42:00,
2013-01-19 17:43:00,66.2,34.7,30.18,South,183,5.4,8.3,31,0.00,,OVC,0.00,VWS V14.00,2013-01-19 22:43:00,
2013-01-19 17:44:00,66.2,34.7,30.18,SW,219,8.1,8.7,31,0.00,,OVC,0.00,VWS V14.00,2013-01-19 22:44:00,
2013-01-19 17:45:00,66.2,34.7,30.18,SSW,204,7.6,8.1,31,0.00,,OVC,0.00,VWS V14.00,2013-01-19 22:45:00,
2013-01-19 17:46:00,66.2,34.7,30.18,South,173,8.1,9.6,31,0.00,,OVC,0.00,VWS V14.00,2013-01-19 22:46:00,
2013-01-19 17:47:00,66.2,34.7,30.18,South,190,7.6,10.1,31,0.00,,OVC,0.00,VWS V14.00,2013-01-19 22:47:00,
2013-01-19 17:48:00,66.2,34.7,30.18,SSW,201,5.8,7.6,31,0.00,,OVC,0.00,VWS V14.00,2013-01-19 22:48:00,
2013-01-19 17:49:00,66.0,34.5,30.18,South,188,6.3,6.3,31,0.00,,OVC,0.00,VWS V14.00,2013-01-19 22:49:00,
2013-01-19 17:50:00,66.0,35.3,30.18,SSE,165,8.3,8.3,32,0.00,,OVC,0.00,VWS V14.00,2013-01-19 22:50:00,
2013-01-19 17:51:00,66.0,35.3,30.18,South,187,8.3,8.3,32,0.00,,OVC,0.00,VWS V14.00,2013-01-19 22:51:00,
2013-01-19 17:52:00,66.0,35.3,30.18,South,186,8.7,8.7,32,0.00,,OVC,0.00,VWS V14.00,2013-01-19 22:52:00,
2013-01-19 17:53:00,66.0,35.3,30.18,SSW,193,5.4,8.7,32,0.00,,OVC,0.00,VWS V14.00,2013-01-19 22:53:00,
2013-01-19 17:54:00,65.8,35.2,30.18,SSW,194,5.8,6.3,32,0.00,,OVC,0.00,VWS V14.00,2013-01-19 22:54:00,
2013-01-19 17:55:00,65.8,35.2,30.18,South,175,6.3,8.1,32,0.00,,OVC,0.00,VWS V14.00,2013-01-19 22:55:00,
2013-01-19 17:56:00,65.8,35.2,30.18,South,179,5.8,6.3,32,0.00,,OVC,0.00,VWS V14.00,2013-01-19 22:56:00,
2013-01-19 17:57:00,65.8,35.2,30.18,South,177,6.3,10.1,32,0.00,,OVC,0.00,VWS V14.00,2013-01-19 22:57:00,
2013-01-19 17:58:00,65.7,35.0,30.18,SSW,193,7.2,7.2,32,0.00,,OVC,0.00,VWS V14.00,2013-01-19 22:58:00,
2013-01-19 17:59:00,65.7,35.0,30.18,South,180,8.1,8.1,32,0.00,,OVC,0.00,VWS V14.00,2013-01-19 22:59:00,
2013-01-19 18:00:00,65.7,35.0,30.18,SSW,197,6.3,8.3,32,0.00,,OVC,0.00,VWS V14.00,2013-01-19 23:00:00,
2013-01-19 18:01:00,65.7,35.0,30.18,South,187,7.2,7.2,32,0.00,,OVC,0.00,VWS V14.00,2013-01-19 23:01:00,
2013-01-19 18:02:00,65.5,34.9,30.18,South,186,7.2,8.1,32,0.00,,OVC,0.00,VWS V14.00,2013-01-19 23:02:00,
2013-01-19 18:03:00,65.5,34.9,30.18,SSE,168,8.7,8.7,32,0.00,,OVC,0.00,VWS V14.00,2013-01-19 23:03:00,
2013-01-19 18:04:00,65.5,35.6,30.18,South,171,6.3,8.7,33,0.00,,OVC,0.00,VWS V14.00,2013-01-19 23:04:00,
2013-01-19 18:05:00,65.5,35.6,30.18,South,185,6.3,9.2,33,0.00,,OVC,0.00,VWS V14.00,2013-01-19 23:05:00,
2013-01-19 18:06:00,65.3,35.5,30.18,South,180,4.9,6.3,33,0.00,,OVC,0.00,VWS V14.00,2013-01-19 23:06:00,
2013-01-19 18:07:00,65.3,35.5,30.18,SSW,197,5.4,5.4,33,0.00,,OVC,0.00,VWS V14.00,2013-01-19 23:07:00,
2013-01-19 18:08:00,65.1,35.3,30.18,SSW,209,7.6,8.1,33,0.00,,OVC,0.00,VWS V14.00,2013-01-19 23:08:00,
2013-01-19 18:09:00,65.1,35.3,30.18,SW,218,8.1,8.1,33,0.00,,OVC,0.00,VWS V14.00,2013-01-19 23:09:00,
2013-01-19 18:10:00,65.1,35.3,30.18,SSW,202,4.5,8.1,33,0.00,,OVC,0.00,VWS V14.00,2013-01-19 23:10:00,
2013-01-19 18:11:00,65.1,35.3,30.18,South,175,5.8,6.3,33,0.00,,OVC,0.00,VWS V14.00,2013-01-19 23:11:00,
2013-01-19 18:12:00,65.1,35.3,30.18,South,186,4.9,7.6,33,0.00,,OVC,0.00,VWS V14.00,2013-01-19 23:12:00,
2013-01-19 18:13:00,64.9,35.2,30.18,SSW,206,5.8,5.8,33,0.00,,OVC,0.00,VWS V14.00,2013-01-19 23:13:00,
2013-01-19 18:14:00,64.9,35.2,30.18,South,188,4.0,5.8,33,0.00,,OVC,0.00,VWS V14.00,2013-01-19 23:14:00,
2013-01-19 18:15:00,64.8,35.0,30.18,SSW,196,5.8,5.8,33,0.00,,OVC,0.00,VWS V14.00,2013-01-19 23:15:00,
2013-01-19 18:16:00,64.8,35.0,30.18,SSW,193,5.8,6.3,33,0.00,,OVC,0.00,VWS V14.00,2013-01-19 23:16:00,
2013-01-19 18:17:00,64.8,35.0,30.18,SSW,194,5.4,6.7,33,0.00,,OVC,0.00,VWS V14.00,2013-01-19 23:17:00,
2013-01-19 18:18:00,64.8,35.0,30.18,SSW,205,5.4,5.8,33,0.00,,OVC,0.00,VWS V14.00,2013-01-19 23:18:00,
2013-01-19 18:19:00,64.6,34.8,30.18,South,189,5.8,7.6,33,0.00,,OVC,0.00,VWS V14.00,2013-01-19 23:19:00,
2013-01-19 18:20:00,64.6,34.8,30.18,South,188,5.4,6.3,33,0.00,,OVC,0.00,VWS V14.00,2013-01-19 23:20:00,
2013-01-19 18:21:00,64.4,34.7,30.18,South,186,7.6,7.6,33,0.00,,OVC,0.00,VWS V14.00,2013-01-19 23:21:00,
2013-01-19 18:22:00,64.4,34.7,30.18,South,169,6.3,8.1,33,0.00,,OVC,0.00,VWS V14.00,2013-01-19 23:22:00,
2013-01-19 18:23:00,64.4,34.7,30.18,SW,215,8.1,10.5,33,0.00,,OVC,0.00,VWS V14.00,2013-01-19 23:23:00,
2013-01-19 18:24:00,64.2,34.5,30.18,SSW,199,5.4,8.3,33,0.00,,OVC,0.00,VWS V14.00,2013-01-19 23:24:00,
2013-01-19 18:25:00,64.2,34.5,30.18,SW,222,5.4,5.8,33,0.00,,OVC,0.00,VWS V14.00,2013-01-19 23:25:00,
2013-01-19 18:26:00,64.2,34.5,30.18,SSW,212,5.4,5.4,33,0.00,,OVC,0.00,VWS V14.00,2013-01-19 23:26:00,
2013-01-19 18:27:00,64.0,34.4,30.18,SW,219,5.8,6.3,33,0.00,,OVC,0.00,VWS V14.00,2013-01-19 23:27:00,
2013-01-19 18:28:00,64.0,34.4,30.18,SW,222,6.3,6.3,33,0.00,,OVC,0.00,VWS V14.00,2013-01-19 23:28:00,
2013-01-19 18:29:00,63.9,34.2,30.18,WSW,251,6.3,8.1,33,0.00,,OVC,0.00,VWS V14.00,2013-01-19 23:29:00,
2013-01-19 18:30:00,63.9,34.2,30.18,SSW,210,5.8,7.6,33,0.00,,OVC,0.00,VWS V14.00,2013-01-19 23:30:00,
2013-01-19 18:31:00,63.9,34.2,30.18,SW,220,5.4,6.3,33,0.00,,OVC,0.00,VWS V14.00,2013-01-19 23:31:00,
2013-01-19 18:32:00,63.7,34.1,30.18,WSW,237,6.3,6.3,33,0.00,,OVC,0.00,VWS V14.00,2013-01-19 23:32:00,
2013-01-19 18:33:00,63.7,34.1,30.18,SW,214,7.6,8.3,33,0.00,,OVC,0.00,VWS V14.00,2013-01-19 23:33:00,
2013-01-19 18:34:00,63.7,34.1,30.18,WSW,246,8.3,8.3,33,0.00,,OVC,0.00,VWS V14.00,2013-01-19 23:34:00,
2013-01-19 18:35:00,63.5,33.9,30.18,SW,222,4.9,8.3,33,0.00,,OVC,0.00,VWS V14.00,2013-01-19 23:35:00,
2013-01-19 18:36:00,63.5,33.9,30.18,WSW,237,5.4,5.4,33,0.00,,OVC,0.00,VWS V14.00,2013-01-19 23:36:00,
2013-01-19 18:37:00,63.3,33.8,30.18,SW,225,5.4,5.4,33,0.00,,OVC,0.00,VWS V14.00,2013-01-19 23:37:00,
2013-01-19 18:38:00,63.3,33.8,30.18,SW,215,4.0,6.3,33,0.00,,OVC,0.00,VWS V14.00,2013-01-19 23:38:00,
2013-01-19 18:39:00,63.1,33.6,30.18,SW,220,4.0,4.9,33,0.00,,OVC,0.00,VWS V14.00,2013-01-19 23:39:00,
2013-01-19 18:40:00,63.1,33.6,30.18,SW,219,4.0,4.0,33,0.00,,OVC,0.00,VWS V14.00,2013-01-19 23:40:00,
2013-01-19 18:41:00,63.1,33.6,30.18,SSW,212,4.0,5.8,33,0.00,,OVC,0.00,VWS V14.00,2013-01-19 23:41:00,
2013-01-19 18:42:00,63.0,33.4,30.18,SSW,213,4.9,4.9,33,0.00,,OVC,0.00,VWS V14.00,2013-01-19 23:42:00,
2013-01-19 18:43:00,63.0,33.4,30.18,SW,214,3.6,4.9,33,0.00,,OVC,0.00,VWS V14.00,2013-01-19 23:43:00,
2013-01-19 18:44:00,62.8,33.3,30.18,SSW,210,5.4,5.4,33,0.00,,OVC,0.00,VWS V14.00,2013-01-19 23:44:00,
2013-01-19 18:45:00,62.8,33.3,30.18,SSW,210,3.6,5.4,33,0.00,,OVC,0.00,VWS V14.00,2013-01-19 23:45:00,
2013-01-19 18:46:00,62.6,33.1,30.18,SSW,204,3.1,4.0,33,0.00,,OVC,0.00,VWS V14.00,2013-01-19 23:46:00,
2013-01-19 18:47:00,62.6,33.1,30.18,SSW,203,3.1,3.1,33,0.00,,OVC,0.00,VWS V14.00,2013-01-19 23:47:00,
2013-01-19 18:48:00,62.4,33.7,30.21,SSW,203,3.6,3.6,34,0.00,,OVC,0.00,VWS V14.00,2013-01-19 23:48:00,
2013-01-19 18:49:00,62.4,33.7,30.21,SSW,203,3.6,4.0,34,0.00,,OVC,0.00,VWS V14.00,2013-01-19 23:49:00,
2013-01-19 18:50:00,62.2,33.5,30.21,SSW,204,4.0,4.0,34,0.00,,OVC,0.00,VWS V14.00,2013-01-19 23:50:00,
2013-01-19 18:51:00,62.1,33.4,30.21,SSW,204,3.1,4.0,34,0.00,,OVC,0.00,VWS V14.00,2013-01-19 23:51:00,
2013-01-19 18:52:00,62.1,33.4,30.21,SSW,204,3.1,3.6,34,0.00,,OVC,0.00,VWS V14.00,2013-01-19 23:52:00,
2013-01-19 18:53:00,61.9,33.2,30.21,SSW,204,3.1,3.6,34,0.00,,OVC,0.00,VWS V14.00,2013-01-19 23:53:00,
2013-01-19 18:54:00,61.7,33.1,30.21,SSW,204,2.7,3.1,34,0.00,,OVC,0.00,VWS V14.00,2013-01-19 23:54:00,
2013-01-19 18:55:00,61.7,33.1,30.21,SSW,204,2.7,3.1,34,0.00,,OVC,0.00,VWS V14.00,2013-01-19 23:55:00,
2013-01-19 18:56:00,61.5,32.9,30.21,SSW,204,2.2,2.7,34,0.00,,OVC,0.00,VWS V14.00,2013-01-19 23:56:00,
2013-01-19 18:57:00,61.5,32.9,30.21,SSW,204,2.2,2.2,34,0.00,,OVC,0.00,VWS V14.00,2013-01-19 23:57:00,
2013-01-19 18:58:00,61.3,32.8,30.21,SSW,204,2.7,2.7,34,0.00,,OVC,0.00,VWS V14.00,2013-01-19 23:58:00,
2013-01-19 18:59:00,61.3,32.8,30.21,SSW,204,2.7,2.7,34,0.00,,OVC,0.00,VWS V14.00,2013-01-19 23:59:00,
2013-01-19 19:00:00,61.2,32.6,30.21,SSW,204,3.1,3.1,34,0.00,,OVC,0.00,VWS V14.00,2013-01-20 00:00:00,
2013-01-19 19:01:00,61.0,32.4,30.21,SSW,204,3.1,3.1,34,0.00,,OVC,0.00,VWS V14.00,2013-01-20 00:01:00,
2013-01-19 19:02:00,61.0,32.4,30.21,SSW,204,2.7,3.1,34,0.00,,OVC,0.00,VWS V14.00,2013-01-20 00:02:00,
2013-01-19 19:03:00,60.8,32.3,30.21,SSW,204,2.2,2.7,34,0.00,,OVC,0.00,VWS V14.00,2013-01-20 00:03:00,
2013-01-19 19:04:00,60.6,32.1,30.21,SSW,204,2.2,2.7,34,0.00,,OVC,0.00,VWS V14.00,2013-01-20 00:04:00,
2013-01-19 19:05:00,60.6,32.1,30.21,SSW,204,3.1,3.1,34,0.00,,OVC,0.00,VWS V14.00,2013-01-20 00:05:00,
2013-01-19 19:06:00,60.4,32.0,30.21,SSW,204,3.1,3.6,34,0.00,,OVC,0.00,VWS V14.00,2013-01-20 00:06:00,
2013-01-19 19:07:00,60.3,31.8,30.21,SSW,204,3.1,3.1,34,0.00,,OVC,0.00,VWS V14.00,2013-01-20 00:07:00,
2013-01-19 19:08:00,60.1,31.6,30.21,SSW,204,3.1,3.1,34,0.00,,OVC,0.00,VWS V14.00,2013-01-20 00:08:00,
2013-01-19 19:09:00,60.1,31.6,30.21,SSW,204,3.6,3.6,34,0.00,,OVC,0.00,VWS V14.00,2013-01-20 00:09:00,
2013-01-19 19:10:00,59.9,31.5,30.21,SSW,204,4.0,4.0,34,0.00,,OVC,0.00,VWS V14.00,2013-01-20 00:10:00,
2013-01-19 19:11:00,59.7,31.3,30.21,SSW,204,4.0,4.0,34,0.00,,OVC,0.00,VWS V14.00,2013-01-20 00:11:00,
2013-01-19 19:12:00,59.7,31.3,30.21,SSW,204,3.6,4.0,34,0.00,,OVC,0.00,VWS V14.00,2013-01-20 00:12:00,
2013-01-19 19:13:00,59.7,31.3,30.21,SSW,204,4.0,4.0,34,0.00,,OVC,0.00,VWS V14.00,2013-01-20 00:13:00,
2013-01-19 19:14:00,59.5,31.2,30.21,SSW,204,3.1,4.0,34,0.00,,OVC,0.00,VWS V14.00,2013-01-20 00:14:00,
2013-01-19 19:15:00,59.4,31.0,30.21,SSW,204,3.1,3.1,34,0.00,,OVC,0.00,VWS V14.00,2013-01-20 00:15:00,
2013-01-19 19:16:00,59.4,31.0,30.21,SSW,204,4.0,4.0,34,0.00,,OVC,0.00,VWS V14.00,2013-01-20 00:16:00,
2013-01-19 19:17:00,59.2,30.9,30.21,SSW,204,3.6,4.0,34,0.00,,OVC,0.00,VWS V14.00,2013-01-20 00:17:00,
2013-01-19 19:18:00,59.2,30.9,30.21,SSW,204,4.0,4.0,34,0.00,,OVC,0.00,VWS V14.00,2013-01-20 00:18:00,
2013-01-19 19:19:00,59.2,30.9,30.21,SSW,204,3.1,4.0,34,0.00,,OVC,0.00,VWS V14.00,2013-01-20 00:19:00,
2013-01-19 19:20:00,59.0,30.7,30.21,SSW,204,2.7,3.1,34,0.00,,OVC,0.00,VWS V14.00,2013-01-20 00:20:00,
2013-01-19 19:21:00,59.0,30.7,30.21,SSW,202,3.1,3.6,34,0.00,,OVC,0.00,VWS V14.00,2013-01-20 00:21:00,
2013-01-19 19:22:00,58.8,31.2,30.21,SSW,197,3.1,3.1,35,0.00,,OVC,0.00,VWS V14.00,2013-01-20 00:22:00,
2013-01-19 19:23:00,58.8,31.2,30.21,SSW,192,3.1,3.6,35,0.00,,OVC,0.00,VWS V14.00,2013-01-20 00:23:00,
2013-01-19 19:24:00,58.8,31.2,30.21,South,188,3.1,3.6,35,0.00,,OVC,0.00,VWS V14.00,2013-01-20 00:24:00,
2013-01-19 19:25:00,58.6,31.1,30.21,South,189,3.6,3.6,35,0.00,,OVC,0.00,VWS V14.00,2013-01-20 00:25:00,
2013-01-19 19:26:00,58.6,31.1,30.21,South,190,3.6,3.6,35,0.00,,OVC,0.00,VWS V14.00,2013-01-20 00:26:00,
2013-01-19 19:27:00,58.5,30.9,30.21,South,191,3.1,4.0,35,0.00,,OVC,0.00,VWS V14.00,2013-01-20 00:27:00,
2013-01-19 19:28:00,58.5,30.9,30.21,SSW,194,3.6,3.6,35,0.00,,OVC,0.00,VWS V14.00,2013-01-20 00:28:00,
2013-01-19 19:29:00,58.3,30.8,30.21,SSW,199,3.1,3.6,35,0.00,,OVC,0.00,VWS V14.00,2013-01-20 00:29:00,
2013-01-19 19:30:00,58.3,30.8,30.21,SSW,199,3.1,4.0,35,0.00,,OVC,0.00,VWS V14.00,2013-01-20 00:30:00,
2013-01-19 19:31:00,58.3,30.8,30.21,SSW,198,3.1,3.1,35,0.00,,OVC,0.00,VWS V14.00,2013-01-20 00:31:00,
2013-01-19 19:32:00,58.1,30.6,30.21,SSW,197,2.7,3.6,35,0.00,,OVC,0.00,VWS V14.00,2013-01-20 00:32:00,
2013-01-19 19:33:00,58.1,30.6,30.21,South,191,3.6,4.0,35,0.00,,OVC,0.00,VWS V14.00,2013-01-20 00:33:00,
2013-01-19 19:34:00,58.1,30.6,30.21,South,191,3.6,3.6,35,0.00,,OVC,0.00,VWS V14.00,2013-01-20 00:34:00,
2013-01-19 19:35:00,58.1,30.6,30.21,South,187,3.6,4.0,35,0.00,,OVC,0.00,VWS V14.00,2013-01-20 00:35:00,
2013-01-19 19:36:00,58.1,30.6,30.21,South,186,3.6,3.6,35,0.00,,OVC,0.00,VWS V14.00,2013-01-20 00:36:00,
2013-01-19 19:37:00,58.1,30.6,30.21,South,186,3.6,3.6,35,0.00,,OVC,0.00,VWS V14.00,2013-01-20 00:37:00,
2013-01-19 19:38:00,57.9,30.5,30.21,South,186,3.1,4.9,35,0.00,,OVC,0.00,VWS V14.00,2013-01-20 00:38:00,
2013-01-19 19:39:00,57.9,30.5,30.21,South,186,3.1,3.6,35,0.00,,OVC,0.00,VWS V14.00,2013-01-20 00:39:00,
2013-01-19 19:40:00,57.9,30.5,30.21,South,186,3.1,4.0,35,0.00,,OVC,0.00,VWS V14.00,2013-01-20 00:40:00,
2013-01-19 19:41:00,57.9,31.1,30.21,South,187,3.6,3.6,36,0.00,,OVC,0.00,VWS V14.00,2013-01-20 00:41:00,
2013-01-19 19:42:00,57.9,31.1,30.21,SSW,197,3.6,4.0,36,0.00,,OVC,0.00,VWS V14.00,2013-01-20 00:42:00,
2013-01-19 19:43:00,57.7,31.0,30.21,SSW,201,4.5,4.5,36,0.00,,OVC,0.00,VWS V14.00,2013-01-20 00:43:00,
2013-01-19 19:44:00,57.7,31.0,30.21,SSW,208,5.4,5.4,36,0.00,,OVC,0.00,VWS V14.00,2013-01-20 00:44:00,
2013-01-19 19:45:00,57.7,31.0,30.21,SSW,210,5.4,5.4,36,0.00,,OVC,0.00,VWS V14.00,2013-01-20 00:45:00,
2013-01-19 19:46:00,57.7,31.0,30.21,SSW,209,4.0,5.4,36,0.00,,OVC,0.00,VWS V14.00,2013-01-20 00:46:00,
2013-01-19 19:47:00,57.7,31.0,30.21,SSW,209,4.5,4.5,36,0.00,,OVC,0.00,VWS V14.00,2013-01-20 00:47:00,
2013-01-19 19:48:00,57.7,31.0,30.21,SSW,209,4.0,4.9,36,0.00,,OVC,0.00,VWS V14.00,2013-01-20 00:48:00,
2013-01-19 19:49:00,57.6,30.8,30.21,SSW,198,4.0,4.0,36,0.00,,OVC,0.00,VWS V14.00,2013-01-20 00:49:00,
2013-01-19 19:50:00,57.6,30.8,30.21,SSW,194,3.6,4.9,36,0.00,,OVC,0.00,VWS V14.00,2013-01-20 00:50:00,
2013-01-19 19:51:00,57.6,30.8,30.21,SSW,197,3.6,3.6,36,0.00,,OVC,0.00,VWS V14.00,2013-01-20 00:51:00,
2013-01-19 19:52:00,57.6,30.8,30.21,SSW,200,3.6,4.0,36,0.00,,OVC,0.00,VWS V14.00,2013-01-20 00:52:00,
2013-01-19 19:53:00,57.6,30.8,30.21,SSW,196,4.0,4.9,36,0.00,,OVC,0.00,VWS V14.00,2013-01-20 00:53:00,
2013-01-19 19:54:00,57.6,30.8,30.21,SSW,200,3.6,4.0,36,0.00,,OVC,0.00,VWS V14.00,2013-01-20 00:54:00,
2013-01-19 19:55:00,57.4,30.7,30.21,SSW,202,5.4,5.4,36,0.00,,OVC,0.00,VWS V14.00,2013-01-20 00:55:00,
2013-01-19 19:56:00,57.4,30.7,30.21,SSW,202,5.4,5.4,36,0.00,,OVC,0.00,VWS V14.00,2013-01-20 00:56:00,
2013-01-19 19:57:00,57.2,30.5,30.21,SSW,201,4.0,5.4,36,0.00,,OVC,0.00,VWS V14.00,2013-01-20 00:57:00,
2013-01-19 19:58:00,57.2,30.5,30.21,SSW,204,4.0,5.4,36,0.00,,OVC,0.00,VWS V14.00,2013-01-20 00:58:00,
2013-01-19 19:59:00,57.2,31.2,30.21,SSW,210,4.0,5.4,37,0.00,,OVC,0.00,VWS V14.00,2013-01-20 00:59:00,
2013-01-19 20:00:00,57.2,31.2,30.21,SSW,207,4.5,5.4,37,0.00,,OVC,0.00,VWS V14.00,2013-01-20 01:00:00,
2013-01-19 20:01:00,57.2,31.2,30.21,SSW,205,4.9,4.9,37,0.00,,OVC,0.00,VWS V14.00,2013-01-20 01:01:00,
2013-01-19 20:02:00,57.2,31.2,30.21,SSW,205,4.0,4.9,37,0.00,,OVC,0.00,VWS V14.00,2013-01-20 01:02:00,
2013-01-19 20:03:00,57.2,31.2,30.21,SSW,203,4.9,4.9,37,0.00,,OVC,0.00,VWS V14.00,2013-01-20 01:03:00,
2013-01-19 20:04:00,57.2,31.2,30.21,SSW,196,4.0,4.9,37,0.00,,OVC,0.00,VWS V14.00,2013-01-20 01:04:00,
2013-01-19 20:05:00,57.2,31.2,30.21,SSW,200,4.0,4.0,37,0.00,,OVC,0.00,VWS V14.00,2013-01-20 01:05:00,
2013-01-19 20:06:00,57.2,31.2,30.21,SSW,201,3.6,4.5,37,0.00,,OVC,0.00,VWS V14.00,2013-01-20 01:06:00,
2013-01-19 20:07:00,57.2,31.2,30.21,SSW,200,4.0,5.4,37,0.00,,OVC,0.00,VWS V14.00,2013-01-20 01:07:00,
2013-01-19 20:08:00,57.0,31.7,30.21,SSW,199,4.0,4.9,38,0.00,,OVC,0.00,VWS V14.00,2013-01-20 01:08:00,
2013-01-19 20:09:00,57.0,31.7,30.21,SSW,199,4.0,4.0,38,0.00,,OVC,0.00,VWS V14.00,2013-01-20 01:09:00,
2013-01-19 20:10:00,57.0,31.7,30.21,SSW,200,4.9,4.9,38,0.00,,OVC,0.00,VWS V14.00,2013-01-20 01:10:00,
2013-01-19 20:11:00,57.0,31.7,30.21,SSW,197,4.0,4.9,38,0.00,,OVC,0.00,VWS V14.00,2013-01-20 01:11:00,
2013-01-19 20:12:00,56.8,31.5,30.21,SSW,197,3.6,4.9,38,0.00,,OVC,0.00,VWS V14.00,2013-01-20 01:12:00,
2013-01-19 20:13:00,56.8,31.5,30.21,SSW,200,3.6,4.0,38,0.00,,OVC,0.00,VWS V14.00,2013-01-20 01:13:00,
2013-01-19 20:14:00,56.8,31.5,30.21,SSW,200,5.4,5.4,38,0.00,,OVC,0.00,VWS V14.00,2013-01-20 01:14:00,
2013-01-19 20:15:00,56.7,31.4,30.21,SSW,197,4.5,5.4,38,0.00,,OVC,0.00,VWS V14.00,2013-01-20 01:15:00,
2013-01-19 20:16:00,56.7,31.4,30.21,SSW,197,3.6,4.5,38,0.00,,OVC,0.00,VWS V14.00,2013-01-20 01:16:00,
2013-01-19 20:17:00,56.5,31.2,30.21,SSW,197,3.6,4.0,38,0.00,,OVC,0.00,VWS V14.00,2013-01-20 01:17:00,
2013-01-19 20:18:00,56.5,31.2,30.21,SSW,197,3.6,4.0,38,0.00,,OVC,0.00,VWS V14.00,2013-01-20 01:18:00,
2013-01-19 20:19:00,56.3,31.0,30.21,SSW,198,4.0,4.0,38,0.00,,OVC,0.00,VWS V14.00,2013-01-20 01:19:00,
2013-01-19 20:20:00,56.3,31.0,30.21,SSW,198,3.6,4.0,38,0.00,,OVC,0.00,VWS V14.00,2013-01-20 01:20:00,
2013-01-19 20:21:00,56.3,31.0,30.21,SSW,198,4.5,4.5,38,0.00,,OVC,0.00,VWS V14.00,2013-01-20 01:21:00,
2013-01-19 20:22:00,56.3,31.0,30.21,SSW,199,4.0,4.5,38,0.00,,OVC,0.00,VWS V14.00,2013-01-20 01:22:00,
2013-01-19 20:23:00,56.1,31.5,30.21,SSW,200,4.0,4.0,39,0.00,,OVC,0.00,VWS V14.00,2013-01-20 01:23:00,
2013-01-19 20:24:00,56.1,31.5,30.21,SSW,199,4.0,4.5,39,0.00,,OVC,0.00,VWS V14.00,2013-01-20 01:24:00,
2013-01-19 20:25:00,55.9,31.4,30.21,SSW,199,4.5,4.5,39,0.00,,OVC,0.00,VWS V14.00,2013-01-20 01:25:00,
2013-01-19 20:26:00,55.9,31.4,30.21,SSW,197,3.6,4.9,39,0.00,,OVC,0.00,VWS V14.00,2013-01-20 01:26:00,
2013-01-19 20:27:00,55.9,31.4,30.21,SSW,198,3.6,4.0,39,0.00,,OVC,0.00,VWS V14.00,2013-01-20 01:27:00,
2013-01-19 20:28:00,55.8,31.2,30.21,SSW,198,3.6,3.6,39,0.00,,OVC,0.00,VWS V14.00,2013-01-20 01:28:00,
2013-01-19 20:29:00,55.8,31.2,30.21,SSW,198,4.0,4.0,39,0.00,,OVC,0.00,VWS V14.00,2013-01-20 01:29:00,
2013-01-19 20:30:00,55.6,31.0,30.21,SSW,200,5.4,5.4,39,0.00,,OVC,0.00,VWS V14.00,2013-01-20 01:30:00,
2013-01-19 20:31:00,55.6,31.0,30.21,SSW,204,5.4,5.8,39,0.00,,OVC,0.00,VWS V14.00,2013-01-20 01:31:00,
2013-01-19 20:32:00,55.6,31.0,30.21,SSW,204,4.0,5.4,39,0.00,,OVC,0.00,VWS V14.00,2013-01-20 01:32:00,
2013-01-19 20:33:00,55.4,30.9,30.21,SSW,206,5.4,5.4,39,0.00,,OVC,0.00,VWS V14.00,2013-01-20 01:33:00,
2013-01-19 20:34:00,55.4,30.9,30.21,SSW,206,4.5,5.4,39,0.00,,OVC,0.00,VWS V14.00,2013-01-20 01:34:00,
2013-01-19 20:35:00,55.4,30.9,30.21,SSW,207,4.0,4.5,39,0.00,,OVC,0.00,VWS V14.00,2013-01-20 01:35:00,
2013-01-19 20:36:00,55.2,31.3,30.21,SSW,205,4.0,4.0,40,0.00,,OVC,0.00,VWS V14.00,2013-01-20 01:36:00,
2013-01-19 20:37:00,55.2,31.3,30.21,SSW,205,5.4,5.4,40,0.00,,OVC,0.00,VWS V14.00,2013-01-20 01:37:00,
2013-01-19 20:38:00,55.2,31.3,30.21,SSW,201,4.0,5.4,40,0.00,,OVC,0.00,VWS V14.00,2013-01-20 01:38:00,
2013-01-19 20:39:00,55.0,31.2,30.21,SSW,201,4.0,4.0,40,0.00,,OVC,0.00,VWS V14.00,2013-01-20 01:39:00,
2013-01-19 20:40:00,55.0,31.2,30.21,SSW,198,3.6,4.0,40,0.00,,OVC,0.00,VWS V14.00,2013-01-20 01:40:00,
2013-01-19 20:41:00,55.0,31.2,30.21,SSW,198,3.6,4.0,40,0.00,,OVC,0.00,VWS V14.00,2013-01-20 01:41:00,
2013-01-19 20:42:00,55.0,31.2,30.21,SSW,198,3.1,4.9,40,0.00,,OVC,0.00,VWS V14.00,2013-01-20 01:42:00,
2013-01-19 20:43:00,54.9,31.0,30.21,SSW,192,4.0,5.4,40,0.00,,OVC,0.00,VWS V14.00,2013-01-20 01:43:00,
2013-01-19 20:44:00,54.9,31.6,30.21,SSW,200,4.9,6.3,41,0.00,,OVC,0.00,VWS V14.00,2013-01-20 01:44:00,
2013-01-19 20:45:00,54.9,31.6,30.21,SSW,196,4.9,5.4,41,0.00,,OVC,0.00,VWS V14.00,2013-01-20 01:45:00,
2013-01-19 20:46:00,54.9,31.6,30.21,SSW,195,4.9,5.4,41,0.00,,OVC,0.00,VWS V14.00,2013-01-20 01:46:00,
2013-01-19 20:47:00,54.7,31.5,30.21,SSW,197,5.4,5.4,41,0.00,,OVC,0.00,VWS V14.00,2013-01-20 01:47:00,
2013-01-19 20:48:00,54.7,31.5,30.21,SSW,199,5.4,5.4,41,0.00,,OVC,0.00,VWS V14.00,2013-01-20 01:48:00,
2013-01-19 20:49:00,54.7,31.5,30.21,SSW,203,4.0,5.4,41,0.00,,OVC,0.00,VWS V14.00,2013-01-20 01:49:00,
2013-01-19 20:50:00,54.7,31.5,30.21,SSW,203,5.8,5.8,41,0.00,,OVC,0.00,VWS V14.00,2013-01-20 01:50:00,
2013-01-19 20:51:00,54.7,31.5,30.21,SSW,206,5.4,5.8,41,0.00,,OVC,0.00,VWS V14.00,2013-01-20 01:51:00,
2013-01-19 20:52:00,54.5,31.3,30.21,SSW,206,6.3,6.3,41,0.00,,OVC,0.00,VWS V14.00,2013-01-20 01:52:00,
2013-01-19 20:53:00,54.5,31.3,30.21,SSW,207,5.4,6.7,41,0.00,,OVC,0.00,VWS V14.00,2013-01-20 01:53:00,
2013-01-19 20:54:00,54.5,31.9,30.21,SSW,199,5.8,5.8,42,0.00,,OVC,0.00,VWS V14.00,2013-01-20 01:54:00,
2013-01-19 20:55:00,54.5,31.9,30.21,SSW,206,5.4,5.8,42,0.00,,OVC,0.00,VWS V14.00,2013-01-20 01:55:00,
2013-01-19 20:56:00,54.5,31.9,30.21,SSW,197,4.9,5.4,42,0.00,,OVC,0.00,VWS V14.00,2013-01-20 01:56:00,
2013-01-19 20:57:00,54.5,31.9,30.21,SSW,201,6.3,6.3,42,0.00,,OVC,0.00,VWS V14.00,2013-01-20 01:57:00,
2013-01-19 20:58:00,54.5,31.9,30.21,SSW,203,4.9,6.3,42,0.00,,OVC,0.00,VWS V14.00,2013-01-20 01:58:00,
2013-01-19 20:59:00,54.5,31.9,30.21,SSW,202,6.3,6.3,42,0.00,,OVC,0.00,VWS V14.00,2013-01-20 01:59:00,
2013-01-19 21:00:00,54.5,31.9,30.21,SSW,192,4.0,6.3,42,0.00,,OVC,0.00,VWS V14.00,2013-01-20 02:00:00,
2013-01-19 21:01:00,54.5,31.9,30.21,SSW,205,4.0,5.4,42,0.00,,OVC,0.00,VWS V14.00,2013-01-20 02:01:00,
2013-01-19 21:02:00,54.5,31.9,30.21,SSW,204,6.3,6.3,42,0.00,,OVC,0.00,VWS V14.00,2013-01-20 02:02:00,
2013-01-19 21:03:00,54.5,32.5,30.24,SSW,199,3.1,6.3,43,0.00,,OVC,0.00,VWS V14.00,2013-01-20 02:03:00,
2013-01-19 21:04:00,54.5,32.5,30.24,SSW,204,5.4,5.8,43,0.00,,OVC,0.00,VWS V14.00,2013-01-20 02:04:00,
2013-01-19 21:05:00,54.5,32.5,30.24,SSW,208,4.0,5.4,43,0.00,,OVC,0.00,VWS V14.00,2013-01-20 02:05:00,
2013-01-19 21:06:00,54.3,32.3,30.24,SSW,206,4.9,5.4,43,0.00,,OVC,0.00,VWS V14.00,2013-01-20 02:06:00,
2013-01-19 21:07:00,54.3,32.3,30.24,SSW,205,3.6,4.9,43,0.00,,OVC,0.00,VWS V14.00,2013-01-20 02:07:00,
2013-01-19 21:08:00,54.3,32.3,30.24,SSW,204,4.0,5.8,43,0.00,,OVC,0.00,VWS V14.00,2013-01-20 02:08:00,
2013-01-19 21:09:00,54.3,32.3,30.24,SSW,199,3.6,5.8,43,0.00,,OVC,0.00,VWS V14.00,2013-01-20 02:09:00,
2013-01-19 21:10:00,54.3,32.3,30.24,SSW,200,4.9,4.9,43,0.00,,OVC,0.00,VWS V14.00,2013-01-20 02:10:00,
2013-01-19 21:11:00,54.1,32.2,30.24,South,185,4.9,4.9,43,0.00,,OVC,0.00,VWS V14.00,2013-01-20 02:11:00,
2013-01-19 21:12:00,54.1,32.2,30.24,SSW,195,4.0,5.4,43,0.00,,OVC,0.00,VWS V14.00,2013-01-20 02:12:00,
2013-01-19 21:13:00,54.1,32.2,30.24,SSW,196,5.4,5.8,43,0.00,,OVC,0.00,VWS V14.00,2013-01-20 02:13:00,
2013-01-19 21:14:00,54.0,32.0,30.24,South,191,4.0,5.4,43,0.00,,OVC,0.00,VWS V14.00,2013-01-20 02:14:00,
2013-01-19 21:15:00,54.0,32.0,30.24,SSW,203,4.9,6.3,43,0.00,,OVC,0.00,VWS V14.00,2013-01-20 02:15:00,
2013-01-19 21:16:00,54.0,32.0,30.24,SSW,198,4.9,5.4,43,0.00,,OVC,0.00,VWS V14.00,2013-01-20 02:16:00,
2013-01-19 21:17:00,53.8,31.8,30.24,SSW,199,5.4,5.8,43,0.00,,OVC,0.00,VWS V14.00,2013-01-20 02:17:00,
2013-01-19 21:18:00,53.8,31.8,30.24,SSW,200,5.4,5.4,43,0.00,,OVC,0.00,VWS V14.00,2013-01-20 02:18:00,
2013-01-19 21:19:00,53.8,31.8,30.24,SSW,193,5.4,5.4,43,0.00,,OVC,0.00,VWS V14.00,2013-01-20 02:19:00,
2013-01-19 21:20:00,53.6,31.7,30.24,SSW,197,5.4,5.4,43,0.00,,OVC,0.00,VWS V14.00,2013-01-20 02:20:00,
2013-01-19 21:21:00,53.6,31.7,30.24,SSW,200,4.0,5.4,43,0.00,,OVC,0.00,VWS V14.00,2013-01-20 02:21:00,
2013-01-19 21:22:00,53.6,31.7,30.24,SSW,194,4.9,5.8,43,0.00,,OVC,0.00,VWS V14.00,2013-01-20 02:22:00,
2013-01-19 21:23:00,53.4,32.1,30.24,SSW,197,5.4,5.8,44,0.00,,OVC,0.00,VWS V14.00,2013-01-20 02:23:00,
2013-01-19 21:24:00,53.4,32.1,30.24,SSW,200,4.0,5.8,44,0.00,,OVC,0.00,VWS V14.00,2013-01-20 02:24:00,
2013-01-19 21:25:00,53.4,32.1,30.24,SSW,196,4.9,4.9,44,0.00,,OVC,0.00,VWS V14.00,2013-01-20 02:25:00,
2013-01-19 21:26:00,53.2,31.9,30.24,SSW,196,4.0,4.9,44,0.00,,OVC,0.00,VWS V14.00,2013-01-20 02:26:00,
2013-01-19 21:27:00,53.2,31.9,30.24,SSW,200,4.0,5.4,44,0.00,,OVC,0.00,VWS V14.00,2013-01-20 02:27:00,
2013-01-19 21:28:00,53.2,31.9,30.24,SSW,202,4.9,6.3,44,0.00,,OVC,0.00,VWS V14.00,2013-01-20 02:28:00,
2013-01-19 21:29:00,53.2,32.5,30.24,SSW,205,5.4,6.3,45,0.00,,OVC,0.00,VWS V14.00,2013-01-20 02:29:00,
2013-01-19 21:30:00,53.2,32.5,30.24,SW,214,5.8,5.8,45,0.00,,OVC,0.00,VWS V14.00,2013-01-20 02:30:00,
2013-01-19 21:31:00,53.2,32.5,30.24,SSW,210,6.3,6.3,45,0.00,,OVC,0.00,VWS V14.00,2013-01-20 02:31:00,
2013-01-19 21:32:00,53.1,32.3,30.24,SSW,211,4.9,6.3,45,0.00,,OVC,0.00,VWS V14.00,2013-01-20 02:32:00,
2013-01-19 21:33:00,53.1,32.3,30.24,SSW,202,3.6,4.9,45,0.00,,OVC,0.00,VWS V14.00,2013-01-20 02:33:00,
2013-01-19 21:34:00,53.1,32.3,30.24,SSW,203,3.6,3.6,45,0.00,,OVC,0.00,VWS V14.00,2013-01-20 02:34:00,
2013-01-19 21:35:00,53.1,32.3,30.24,SSW,196,3.1,4.0,45,0.00,,OVC,0.00,VWS V14.00,2013-01-20 02:35:00,
2013-01-19 21:36:00,53.1,32.3,30.24,SSW,196,3.1,3.6,45,0.00,,OVC,0.00,VWS V14.00,2013-01-20 02:36:00,
2013-01-19 21:37:00,53.1,32.3,30.24,SSW,193,4.0,4.0,45,0.00,,OVC,0.00,VWS V14.00,2013-01-20 02:37:00,
2013-01-19 21:38:00,53.1,32.3,30.24,South,191,4.0,4.0,45,0.00,,OVC,0.00,VWS V14.00,2013-01-20 02:38:00,
2013-01-19 21:39:00,53.1,32.3,30.24,SSW,196,4.9,4.9,45,0.00,,OVC,0.00,VWS V14.00,2013-01-20 02:39:00,
2013-01-19 21:40:00,53.1,32.8,30.24,SSW,198,3.6,6.3,46,0.00,,OVC,0.00,VWS V14.00,2013-01-20 02:40:00,
2013-01-19 21:41:00,53.1,32.8,30.24,SSW,200,3.6,4.9,46,0.00,,OVC,0.00,VWS V14.00,2013-01-20 02:41:00,
2013-01-19 21:42:00,52.9,32.7,30.24,SSW,199,3.6,4.0,46,0.00,,OVC,0.00,VWS V14.00,2013-01-20 02:42:00,
2013-01-19 21:43:00,52.9,32.7,30.24,SSW,205,5.8,5.8,46,0.00,,OVC,0.00,VWS V14.00,2013-01-20 02:43:00,
2013-01-19 21:44:00,52.9,32.7,30.24,SSW,197,3.6,5.8,46,0.00,,OVC,0.00,VWS V14.00,2013-01-20 02:44:00,
2013-01-19 21:45:00,52.9,32.7,30.24,SSW,202,3.6,4.9,46,0.00,,OVC,0.00,VWS V14.00,2013-01-20 02:45:00,
2013-01-19 21:46:00,52.7,32.5,30.24,SSW,195,4.0,5.4,46,0.00,,OVC,0.00,VWS V14.00,2013-01-20 02:46:00,
2013-01-19 21:47:00,52.7,32.5,30.24,South,187,4.0,4.0,46,0.00,,OVC,0.00,VWS V14.00,2013-01-20 02:47:00,
2013-01-19 21:48:00,52.7,32.5,30.24,SSW,193,4.0,4.9,46,0.00,,OVC,0.00,VWS V14.00,2013-01-20 02:48:00,
2013-01-19 21:49:00,52.7,32.5,30.24,SSW,194,4.0,4.0,46,0.00,,OVC,0.00,VWS V14.00,2013-01-20 02:49:00,
2013-01-19 21:50:00,52.7,32.5,30.24,SSW,193,4.9,4.9,46,0.00,,OVC,0.00,VWS V14.00,2013-01-20 02:50:00,
2013-01-19 21:51:00,52.7,32.5,30.24,South,187,5.4,5.4,46,0.00,,OVC,0.00,VWS V14.00,2013-01-20 02:51:00,
2013-01-19 21:52:00,52.7,32.5,30.24,South,187,6.3,6.3,46,0.00,,OVC,0.00,VWS V14.00,2013-01-20 02:52:00,
2013-01-19 21:53:00,52.7,32.5,30.24,SSW,200,4.9,6.3,46,0.00,,OVC,0.00,VWS V14.00,2013-01-20 02:53:00,
2013-01-19 21:54:00,52.7,32.5,30.24,South,190,4.0,5.8,46,0.00,,OVC,0.00,VWS V14.00,2013-01-20 02:54:00,
2013-01-19 21:55:00,52.7,32.5,30.24,SSW,195,5.8,5.8,46,0.00,,OVC,0.00,VWS V14.00,2013-01-20 02:55:00,
2013-01-19 21:56:00,52.5,32.3,30.24,SSW,193,5.4,5.8,46,0.00,,OVC,0.00,VWS V14.00,2013-01-20 02:56:00,
2013-01-19 21:57:00,52.5,32.3,30.24,South,185,5.4,5.8,46,0.00,,OVC,0.00,VWS V14.00,2013-01-20 02:57:00,
2013-01-19 21:58:00,52.5,32.3,30.24,South,187,5.8,5.8,46,0.00,,OVC,0.00,VWS V14.00,2013-01-20 02:58:00,
2013-01-19 21:59:00,52.5,32.3,30.24,South,185,6.3,6.3,46,0.00,,OVC,0.00,VWS V14.00,2013-01-20 02:59:00,
2013-01-19 22:00:00,52.5,32.3,30.24,SSW,203,4.9,6.3,46,0.00,,OVC,0.00,VWS V14.00,2013-01-20 03:00:00,
2013-01-19 22:01:00,52.5,32.3,30.24,SSW,202,5.4,5.8,46,0.00,,OVC,0.00,VWS V14.00,2013-01-20 03:01:00,
2013-01-19 22:02:00,52.5,32.3,30.24,SSW,192,4.5,5.4,46,0.00,,OVC,0.00,VWS V14.00,2013-01-20 03:02:00,
2013-01-19 22:03:00,52.5,32.3,30.24,South,186,6.7,6.7,46,0.00,,OVC,0.00,VWS V14.00,2013-01-20 03:03:00,
2013-01-19 22:04:00,52.5,32.9,30.24,SSW,198,5.4,6.7,47,0.00,,OVC,0.00,VWS V14.00,2013-01-20 03:04:00,
2013-01-19 22:05:00,52.5,32.9,30.24,SSW,202,5.8,5.8,47,0.00,,OVC,0.00,VWS V14.00,2013-01-20 03:05:00,
2013-01-19 22:06:00,52.5,32.9,30.24,SSW,194,4.0,5.8,47,0.00,,OVC,0.00,VWS V14.00,2013-01-20 03:06:00,
2013-01-19 22:07:00,52.5,32.9,30.24,SSW,206,5.4,5.4,47,0.00,,OVC,0.00,VWS V14.00,2013-01-20 03:07:00,
2013-01-19 22:08:00,52.5,32.9,30.24,SSW,203,5.4,5.4,47,0.00,,OVC,0.00,VWS V14.00,2013-01-20 03:08:00,
2013-01-19 22:09:00,52.5,32.9,30.24,SSW,193,4.9,5.4,47,0.00,,OVC,0.00,VWS V14.00,2013-01-20 03:09:00,
2013-01-19 22:10:00,52.5,32.9,30.24,SSW,201,3.6,5.4,47,0.00,,OVC,0.00,VWS V14.00,2013-01-20 03:10:00,
2013-01-19 22:11:00,52.5,32.9,30.24,South,189,4.0,5.4,47,0.00,,OVC,0.00,VWS V14.00,2013-01-20 03:11:00,
2013-01-19 22:12:00,52.5,32.9,30.24,SSW,198,4.0,4.9,47,0.00,,OVC,0.00,VWS V14.00,2013-01-20 03:12:00,
2013-01-19 22:13:00,52.5,32.9,30.24,SSW,198,4.5,5.4,47,0.00,,OVC,0.00,VWS V14.00,2013-01-20 03:13:00,
2013-01-19 22:14:00,52.5,32.9,30.24,South,187,5.4,5.4,47,0.00,,OVC,0.00,VWS V14.00,2013-01-20 03:14:00,
2013-01-19 22:15:00,52.5,32.9,30.24,SSW,205,4.9,5.8,47,0.00,,OVC,0.00,VWS V14.00,2013-01-20 03:15:00,
2013-01-19 22:16:00,52.5,32.9,30.24,SSW,203,5.4,6.7,47,0.00,,OVC,0.00,VWS V14.00,2013-01-20 03:16:00,
2013-01-19 22:17:00,52.5,32.9,30.24,SSW,202,5.4,5.4,47,0.00,,OVC,0.00,VWS V14.00,2013-01-20 03:17:00,
2013-01-19 22:18:00,52.5,32.9,30.24,SSW,202,5.4,6.3,47,0.00,,OVC,0.00,VWS V14.00,2013-01-20 03:18:00,
2013-01-19 22:19:00,52.5,32.9,30.24,SSW,203,6.3,6.3,47,0.00,,OVC,0.00,VWS V14.00,2013-01-20 03:19:00,
2013-01-19 22:20:00,52.5,32.9,30.24,SSW,202,5.8,6.3,47,0.00,,OVC,0.00,VWS V14.00,2013-01-20 03:20:00,
2013-01-19 22:21:00,52.5,32.9,30.24,SSW,207,5.8,6.3,47,0.00,,OVC,0.00,VWS V14.00,2013-01-20 03:21:00,
2013-01-19 22:22:00,52.5,32.9,30.24,SSW,194,5.8,5.8,47,0.00,,OVC,0.00,VWS V14.00,2013-01-20 03:22:00,
2013-01-19 22:23:00,52.5,32.9,30.24,SSW,196,4.9,5.8,47,0.00,,OVC,0.00,VWS V14.00,2013-01-20 03:23:00,
2013-01-19 22:24:00,52.3,32.7,30.24,SSW,194,5.8,5.8,47,0.00,,OVC,0.00,VWS V14.00,2013-01-20 03:24:00,
2013-01-19 22:25:00,52.3,32.7,30.24,South,185,6.3,6.3,47,0.00,,OVC,0.00,VWS V14.00,2013-01-20 03:25:00,
2013-01-19 22:26:00,52.3,32.7,30.24,South,191,5.4,6.3,47,0.00,,OVC,0.00,VWS V14.00,2013-01-20 03:26:00,
2013-01-19 22:27:00,52.3,32.7,30.24,SSW,196,4.0,5.4,47,0.00,,OVC,0.00,VWS V14.00,2013-01-20 03:27:00,
2013-01-19 22:28:00,52.3,32.7,30.24,SSW,197,5.8,5.8,47,0.00,,OVC,0.00,VWS V14.00,2013-01-20 03:28:00,
2013-01-19 22:29:00,52.3,32.7,30.24,SSW,203,5.8,5.8,47,0.00,,OVC,0.00,VWS V14.00,2013-01-20 03:29:00,
2013-01-19 22:30:00,52.3,32.7,30.24,SSW,195,5.4,6.3,47,0.00,,OVC,0.00,VWS V14.00,2013-01-20 03:30:00,
2013-01-19 22:31:00,52.3,32.7,30.24,SSW,204,6.3,6.3,47,0.00,,OVC,0.00,VWS V14.00,2013-01-20 03:31:00,
2013-01-19 22:32:00,52.3,32.7,30.24,SSW,199,5.4,6.3,47,0.00,,OVC,0.00,VWS V14.00,2013-01-20 03:32:00,
2013-01-19 22:33:00,52.3,32.7,30.24,SSW,205,5.4,7.6,47,0.00,,OVC,0.00,VWS V14.00,2013-01-20 03:33:00,
2013-01-19 22:34:00,52.3,32.7,30.24,SSW,203,5.4,6.3,47,0.00,,OVC,0.00,VWS V14.00,2013-01-20 03:34:00,
2013-01-19 22:35:00,52.3,33.2,30.24,SSW,207,5.4,6.3,48,0.00,,OVC,0.00,VWS V14.00,2013-01-20 03:35:00,
2013-01-19 22:36:00,52.3,33.2,30.24,SSW,199,5.4,6.3,48,0.00,,OVC,0.00,VWS V14.00,2013-01-20 03:36:00,
2013-01-19 22:37:00,52.3,33.2,30.24,SSW,210,5.4,6.3,48,0.00,,OVC,0.00,VWS V14.00,2013-01-20 03:37:00,
2013-01-19 22:38:00,52.3,33.2,30.24,SSW,209,5.8,6.3,48,0.00,,OVC,0.00,VWS V14.00,2013-01-20 03:38:00,
2013-01-19 22:39:00,52.3,33.2,30.24,SSW,198,5.4,8.1,48,0.00,,OVC,0.00,VWS V14.00,2013-01-20 03:39:00,
2013-01-19 22:40:00,52.3,33.2,30.24,SSW,195,6.3,6.3,48,0.00,,OVC,0.00,VWS V14.00,2013-01-20 03:40:00,
2013-01-19 22:41:00,52.3,33.2,30.24,SSW,202,6.3,6.3,48,0.00,,OVC,0.00,VWS V14.00,2013-01-20 03:41:00,
2013-01-19 22:42:00,52.3,33.2,30.24,SSW,200,7.6,7.6,48,0.00,,OVC,0.00,VWS V14.00,2013-01-20 03:42:00,
2013-01-19 22:43:00,52.3,33.2,30.24,SSW,209,5.8,7.6,48,0.00,,OVC,0.00,VWS V14.00,2013-01-20 03:43:00,
2013-01-19 22:44:00,52.3,33.2,30.24,SSW,203,5.8,6.3,48,0.00,,OVC,0.00,VWS V14.00,2013-01-20 03:44:00,
2013-01-19 22:45:00,52.3,33.2,30.24,SSW,202,5.8,6.7,48,0.00,,OVC,0.00,VWS V14.00,2013-01-20 03:45:00,
2013-01-19 22:46:00,52.3,33.2,30.24,SSW,199,5.4,6.7,48,0.00,,OVC,0.00,VWS V14.00,2013-01-20 03:46:00,
2013-01-19 22:47:00,52.3,33.2,30.24,SSW,203,4.9,6.3,48,0.00,,OVC,0.00,VWS V14.00,2013-01-20 03:47:00,
2013-01-19 22:48:00,52.3,33.2,30.24,SW,218,6.3,7.6,48,0.00,,OVC,0.00,VWS V14.00,2013-01-20 03:48:00,
2013-01-19 22:49:00,52.3,33.2,30.24,SW,216,5.8,6.3,48,0.00,,OVC,0.00,VWS V14.00,2013-01-20 03:49:00,
2013-01-19 22:50:00,52.3,33.2,30.24,SSW,211,5.4,7.6,48,0.00,,OVC,0.00,VWS V14.00,2013-01-20 03:50:00,
2013-01-19 22:51:00,52.3,33.2,30.24,SSW,201,5.4,6.3,48,0.00,,OVC,0.00,VWS V14.00,2013-01-20 03:51:00,
2013-01-19 22:52:00,52.3,33.2,30.24,SSW,210,6.3,8.1,48,0.00,,OVC,0.00,VWS V14.00,2013-01-20 03:52:00,
2013-01-19 22:53:00,52.3,33.2,30.24,SSW,205,6.3,6.3,48,0.00,,OVC,0.00,VWS V14.00,2013-01-20 03:53:00,
2013-01-19 22:54:00,52.3,33.2,30.24,SW,217,6.3,6.3,48,0.00,,OVC,0.00,VWS V14.00,2013-01-20 03:54:00,
2013-01-19 22:55:00,52.3,33.2,30.24,SSW,207,5.4,6.3,48,0.00,,OVC,0.00,VWS V14.00,2013-01-20 03:55:00,
2013-01-19 22:56:00,52.3,33.2,30.24,South,191,6.3,6.3,48,0.00,,OVC,0.00,VWS V14.00,2013-01-20 03:56:00,
2013-01-19 22:57:00,52.3,33.2,30.24,SSW,194,5.8,6.3,48,0.00,,OVC,0.00,VWS V14.00,2013-01-20 03:57:00,
2013-01-19 22:58:00,52.3,33.2,30.24,South,188,5.4,5.8,48,0.00,,OVC,0.00,VWS V14.00,2013-01-20 03:58:00,
2013-01-19 22:59:00,52.3,33.2,30.24,SSW,212,5.4,5.4,48,0.00,,OVC,0.00,VWS V14.00,2013-01-20 03:59:00,
2013-01-19 23:00:00,52.3,33.2,30.24,SSW,205,6.3,6.3,48,0.00,,OVC,0.00,VWS V14.00,2013-01-20 04:00:00,
2013-01-19 23:01:00,52.3,33.2,30.24,SSW,204,4.9,6.3,48,0.00,,OVC,0.00,VWS V14.00,2013-01-20 04:01:00,
2013-01-19 23:02:00,52.3,33.2,30.24,SSW,205,5.8,5.8,48,0.00,,OVC,0.00,VWS V14.00,2013-01-20 04:02:00,
2013-01-19 23:03:00,52.3,33.2,30.24,South,189,4.9,5.8,48,0.00,,OVC,0.00,VWS V14.00,2013-01-20 04:03:00,
2013-01-19 23:04:00,52.2,33.1,30.24,SSW,196,4.9,5.4,48,0.00,,OVC,0.00,VWS V14.00,2013-01-20 04:04:00,
2013-01-19 23:05:00,52.2,33.1,30.24,SSW,200,6.3,6.3,48,0.00,,OVC,0.00,VWS V14.00,2013-01-20 04:05:00,
2013-01-19 23:06:00,52.2,33.1,30.24,SSW,196,6.3,6.3,48,0.00,,OVC,0.00,VWS V14.00,2013-01-20 04:06:00,
2013-01-19 23:07:00,52.2,33.1,30.24,SSW,204,6.3,6.3,48,0.00,,OVC,0.00,VWS V14.00,2013-01-20 04:07:00,
2013-01-19 23:08:00,52.2,33.1,30.24,SSW,194,5.4,7.6,48,0.00,,OVC,0.00,VWS V14.00,2013-01-20 04:08:00,
2013-01-19 23:09:00,52.0,32.9,30.24,SSW,193,5.8,5.8,48,0.00,,OVC,0.00,VWS V14.00,2013-01-20 04:09:00,
2013-01-19 23:10:00,52.0,32.9,30.24,SSW,198,4.0,5.8,48,0.00,,OVC,0.00,VWS V14.00,2013-01-20 04:10:00,
2013-01-19 23:11:00,52.0,32.9,30.24,SSW,194,5.8,5.8,48,0.00,,OVC,0.00,VWS V14.00,2013-01-20 04:11:00,
2013-01-19 23:12:00,52.0,32.9,30.24,South,190,6.3,6.3,48,0.00,,OVC,0.00,VWS V14.00,2013-01-20 04:12:00,
2013-01-19 23:13:00,51.8,32.8,30.24,SSW,194,6.3,6.3,48,0.00,,OVC,0.00,VWS V14.00,2013-01-20 04:13:00,
2013-01-19 23:14:00,51.8,32.8,30.24,SSW,197,4.9,6.3,48,0.00,,OVC,0.00,VWS V14.00,2013-01-20 04:14:00,
2013-01-19 23:15:00,51.8,32.8,30.24,SSW,208,5.8,5.8,48,0.00,,OVC,0.00,VWS V14.00,2013-01-20 04:15:00,
2013-01-19 23:16:00,51.8,32.8,30.24,SSW,208,6.3,6.3,48,0.00,,OVC,0.00,VWS V14.00,2013-01-20 04:16:00,
2013-01-19 23:17:00,51.8,32.8,30.24,SSW,207,8.1,8.1,48,0.00,,OVC,0.00,VWS V14.00,2013-01-20 04:17:00,
2013-01-19 23:18:00,51.8,32.8,30.24,SSW,206,5.8,8.1,48,0.00,,OVC,0.00,VWS V14.00,2013-01-20 04:18:00,
2013-01-19 23:19:00,51.8,32.8,30.24,SSW,198,4.0,6.3,48,0.00,,OVC,0.00,VWS V14.00,2013-01-20 04:19:00,
2013-01-19 23:20:00,51.8,32.8,30.24,SSW,205,4.9,4.9,48,0.00,,OVC,0.00,VWS V14.00,2013-01-20 04:20:00,
2013-01-19 23:21:00,51.6,33.1,30.24,SSW,198,5.8,5.8,49,0.00,,OVC,0.00,VWS V14.00,2013-01-20 04:21:00,
2013-01-19 23:22:00,51.6,33.1,30.24,SSW,196,4.0,6.3,49,0.00,,OVC,0.00,VWS V14.00,2013-01-20 04:22:00,
2013-01-19 23:23:00,51.6,33.1,30.24,SSW,203,5.4,5.4,49,0.00,,OVC,0.00,VWS V14.00,2013-01-20 04:23:00,
2013-01-19 23:24:00,51.6,33.1,30.24,SSW,202,5.4,5.8,49,0.00,,OVC,0.00,VWS V14.00,2013-01-20 04:24:00,
2013-01-19 23:25:00,51.6,33.1,30.24,SSW,204,5.4,5.8,49,0.00,,OVC,0.00,VWS V14.00,2013-01-20 04:25:00,
2013-01-19 23:26:00,51.6,33.1,30.24,SSW,205,5.4,5.8,49,0.00,,OVC,0.00,VWS V14.00,2013-01-20 04:26:00,
2013-01-19 23:27:00,51.6,33.1,30.24,SSW,207,5.8,5.8,49,0.00,,OVC,0.00,VWS V14.00,2013-01-20 04:27:00,
2013-01-19 23:28:00,51.6,33.1,30.24,SSW,207,5.4,6.3,49,0.00,,OVC,0.00,VWS V14.00,2013-01-20 04:28:00,
2013-01-19 23:29:00,51.4,32.9,30.24,SSW,207,5.4,6.3,49,0.00,,OVC,0.00,VWS V14.00,2013-01-20 04:29:00,
2013-01-19 23:30:00,51.4,32.9,30.24,SSW,209,5.8,5.8,49,0.00,,OVC,0.00,VWS V14.00,2013-01-20 04:30:00,
2013-01-19 23:31:00,51.4,32.9,30.24,SSW,210,5.4,5.8,49,0.00,,OVC,0.00,VWS V14.00,2013-01-20 04:31:00,
2013-01-19 23:32:00,51.4,32.9,30.24,SSW,199,4.9,6.3,49,0.00,,OVC,0.00,VWS V14.00,2013-01-20 04:32:00,
2013-01-19 23:33:00,51.4,32.9,30.26,SSW,196,5.8,5.8,49,0.00,,OVC,0.00,VWS V14.00,2013-01-20 04:33:00,
2013-01-19 23:34:00,51.4,32.9,30.27,SSW,201,5.8,7.2,49,0.00,,OVC,0.00,VWS V14.00,2013-01-20 04:34:00,
2013-01-19 23:35:00,51.4,32.9,30.26,SSW,200,8.1,8.1,49,0.00,,OVC,0.00,VWS V14.00,2013-01-20 04:35:00,
2013-01-19 23:36:00,51.4,32.9,30.26,SSW,194,4.0,8.1,49,0.00,,OVC,0.00,VWS V14.00,2013-01-20 04:36:00,
2013-01-19 23:37:00,51.4,32.9,30.26,SSW,207,5.8,5.8,49,0.00,,OVC,0.00,VWS V14.00,2013-01-20 04:37:00,
2013-01-19 23:38:00,51.4,32.9,30.26,SSW,198,5.8,6.3,49,0.00,,OVC,0.00,VWS V14.00,2013-01-20 04:38:00,
2013-01-19 23:39:00,51.4,32.9,30.27,SSW,194,5.8,6.7,49,0.00,,OVC,0.00,VWS V14.00,2013-01-20 04:39:00,
2013-01-19 23:40:00,51.4,32.9,30.26,SSW,194,6.3,6.3,49,0.00,,OVC,0.00,VWS V14.00,2013-01-20 04:40:00,
2013-01-19 23:41:00,51.4,32.9,30.26,SSW,196,6.3,6.3,49,0.00,,OVC,0.00,VWS V14.00,2013-01-20 04:41:00,
2013-01-19 23:42:00,51.4,32.9,30.26,SSW,192,8.1,8.1,49,0.00,,OVC,0.00,VWS V14.00,2013-01-20 04:42:00,
2013-01-19 23:43:00,51.4,32.9,30.26,SSW,206,6.3,8.1,49,0.00,,OVC,0.00,VWS V14.00,2013-01-20 04:43:00,
2013-01-19 23:44:00,51.4,32.9,30.27,SSW,193,5.8,7.6,49,0.00,,OVC,0.00,VWS V14.00,2013-01-20 04:44:00,
2013-01-19 23:45:00,51.4,32.9,30.26,SSW,194,5.8,5.8,49,0.00,,OVC,0.00,VWS V14.00,2013-01-20 04:45:00,
2013-01-19 23:46:00,51.3,33.3,30.26,South,190,6.3,6.3,50,0.00,,OVC,0.00,VWS V14.00,2013-01-20 04:46:00,
2013-01-19 23:47:00,51.3,33.3,30.26,SSW,200,6.3,6.3,50,0.00,,OVC,0.00,VWS V14.00,2013-01-20 04:47:00,
2013-01-19 23:48:00,51.3,33.3,30.26,SSW,205,8.1,8.1,50,0.00,,OVC,0.00,VWS V14.00,2013-01-20 04:48:00,
2013-01-19 23:49:00,51.3,33.3,30.27,SSW,200,5.8,8.1,50,0.00,,OVC,0.00,VWS V14.00,2013-01-20 04:49:00,
2013-01-19 23:50:00,51.3,33.3,30.26,SSW,203,5.8,5.8,50,0.00,,OVC,0.00,VWS V14.00,2013-01-20 04:50:00,
2013-01-19 23:51:00,51.3,33.3,30.26,South,183,6.3,6.3,50,0.00,,OVC,0.00,VWS V14.00,2013-01-20 04:51:00,
2013-01-19 23:52:00,51.3,33.3,30.26,SSW,208,5.4,6.3,50,0.00,,OVC,0.00,VWS V14.00,2013-01-20 04:52:00,
2013-01-19 23:53:00,51.3,33.3,30.26,SSW,199,5.4,8.3,50,0.00,,OVC,0.00,VWS V14.00,2013-01-20 04:53:00,
2013-01-19 23:54:00,51.3,33.3,30.26,SSW,193,5.4,5.8,50,0.00,,OVC,0.00,VWS V14.00,2013-01-20 04:54:00,
2013-01-19 23:55:00,51.3,33.3,30.27,SSW,205,4.0,5.4,50,0.00,,OVC,0.00,VWS V14.00,2013-01-20 04:55:00,
2013-01-19 23:56:00,51.3,33.3,30.26,SSW,202,6.3,6.3,50,0.00,,OVC,0.00,VWS V14.00,2013-01-20 04:56:00,
2013-01-19 23:57:00,51.3,33.3,30.26,SSW,206,5.8,7.6,50,0.00,,OVC,0.00,VWS V14.00,2013-01-20 04:57:00,
2013-01-19 23:58:00,51.3,33.3,30.26,SSW,211,5.4,5.8,50,0.00,,OVC,0.00,VWS V14.00,2013-01-20 04:58:00,
2013-01-19 23:59:00,51.3,33.3,30.26,SSW,210,4.9,5.8,50,0.00,,OVC,0.00,VWS V14.00,2013-01-20 04:59:00,